Wetterdaten: aktuell Mittwoch, 11.12.2019 20:52
Datum Zeit Temp. I. Temp. A. Feuchte I. Feuchte A. Luftdruck Regen Wind Richtung Richtung ET Taupunkt Windchill Windben Empfang
11.12.2019 20:52 23,4 C -3,1 C 41 % 80 % 1012,0 hPa 0,0 l/m 4,8 km/h (1 Bft) W 270 0,000 mm -6,0 C -3,1 C 6,4 km/h (2 Bft) 95,65 %
11.12.2019 20:51 23,4 C -3,1 C 41 % 81 % 1012,1 hPa 0,0 l/m 4,8 km/h (1 Bft) W 270 0,000 mm -5,9 C -3,1 C 6,4 km/h (2 Bft) 100,00 %
11.12.2019 20:50 23,4 C -3,2 C 41 % 81 % 1012,0 hPa 0,0 l/m 4,8 km/h (1 Bft) W 270 0,000 mm -6,0 C -3,2 C 6,4 km/h (2 Bft) 100,00 %
11.12.2019 20:49 23,4 C -3,3 C 41 % 80 % 1012,0 hPa 0,0 l/m 1,6 km/h (1 Bft) W 270 0,000 mm -6,2 C -3,3 C 4,8 km/h (1 Bft) 100,00 %
11.12.2019 20:48 23,3 C -3,3 C 41 % 80 % 1011,9 hPa 0,0 l/m 1,6 km/h (1 Bft) W 270 0,000 mm -6,2 C -3,3 C 4,8 km/h (1 Bft) 100,00 %
11.12.2019 20:47 23,4 C -3,4 C 41 % 80 % 1011,9 hPa 0,0 l/m 1,6 km/h (1 Bft) W 270 0,000 mm -6,3 C -3,4 C 4,8 km/h (1 Bft) 100,00 %
11.12.2019 20:46 23,4 C -3,4 C 41 % 80 % 1011,9 hPa 0,0 l/m 3,2 km/h (1 Bft) W 270 0,000 mm -6,3 C -3,4 C 4,8 km/h (1 Bft) 100,00 %
11.12.2019 20:45 23,4 C -3,3 C 41 % 80 % 1011,9 hPa 0,0 l/m 3,2 km/h (1 Bft) W 270 0,000 mm -6,2 C -3,3 C 4,8 km/h (1 Bft) 100,00 %
11.12.2019 20:44 23,4 C -3,2 C 41 % 80 % 1011,9 hPa 0,0 l/m 1,6 km/h (1 Bft) W 270 0,000 mm -6,1 C -3,2 C 1,6 km/h (1 Bft) 100,00 %
11.12.2019 20:43 23,3 C -3,2 C 41 % 80 % 1011,9 hPa 0,0 l/m 1,6 km/h (1 Bft) W 270 0,000 mm -6,1 C -3,2 C 3,2 km/h (1 Bft) 95,65 %
11.12.2019 20:42 23,3 C -3,2 C 41 % 80 % 1011,9 hPa 0,0 l/m 1,6 km/h (1 Bft) W 270 0,000 mm -6,1 C -3,2 C 3,2 km/h (1 Bft) 100,00 %
11.12.2019 20:41 23,4 C -3,1 C 41 % 80 % 1012,0 hPa 0,0 l/m 3,2 km/h (1 Bft) W 270 0,000 mm -6,0 C -3,1 C 6,4 km/h (2 Bft) 100,00 %
11.12.2019 20:40 23,4 C -3,1 C 41 % 80 % 1012,0 hPa 0,0 l/m 1,6 km/h (1 Bft) W-NW 292 0,000 mm -6,0 C -3,1 C 4,8 km/h (1 Bft) 95,65 %
11.12.2019 20:39 23,3 C -3,0 C 41 % 80 % 1012,0 hPa 0,0 l/m 1,6 km/h (1 Bft) W-NW 292 0,000 mm -6,0 C -3,0 C 3,2 km/h (1 Bft) 100,00 %
11.12.2019 20:38 23,4 C -2,9 C 41 % 80 % 1011,9 hPa 0,0 l/m 1,6 km/h (1 Bft) W-NW 292 0,000 mm -5,9 C -2,9 C 4,8 km/h (1 Bft) 100,00 %
11.12.2019 20:37 23,4 C -2,9 C 41 % 80 % 1011,9 hPa 0,0 l/m 3,2 km/h (1 Bft) W-SW 247 0,000 mm -5,9 C -2,9 C 6,4 km/h (2 Bft) 100,00 %
11.12.2019 20:36 23,4 C -2,9 C 41 % 80 % 1011,9 hPa 0,0 l/m 4,8 km/h (1 Bft) W-SW 247 0,000 mm -5,9 C -2,9 C 6,4 km/h (2 Bft) 95,65 %
11.12.2019 20:35 23,4 C -2,9 C 41 % 80 % 1011,9 hPa 0,0 l/m 4,8 km/h (1 Bft) W 270 0,000 mm -5,9 C -2,9 C 6,4 km/h (2 Bft) 95,65 %
11.12.2019 20:34 23,4 C -2,9 C 41 % 80 % 1011,8 hPa 0,0 l/m 4,8 km/h (1 Bft) W 270 0,000 mm -5,9 C -2,9 C 4,8 km/h (1 Bft) 100,00 %
11.12.2019 20:33 23,4 C -2,9 C 41 % 80 % 1011,8 hPa 0,0 l/m 3,2 km/h (1 Bft) W 270 0,000 mm -5,9 C -2,9 C 4,8 km/h (1 Bft) 100,00 %
11.12.2019 20:32 23,3 C -3,0 C 41 % 80 % 1011,7 hPa 0,0 l/m 4,8 km/h (1 Bft) W 270 0,000 mm -6,0 C -3,0 C 6,4 km/h (2 Bft) 100,00 %
11.12.2019 20:31 23,3 C -3,0 C 41 % 80 % 1011,7 hPa 0,0 l/m 3,2 km/h (1 Bft) W 270 0,000 mm -6,0 C -3,0 C 6,4 km/h (2 Bft) 100,00 %
11.12.2019 20:30 23,3 C -3,0 C 41 % 80 % 1011,6 hPa 0,0 l/m 3,2 km/h (1 Bft) W-SW 247 0,000 mm -6,0 C -3,0 C 4,8 km/h (1 Bft) 100,00 %
11.12.2019 20:29 23,3 C -3,0 C 41 % 80 % 1011,7 hPa 0,0 l/m 3,2 km/h (1 Bft) W-SW 247 0,000 mm -6,0 C -3,0 C 4,8 km/h (1 Bft) 100,00 %
11.12.2019 20:28 23,4 C -3,1 C 41 % 80 % 1011,6 hPa 0,0 l/m 1,6 km/h (1 Bft) W-SW 247 0,000 mm -6,0 C -3,1 C 4,8 km/h (1 Bft) 95,65 %
11.12.2019 20:27 23,4 C -3,0 C 41 % 80 % 1011,7 hPa 0,0 l/m 1,6 km/h (1 Bft) W-SW 247 0,000 mm -6,0 C -3,0 C 4,8 km/h (1 Bft) 100,00 %
11.12.2019 20:26 23,3 C -3,0 C 41 % 80 % 1011,6 hPa 0,0 l/m 1,6 km/h (1 Bft) W-SW 247 0,000 mm -6,0 C -3,0 C 3,2 km/h (1 Bft) 100,00 %
11.12.2019 20:25 23,4 C -2,9 C 41 % 80 % 1011,6 hPa 0,0 l/m 1,6 km/h (1 Bft) W-SW 247 0,000 mm -5,9 C -2,9 C 4,8 km/h (1 Bft) 100,00 %
11.12.2019 20:24 23,3 C -2,9 C 41 % 80 % 1011,6 hPa 0,0 l/m 1,6 km/h (1 Bft) W-SW 247 0,000 mm -5,9 C -2,9 C 4,8 km/h (1 Bft) 100,00 %
11.12.2019 20:23 23,3 C -2,9 C 41 % 80 % 1011,6 hPa 0,0 l/m 3,2 km/h (1 Bft) W 270 0,000 mm -5,9 C -2,9 C 4,8 km/h (1 Bft) 100,00 %
11.12.2019 20:22 23,3 C -2,9 C 41 % 80 % 1011,7 hPa 0,0 l/m 4,8 km/h (1 Bft) W 270 0,000 mm -5,9 C -2,9 C 6,4 km/h (2 Bft) 100,00 %
11.12.2019 20:21 23,4 C -2,9 C 41 % 80 % 1011,7 hPa 0,0 l/m 3,2 km/h (1 Bft) W 270 0,000 mm -5,9 C -2,9 C 4,8 km/h (1 Bft) 100,00 %
11.12.2019 20:20 23,3 C -2,9 C 41 % 80 % 1011,7 hPa 0,0 l/m 3,2 km/h (1 Bft) W 270 0,000 mm -5,9 C -2,9 C 4,8 km/h (1 Bft) 100,00 %
11.12.2019 20:19 23,3 C -2,9 C 41 % 80 % 1011,6 hPa 0,0 l/m 3,2 km/h (1 Bft) W-SW 247 0,000 mm -5,9 C -2,9 C 4,8 km/h (1 Bft) 95,65 %
11.12.2019 20:18 23,3 C -2,9 C 41 % 80 % 1011,6 hPa 0,0 l/m 4,8 km/h (1 Bft) W 270 0,000 mm -5,9 C -2,9 C 6,4 km/h (2 Bft) 100,00 %
11.12.2019 20:17 23,4 C -2,9 C 41 % 80 % 1011,6 hPa 0,0 l/m 3,2 km/h (1 Bft) W 270 0,000 mm -5,9 C -2,9 C 3,2 km/h (1 Bft) 100,00 %
11.12.2019 20:16 23,4 C -2,9 C 41 % 80 % 1011,6 hPa 0,0 l/m 1,6 km/h (1 Bft) W 270 0,000 mm -5,9 C -2,9 C 3,2 km/h (1 Bft) 100,00 %
11.12.2019 20:15 23,3 C -2,9 C 41 % 80 % 1011,6 hPa 0,0 l/m 3,2 km/h (1 Bft) W 270 0,000 mm -5,9 C -2,9 C 4,8 km/h (1 Bft) 100,00 %
11.12.2019 20:14 23,3 C -2,9 C 41 % 80 % 1011,5 hPa 0,0 l/m 3,2 km/h (1 Bft) W 270 0,000 mm -5,9 C -2,9 C 4,8 km/h (1 Bft) 100,00 %
11.12.2019 20:13 23,3 C -2,9 C 41 % 80 % 1011,5 hPa 0,0 l/m 3,2 km/h (1 Bft) W 270 0,000 mm -5,9 C -2,9 C 3,2 km/h (1 Bft) 100,00 %
11.12.2019 20:12 23,3 C -2,9 C 41 % 80 % 1011,5 hPa 0,0 l/m 3,2 km/h (1 Bft) W 270 0,000 mm -5,9 C -2,9 C 3,2 km/h (1 Bft) 95,65 %
11.12.2019 20:11 23,4 C -2,9 C 41 % 80 % 1011,5 hPa 0,0 l/m 3,2 km/h (1 Bft) W 270 0,000 mm -5,9 C -2,9 C 4,8 km/h (1 Bft) 91,30 %
11.12.2019 20:10 23,3 C -3,0 C 41 % 80 % 1011,5 hPa 0,0 l/m 3,2 km/h (1 Bft) W 270 0,000 mm -6,0 C -3,0 C 4,8 km/h (1 Bft) 100,00 %
11.12.2019 20:09 23,3 C -3,0 C 41 % 80 % 1011,5 hPa 0,0 l/m 1,6 km/h (1 Bft) W 270 0,000 mm -6,0 C -3,0 C 3,2 km/h (1 Bft) 100,00 %
11.12.2019 20:08 23,3 C -3,0 C 41 % 80 % 1011,5 hPa 0,0 l/m 3,2 km/h (1 Bft) W 270 0,000 mm -6,0 C -3,0 C 4,8 km/h (1 Bft) 100,00 %
11.12.2019 20:07 23,3 C -3,1 C 41 % 80 % 1011,5 hPa 0,0 l/m 3,2 km/h (1 Bft) W 270 0,000 mm -6,0 C -3,1 C 6,4 km/h (2 Bft) 100,00 %
11.12.2019 20:06 23,3 C -3,1 C 41 % 80 % 1011,5 hPa 0,0 l/m 1,6 km/h (1 Bft) W 270 0,000 mm -6,0 C -3,1 C 3,2 km/h (1 Bft) 100,00 %
11.12.2019 20:05 23,4 C -3,0 C 41 % 80 % 1011,5 hPa 0,0 l/m 3,2 km/h (1 Bft) W 270 0,000 mm -6,0 C -3,0 C 3,2 km/h (1 Bft) 100,00 %
11.12.2019 20:04 23,4 C -3,0 C 41 % 80 % 1011,5 hPa 0,0 l/m 1,6 km/h (1 Bft) W 270 0,000 mm -6,0 C -3,0 C 3,2 km/h (1 Bft) 100,00 %
11.12.2019 20:03 23,4 C -3,1 C 41 % 80 % 1011,5 hPa 0,0 l/m 1,6 km/h (1 Bft) W 270 0,000 mm -6,0 C -3,1 C 4,8 km/h (1 Bft) 100,00 %
11.12.2019 20:02 23,3 C -3,1 C 41 % 80 % 1011,5 hPa 0,0 l/m 3,2 km/h (1 Bft) W 270 0,000 mm -6,0 C -3,1 C 4,8 km/h (1 Bft) 91,30 %
11.12.2019 20:01 23,3 C -3,1 C 41 % 80 % 1011,5 hPa 0,0 l/m 1,6 km/h (1 Bft) W 270 0,000 mm -6,0 C -3,1 C 3,2 km/h (1 Bft) 100,00 %
11.12.2019 20:00 23,4 C -3,1 C 41 % 80 % 1011,5 hPa 0,0 l/m 0,0 km/h (0 Bft) N 0 0,000 mm -6,0 C -3,1 C 0,0 km/h (0 Bft) 100,00 %
11.12.2019 19:59 23,3 C -3,1 C 41 % 80 % 1011,5 hPa 0,0 l/m 0,0 km/h (0 Bft) W-NW 292 0,000 mm -6,0 C -3,1 C 1,6 km/h (1 Bft) 100,00 %
11.12.2019 19:58 23,3 C -3,0 C 41 % 80 % 1011,5 hPa 0,0 l/m 1,6 km/h (1 Bft) W-NW 292 0,000 mm -6,0 C -3,0 C 3,2 km/h (1 Bft) 100,00 %
11.12.2019 19:57 23,4 C -2,9 C 41 % 80 % 1011,5 hPa 0,0 l/m 1,6 km/h (1 Bft) W-NW 292 0,000 mm -5,9 C -2,9 C 3,2 km/h (1 Bft) 95,65 %
11.12.2019 19:56 23,4 C -2,8 C 41 % 80 % 1011,5 hPa 0,0 l/m 1,6 km/h (1 Bft) W-NW 292 0,000 mm -5,8 C -2,8 C 3,2 km/h (1 Bft) 100,00 %
11.12.2019 19:55 23,3 C -2,8 C 41 % 80 % 1011,5 hPa 0,0 l/m 3,2 km/h (1 Bft) W 270 0,000 mm -5,8 C -2,8 C 4,8 km/h (1 Bft) 100,00 %
11.12.2019 19:54 23,4 C -2,8 C 41 % 80 % 1011,5 hPa 0,0 l/m 3,2 km/h (1 Bft) W 270 0,000 mm -5,8 C -2,8 C 4,8 km/h (1 Bft) 100,00 %
11.12.2019 19:53 23,3 C -2,7 C 41 % 80 % 1011,5 hPa 0,0 l/m 3,2 km/h (1 Bft) W 270 0,000 mm -5,7 C -2,7 C 4,8 km/h (1 Bft) 100,00 %
11.12.2019 19:52 23,4 C -2,7 C 41 % 80 % 1011,5 hPa 0,0 l/m 4,8 km/h (1 Bft) W 270 0,000 mm -5,7 C -2,7 C 6,4 km/h (2 Bft) 100,00 %
11.12.2019 19:51 23,3 C -2,7 C 41 % 80 % 1011,5 hPa 0,0 l/m 4,8 km/h (1 Bft) W 270 0,000 mm -5,7 C -2,7 C 6,4 km/h (2 Bft) 100,00 %
11.12.2019 19:50 23,4 C -2,7 C 41 % 80 % 1011,6 hPa 0,0 l/m 3,2 km/h (1 Bft) W 270 0,000 mm -5,7 C -2,7 C 4,8 km/h (1 Bft) 100,00 %
11.12.2019 19:49 23,3 C -2,7 C 41 % 80 % 1011,5 hPa 0,0 l/m 3,2 km/h (1 Bft) W-NW 292 0,000 mm -5,7 C -2,7 C 4,8 km/h (1 Bft) 100,00 %
11.12.2019 19:48 23,3 C -2,7 C 41 % 80 % 1011,5 hPa 0,0 l/m 3,2 km/h (1 Bft) W 270 0,000 mm -5,7 C -2,7 C 4,8 km/h (1 Bft) 100,00 %
11.12.2019 19:47 23,4 C -2,7 C 41 % 80 % 1011,5 hPa 0,0 l/m 3,2 km/h (1 Bft) W 270 0,000 mm -5,7 C -2,7 C 4,8 km/h (1 Bft) 100,00 %
11.12.2019 19:46 23,3 C -2,7 C 41 % 80 % 1011,5 hPa 0,0 l/m 3,2 km/h (1 Bft) W 270 0,000 mm -5,7 C -2,7 C 4,8 km/h (1 Bft) 100,00 %
11.12.2019 19:45 23,3 C -2,7 C 41 % 80 % 1011,6 hPa 0,0 l/m 4,8 km/h (1 Bft) W 270 0,000 mm -5,7 C -2,7 C 6,4 km/h (2 Bft) 95,65 %
11.12.2019 19:44 23,4 C -2,7 C 41 % 80 % 1011,6 hPa 0,0 l/m 4,8 km/h (1 Bft) W 270 0,000 mm -5,7 C -2,7 C 6,4 km/h (2 Bft) 100,00 %
11.12.2019 19:43 23,4 C -2,7 C 41 % 80 % 1011,5 hPa 0,0 l/m 4,8 km/h (1 Bft) W 270 0,000 mm -5,7 C -2,7 C 6,4 km/h (2 Bft) 91,30 %
11.12.2019 19:42 23,3 C -2,7 C 41 % 80 % 1011,6 hPa 0,0 l/m 4,8 km/h (1 Bft) W 270 0,000 mm -5,7 C -2,7 C 6,4 km/h (2 Bft) 100,00 %
11.12.2019 19:41 23,3 C -2,7 C 41 % 80 % 1011,5 hPa 0,0 l/m 4,8 km/h (1 Bft) W 270 0,000 mm -5,7 C -2,7 C 6,4 km/h (2 Bft) 100,00 %
11.12.2019 19:40 23,3 C -2,7 C 41 % 80 % 1011,5 hPa 0,0 l/m 4,8 km/h (1 Bft) W 270 0,000 mm -5,7 C -2,7 C 6,4 km/h (2 Bft) 100,00 %
11.12.2019 19:39 23,4 C -2,7 C 41 % 80 % 1011,5 hPa 0,0 l/m 4,8 km/h (1 Bft) W 270 0,000 mm -5,7 C -2,7 C 9,7 km/h (2 Bft) 100,00 %
11.12.2019 19:38 23,4 C -2,7 C 41 % 80 % 1011,5 hPa 0,0 l/m 3,2 km/h (1 Bft) W 270 0,000 mm -5,7 C -2,7 C 4,8 km/h (1 Bft) 100,00 %
11.12.2019 19:37 23,4 C -2,8 C 41 % 80 % 1011,5 hPa 0,0 l/m 4,8 km/h (1 Bft) W-SW 247 0,000 mm -5,8 C -2,8 C 9,7 km/h (2 Bft) 100,00 %
11.12.2019 19:36 23,3 C -2,8 C 41 % 80 % 1011,5 hPa 0,0 l/m 4,8 km/h (1 Bft) W 270 0,000 mm -5,8 C -2,8 C 6,4 km/h (2 Bft) 100,00 %
11.12.2019 19:35 23,4 C -2,8 C 41 % 80 % 1011,5 hPa 0,0 l/m 4,8 km/h (1 Bft) W 270 0,000 mm -5,8 C -2,8 C 6,4 km/h (2 Bft) 100,00 %
11.12.2019 19:34 23,4 C -2,8 C 41 % 80 % 1011,6 hPa 0,0 l/m 4,8 km/h (1 Bft) W 270 0,000 mm -5,8 C -2,8 C 6,4 km/h (2 Bft) 100,00 %
11.12.2019 19:33 23,4 C -2,9 C 41 % 80 % 1011,5 hPa 0,0 l/m 3,2 km/h (1 Bft) W 270 0,000 mm -5,9 C -2,9 C 4,8 km/h (1 Bft) 95,65 %
11.12.2019 19:32 23,4 C -2,9 C 41 % 80 % 1011,6 hPa 0,0 l/m 3,2 km/h (1 Bft) W 270 0,000 mm -5,9 C -2,9 C 4,8 km/h (1 Bft) 100,00 %
11.12.2019 19:31 23,4 C -2,9 C 41 % 80 % 1011,6 hPa 0,0 l/m 3,2 km/h (1 Bft) W 270 0,000 mm -5,9 C -2,9 C 4,8 km/h (1 Bft) 100,00 %
11.12.2019 19:30 23,4 C -2,9 C 41 % 80 % 1011,6 hPa 0,0 l/m 1,6 km/h (1 Bft) W 270 0,000 mm -5,9 C -2,9 C 3,2 km/h (1 Bft) 95,65 %
11.12.2019 19:29 23,4 C -2,9 C 41 % 80 % 1011,6 hPa 0,0 l/m 1,6 km/h (1 Bft) W 270 0,000 mm -5,9 C -2,9 C 3,2 km/h (1 Bft) 100,00 %
11.12.2019 19:28 23,4 C -2,9 C 41 % 80 % 1011,6 hPa 0,0 l/m 1,6 km/h (1 Bft) W 270 0,000 mm -5,9 C -2,9 C 3,2 km/h (1 Bft) 100,00 %
11.12.2019 19:27 23,4 C -2,8 C 41 % 80 % 1011,6 hPa 0,0 l/m 1,6 km/h (1 Bft) W 270 0,000 mm -5,8 C -2,8 C 1,6 km/h (1 Bft) 100,00 %
11.12.2019 19:26 23,4 C -2,8 C 41 % 80 % 1011,6 hPa 0,0 l/m 3,2 km/h (1 Bft) W 270 0,000 mm -5,8 C -2,8 C 4,8 km/h (1 Bft) 100,00 %
11.12.2019 19:25 23,4 C -2,8 C 41 % 80 % 1011,7 hPa 0,0 l/m 3,2 km/h (1 Bft) W 270 0,000 mm -5,8 C -2,8 C 6,4 km/h (2 Bft) 100,00 %
11.12.2019 19:24 23,4 C -2,8 C 41 % 80 % 1011,7 hPa 0,0 l/m 3,2 km/h (1 Bft) W-SW 247 0,000 mm -5,8 C -2,8 C 4,8 km/h (1 Bft) 100,00 %
11.12.2019 19:23 23,4 C -2,8 C 41 % 80 % 1011,7 hPa 0,0 l/m 3,2 km/h (1 Bft) W 270 0,000 mm -5,8 C -2,8 C 4,8 km/h (1 Bft) 95,65 %
11.12.2019 19:22 23,4 C -2,7 C 41 % 80 % 1011,7 hPa 0,0 l/m 4,8 km/h (1 Bft) W 270 0,000 mm -5,7 C -2,7 C 6,4 km/h (2 Bft) 100,00 %
11.12.2019 19:21 23,4 C -2,7 C 41 % 80 % 1011,8 hPa 0,0 l/m 3,2 km/h (1 Bft) W 270 0,000 mm -5,7 C -2,7 C 4,8 km/h (1 Bft) 100,00 %
11.12.2019 19:20 23,4 C -2,7 C 41 % 80 % 1011,8 hPa 0,0 l/m 3,2 km/h (1 Bft) W 270 0,000 mm -5,7 C -2,7 C 4,8 km/h (1 Bft) 100,00 %
11.12.2019 19:19 23,4 C -2,7 C 41 % 80 % 1011,7 hPa 0,0 l/m 4,8 km/h (1 Bft) W 270 0,000 mm -5,7 C -2,7 C 6,4 km/h (2 Bft) 95,65 %
11.12.2019 19:18 23,4 C -2,7 C 41 % 80 % 1011,8 hPa 0,0 l/m 3,2 km/h (1 Bft) W 270 0,000 mm -5,7 C -2,7 C 4,8 km/h (1 Bft) 100,00 %
11.12.2019 19:17 23,4 C -2,7 C 41 % 80 % 1011,8 hPa 0,0 l/m 3,2 km/h (1 Bft) W-NW 292 0,000 mm -5,7 C -2,7 C 6,4 km/h (2 Bft) 100,00 %
11.12.2019 19:16 23,4 C -2,7 C 41 % 80 % 1011,7 hPa 0,0 l/m 3,2 km/h (1 Bft) W-NW 292 0,000 mm -5,7 C -2,7 C 4,8 km/h (1 Bft) 100,00 %
11.12.2019 19:15 23,4 C -2,7 C 41 % 80 % 1011,8 hPa 0,0 l/m 3,2 km/h (1 Bft) W 270 0,000 mm -5,7 C -2,7 C 4,8 km/h (1 Bft) 100,00 %
11.12.2019 19:14 23,4 C -2,7 C 41 % 80 % 1011,7 hPa 0,0 l/m 3,2 km/h (1 Bft) W 270 0,000 mm -5,7 C -2,7 C 4,8 km/h (1 Bft) 100,00 %
11.12.2019 19:13 23,4 C -2,7 C 41 % 80 % 1011,7 hPa 0,0 l/m 3,2 km/h (1 Bft) W 270 0,000 mm -5,7 C -2,7 C 4,8 km/h (1 Bft) 100,00 %
11.12.2019 19:12 23,4 C -2,7 C 41 % 80 % 1011,7 hPa 0,0 l/m 3,2 km/h (1 Bft) W-NW 292 0,000 mm -5,7 C -2,7 C 4,8 km/h (1 Bft) 100,00 %
11.12.2019 19:11 23,4 C -2,7 C 41 % 80 % 1011,7 hPa 0,0 l/m 3,2 km/h (1 Bft) W-NW 292 0,000 mm -5,7 C -2,7 C 4,8 km/h (1 Bft) 100,00 %
11.12.2019 19:10 23,4 C -2,7 C 41 % 80 % 1011,7 hPa 0,0 l/m 3,2 km/h (1 Bft) W-NW 292 0,000 mm -5,7 C -2,7 C 4,8 km/h (1 Bft) 100,00 %
11.12.2019 19:09 23,4 C -2,7 C 41 % 80 % 1011,8 hPa 0,0 l/m 1,6 km/h (1 Bft) W 270 0,000 mm -5,7 C -2,7 C 3,2 km/h (1 Bft) 100,00 %
11.12.2019 19:08 23,4 C -2,7 C 41 % 80 % 1011,9 hPa 0,0 l/m 3,2 km/h (1 Bft) W 270 0,000 mm -5,7 C -2,7 C 4,8 km/h (1 Bft) 100,00 %
11.12.2019 19:07 23,4 C -2,7 C 41 % 80 % 1011,8 hPa 0,0 l/m 3,2 km/h (1 Bft) W 270 0,000 mm -5,7 C -2,7 C 4,8 km/h (1 Bft) 100,00 %
11.12.2019 19:06 23,4 C -2,7 C 41 % 80 % 1011,9 hPa 0,0 l/m 3,2 km/h (1 Bft) W 270 0,000 mm -5,7 C -2,7 C 4,8 km/h (1 Bft) 100,00 %
11.12.2019 19:05 23,4 C -2,7 C 41 % 80 % 1011,9 hPa 0,0 l/m 0,0 km/h (0 Bft) W 270 0,000 mm -5,7 C -2,7 C 3,2 km/h (1 Bft) 100,00 %
11.12.2019 19:04 23,4 C -2,7 C 41 % 80 % 1011,9 hPa 0,0 l/m 0,0 km/h (0 Bft) N 0 0,000 mm -5,7 C -2,7 C 0,0 km/h (0 Bft) 100,00 %
11.12.2019 19:03 23,4 C -2,7 C 41 % 79 % 1011,9 hPa 0,0 l/m 0,0 km/h (0 Bft) N 0 0,000 mm -5,8 C -2,7 C 0,0 km/h (0 Bft) 100,00 %
11.12.2019 19:02 23,4 C -2,6 C 41 % 79 % 1011,9 hPa 0,0 l/m 0,0 km/h (0 Bft) N 0 0,000 mm -5,7 C -2,6 C 0,0 km/h (0 Bft) 100,00 %
11.12.2019 19:01 23,4 C -2,6 C 41 % 79 % 1012,0 hPa 0,0 l/m 0,0 km/h (0 Bft) N 0 0,000 mm -5,7 C -2,6 C 0,0 km/h (0 Bft) 95,65 %
11.12.2019 19:00 23,4 C -2,6 C 41 % 79 % 1011,9 hPa 0,0 l/m 0,0 km/h (0 Bft) W 270 0,000 mm -5,7 C -2,6 C 1,6 km/h (1 Bft) 100,00 %
11.12.2019 18:59 23,4 C -2,6 C 41 % 80 % 1011,9 hPa 0,0 l/m 1,6 km/h (1 Bft) W 270 0,000 mm -5,6 C -2,6 C 1,6 km/h (1 Bft) 91,30 %
11.12.2019 18:58 23,4 C -2,5 C 41 % 80 % 1012,0 hPa 0,0 l/m 1,6 km/h (1 Bft) W 270 0,000 mm -5,5 C -2,5 C 1,6 km/h (1 Bft) 100,00 %
11.12.2019 18:57 23,4 C -2,5 C 41 % 80 % 1011,9 hPa 0,0 l/m 1,6 km/h (1 Bft) W 270 0,000 mm -5,5 C -2,5 C 1,6 km/h (1 Bft) 100,00 %
11.12.2019 18:56 23,4 C -2,4 C 41 % 80 % 1012,0 hPa 0,0 l/m 1,6 km/h (1 Bft) W 270 0,000 mm -5,4 C -2,4 C 3,2 km/h (1 Bft) 100,00 %
11.12.2019 18:55 23,4 C -2,4 C 41 % 80 % 1012,0 hPa 0,0 l/m 1,6 km/h (1 Bft) W 270 0,000 mm -5,4 C -2,4 C 3,2 km/h (1 Bft) 100,00 %
11.12.2019 18:54 23,4 C -2,4 C 41 % 79 % 1012,1 hPa 0,0 l/m 1,6 km/h (1 Bft) W 270 0,000 mm -5,5 C -2,4 C 3,2 km/h (1 Bft) 100,00 %
11.12.2019 18:53 23,4 C -2,4 C 41 % 79 % 1012,0 hPa 0,0 l/m 1,6 km/h (1 Bft) W 270 0,000 mm -5,5 C -2,4 C 3,2 km/h (1 Bft) 100,00 %
11.12.2019 18:52 23,4 C -2,4 C 41 % 80 % 1012,0 hPa 0,0 l/m 3,2 km/h (1 Bft) W 270 0,000 mm -5,4 C -2,4 C 3,2 km/h (1 Bft) 100,00 %
11.12.2019 18:51 23,4 C -2,4 C 41 % 80 % 1012,1 hPa 0,0 l/m 3,2 km/h (1 Bft) W 270 0,000 mm -5,4 C -2,4 C 3,2 km/h (1 Bft) 100,00 %
11.12.2019 18:50 23,4 C -2,4 C 41 % 80 % 1012,0 hPa 0,0 l/m 3,2 km/h (1 Bft) W 270 0,000 mm -5,4 C -2,4 C 4,8 km/h (1 Bft) 100,00 %
11.12.2019 18:49 23,4 C -2,4 C 41 % 80 % 1012,1 hPa 0,0 l/m 3,2 km/h (1 Bft) W-NW 292 0,000 mm -5,4 C -2,4 C 4,8 km/h (1 Bft) 100,00 %
11.12.2019 18:48 23,4 C -2,4 C 41 % 80 % 1012,0 hPa 0,0 l/m 3,2 km/h (1 Bft) W 270 0,000 mm -5,4 C -2,4 C 4,8 km/h (1 Bft) 100,00 %
11.12.2019 18:47 23,4 C -2,4 C 41 % 80 % 1012,1 hPa 0,0 l/m 3,2 km/h (1 Bft) W-NW 292 0,000 mm -5,4 C -2,4 C 4,8 km/h (1 Bft) 95,65 %
11.12.2019 18:46 23,4 C -2,3 C 41 % 80 % 1012,1 hPa 0,0 l/m 3,2 km/h (1 Bft) W-NW 292 0,000 mm -5,3 C -2,3 C 4,8 km/h (1 Bft) 100,00 %
11.12.2019 18:45 23,4 C -2,3 C 41 % 80 % 1012,0 hPa 0,0 l/m 3,2 km/h (1 Bft) W-NW 292 0,000 mm -5,3 C -2,3 C 4,8 km/h (1 Bft) 100,00 %
11.12.2019 18:44 23,4 C -2,3 C 41 % 80 % 1012,0 hPa 0,0 l/m 1,6 km/h (1 Bft) W-NW 292 0,000 mm -5,3 C -2,3 C 3,2 km/h (1 Bft) 95,65 %
11.12.2019 18:43 23,4 C -2,4 C 41 % 80 % 1012,1 hPa 0,0 l/m 1,6 km/h (1 Bft) W-NW 292 0,000 mm -5,4 C -2,4 C 4,8 km/h (1 Bft) 95,65 %
11.12.2019 18:42 23,4 C -2,4 C 41 % 79 % 1012,1 hPa 0,0 l/m 3,2 km/h (1 Bft) W-NW 292 0,000 mm -5,5 C -2,4 C 4,8 km/h (1 Bft) 95,65 %
11.12.2019 18:41 23,4 C -2,4 C 41 % 79 % 1012,1 hPa 0,0 l/m 1,6 km/h (1 Bft) W-NW 292 0,000 mm -5,5 C -2,4 C 3,2 km/h (1 Bft) 100,00 %
11.12.2019 18:40 23,4 C -2,4 C 41 % 79 % 1012,1 hPa 0,0 l/m 1,6 km/h (1 Bft) W-NW 292 0,000 mm -5,5 C -2,4 C 3,2 km/h (1 Bft) 95,65 %
11.12.2019 18:39 23,4 C -2,4 C 41 % 79 % 1012,1 hPa 0,0 l/m 1,6 km/h (1 Bft) W-NW 292 0,000 mm -5,5 C -2,4 C 3,2 km/h (1 Bft) 100,00 %
11.12.2019 18:38 23,4 C -2,4 C 41 % 79 % 1012,1 hPa 0,0 l/m 3,2 km/h (1 Bft) W-NW 292 0,000 mm -5,5 C -2,4 C 4,8 km/h (1 Bft) 100,00 %
11.12.2019 18:37 23,4 C -2,3 C 41 % 79 % 1012,1 hPa 0,0 l/m 3,2 km/h (1 Bft) W-NW 292 0,000 mm -5,4 C -2,3 C 4,8 km/h (1 Bft) 100,00 %
11.12.2019 18:36 23,4 C -2,4 C 41 % 79 % 1012,1 hPa 0,0 l/m 3,2 km/h (1 Bft) W-NW 292 0,000 mm -5,5 C -2,4 C 4,8 km/h (1 Bft) 100,00 %
11.12.2019 18:35 23,4 C -2,3 C 41 % 79 % 1012,1 hPa 0,0 l/m 3,2 km/h (1 Bft) W-NW 292 0,000 mm -5,4 C -2,3 C 6,4 km/h (2 Bft) 100,00 %
11.12.2019 18:34 23,4 C -2,3 C 41 % 79 % 1012,1 hPa 0,0 l/m 3,2 km/h (1 Bft) W-NW 292 0,000 mm -5,4 C -2,3 C 4,8 km/h (1 Bft) 100,00 %
11.12.2019 18:33 23,4 C -2,3 C 41 % 79 % 1012,1 hPa 0,0 l/m 4,8 km/h (1 Bft) W 270 0,000 mm -5,4 C -2,3 C 6,4 km/h (2 Bft) 100,00 %
11.12.2019 18:32 23,4 C -2,4 C 41 % 79 % 1012,1 hPa 0,0 l/m 3,2 km/h (1 Bft) W-NW 292 0,000 mm -5,5 C -2,4 C 4,8 km/h (1 Bft) 95,65 %
11.12.2019 18:31 23,4 C -2,4 C 41 % 79 % 1012,1 hPa 0,0 l/m 3,2 km/h (1 Bft) W-NW 292 0,000 mm -5,5 C -2,4 C 4,8 km/h (1 Bft) 100,00 %
11.12.2019 18:30 23,4 C -2,3 C 41 % 79 % 1012,2 hPa 0,0 l/m 3,2 km/h (1 Bft) W-NW 292 0,000 mm -5,4 C -2,3 C 3,2 km/h (1 Bft) 100,00 %
11.12.2019 18:29 23,4 C -2,3 C 41 % 79 % 1012,3 hPa 0,0 l/m 3,2 km/h (1 Bft) W 270 0,000 mm -5,4 C -2,3 C 3,2 km/h (1 Bft) 100,00 %
11.12.2019 18:28 23,4 C -2,3 C 41 % 79 % 1012,2 hPa 0,0 l/m 3,2 km/h (1 Bft) W 270 0,000 mm -5,4 C -2,3 C 4,8 km/h (1 Bft) 100,00 %
11.12.2019 18:27 23,4 C -2,3 C 41 % 79 % 1012,3 hPa 0,0 l/m 3,2 km/h (1 Bft) W 270 0,000 mm -5,4 C -2,3 C 3,2 km/h (1 Bft) 100,00 %
11.12.2019 18:26 23,4 C -2,3 C 41 % 79 % 1012,2 hPa 0,0 l/m 1,6 km/h (1 Bft) W 270 0,000 mm -5,4 C -2,3 C 3,2 km/h (1 Bft) 100,00 %
11.12.2019 18:25 23,4 C -2,3 C 41 % 79 % 1012,2 hPa 0,0 l/m 3,2 km/h (1 Bft) W 270 0,000 mm -5,4 C -2,3 C 4,8 km/h (1 Bft) 100,00 %
11.12.2019 18:24 23,4 C -2,3 C 41 % 79 % 1012,2 hPa 0,0 l/m 3,2 km/h (1 Bft) W 270 0,000 mm -5,4 C -2,3 C 4,8 km/h (1 Bft) 100,00 %
11.12.2019 18:23 23,4 C -2,3 C 41 % 79 % 1012,2 hPa 0,0 l/m 3,2 km/h (1 Bft) W-NW 292 0,000 mm -5,4 C -2,3 C 6,4 km/h (2 Bft) 100,00 %
11.12.2019 18:22 23,4 C -2,3 C 41 % 79 % 1012,2 hPa 0,0 l/m 3,2 km/h (1 Bft) W 270 0,000 mm -5,4 C -2,3 C 4,8 km/h (1 Bft) 100,00 %
11.12.2019 18:21 23,4 C -2,3 C 41 % 79 % 1012,3 hPa 0,0 l/m 3,2 km/h (1 Bft) W 270 0,000 mm -5,4 C -2,3 C 6,4 km/h (2 Bft) 95,65 %
11.12.2019 18:20 23,4 C -2,3 C 41 % 79 % 1012,3 hPa 0,0 l/m 3,2 km/h (1 Bft) W-NW 292 0,000 mm -5,4 C -2,3 C 4,8 km/h (1 Bft) 100,00 %
11.12.2019 18:19 23,5 C -2,2 C 41 % 79 % 1012,4 hPa 0,0 l/m 3,2 km/h (1 Bft) W-NW 292 0,000 mm -5,3 C -2,2 C 4,8 km/h (1 Bft) 100,00 %
11.12.2019 18:18 23,4 C -2,2 C 41 % 79 % 1012,3 hPa 0,0 l/m 3,2 km/h (1 Bft) W-NW 292 0,000 mm -5,3 C -2,2 C 4,8 km/h (1 Bft) 100,00 %
11.12.2019 18:17 23,5 C -2,2 C 41 % 79 % 1012,4 hPa 0,0 l/m 3,2 km/h (1 Bft) W-NW 292 0,000 mm -5,3 C -2,2 C 4,8 km/h (1 Bft) 100,00 %
11.12.2019 18:16 23,5 C -2,2 C 41 % 79 % 1012,4 hPa 0,0 l/m 3,2 km/h (1 Bft) W-NW 292 0,000 mm -5,3 C -2,2 C 3,2 km/h (1 Bft) 95,65 %
11.12.2019 18:15 23,5 C -2,2 C 41 % 79 % 1012,4 hPa 0,0 l/m 3,2 km/h (1 Bft) W-NW 292 0,000 mm -5,3 C -2,2 C 4,8 km/h (1 Bft) 100,00 %
11.12.2019 18:14 23,5 C -2,2 C 41 % 79 % 1012,4 hPa 0,0 l/m 3,2 km/h (1 Bft) W-NW 292 0,000 mm -5,3 C -2,2 C 4,8 km/h (1 Bft) 100,00 %
11.12.2019 18:13 23,4 C -2,2 C 41 % 79 % 1012,4 hPa 0,0 l/m 1,6 km/h (1 Bft) W-NW 292 0,000 mm -5,3 C -2,2 C 4,8 km/h (1 Bft) 95,65 %
11.12.2019 18:12 23,5 C -2,2 C 41 % 79 % 1012,5 hPa 0,0 l/m 3,2 km/h (1 Bft) W-NW 292 0,000 mm -5,3 C -2,2 C 4,8 km/h (1 Bft) 100,00 %
11.12.2019 18:11 23,5 C -2,2 C 41 % 79 % 1012,4 hPa 0,0 l/m 3,2 km/h (1 Bft) W-NW 292 0,000 mm -5,3 C -2,2 C 4,8 km/h (1 Bft) 95,65 %
11.12.2019 18:10 23,5 C -2,2 C 41 % 79 % 1012,3 hPa 0,0 l/m 1,6 km/h (1 Bft) W 270 0,000 mm -5,3 C -2,2 C 4,8 km/h (1 Bft) 100,00 %
11.12.2019 18:09 23,5 C -2,2 C 41 % 79 % 1012,4 hPa 0,0 l/m 3,2 km/h (1 Bft) W 270 0,000 mm -5,3 C -2,2 C 4,8 km/h (1 Bft) 100,00 %
11.12.2019 18:08 23,5 C -2,2 C 41 % 79 % 1012,4 hPa 0,0 l/m 1,6 km/h (1 Bft) W 270 0,000 mm -5,3 C -2,2 C 3,2 km/h (1 Bft) 95,65 %
11.12.2019 18:07 23,5 C -2,2 C 41 % 79 % 1012,3 hPa 0,0 l/m 3,2 km/h (1 Bft) W 270 0,000 mm -5,3 C -2,2 C 4,8 km/h (1 Bft) 100,00 %
11.12.2019 18:06 23,5 C -2,2 C 41 % 79 % 1012,4 hPa 0,0 l/m 3,2 km/h (1 Bft) W 270 0,000 mm -5,3 C -2,2 C 4,8 km/h (1 Bft) 100,00 %
11.12.2019 18:05 23,5 C -2,2 C 41 % 79 % 1012,4 hPa 0,0 l/m 3,2 km/h (1 Bft) W 270 0,000 mm -5,3 C -2,2 C 6,4 km/h (2 Bft) 100,00 %
11.12.2019 18:04 23,5 C -2,2 C 41 % 79 % 1012,4 hPa 0,0 l/m 4,8 km/h (1 Bft) W 270 0,000 mm -5,3 C -2,2 C 6,4 km/h (2 Bft) 95,65 %
11.12.2019 18:03 23,5 C -2,2 C 41 % 79 % 1012,3 hPa 0,0 l/m 3,2 km/h (1 Bft) W 270 0,000 mm -5,3 C -2,2 C 6,4 km/h (2 Bft) 95,65 %
11.12.2019 18:02 23,5 C -2,2 C 41 % 79 % 1012,5 hPa 0,0 l/m 3,2 km/h (1 Bft) W 270 0,000 mm -5,3 C -2,2 C 6,4 km/h (2 Bft) 100,00 %
11.12.2019 18:01 23,5 C -2,2 C 41 % 79 % 1012,4 hPa 0,0 l/m 3,2 km/h (1 Bft) W 270 0,000 mm -5,3 C -2,2 C 4,8 km/h (1 Bft) 100,00 %
11.12.2019 18:00 23,5 C -2,2 C 41 % 79 % 1012,5 hPa 0,0 l/m 3,2 km/h (1 Bft) W 270 0,000 mm -5,3 C -2,2 C 4,8 km/h (1 Bft) 100,00 %
11.12.2019 17:59 23,5 C -2,2 C 41 % 79 % 1012,4 hPa 0,0 l/m 1,6 km/h (1 Bft) W 270 0,000 mm -5,3 C -2,2 C 3,2 km/h (1 Bft) 100,00 %
11.12.2019 17:58 23,5 C -2,2 C 41 % 79 % 1012,4 hPa 0,0 l/m 1,6 km/h (1 Bft) W 270 0,000 mm -5,3 C -2,2 C 3,2 km/h (1 Bft) 100,00 %
11.12.2019 17:57 23,5 C -2,2 C 41 % 79 % 1012,4 hPa 0,0 l/m 3,2 km/h (1 Bft) W 270 0,000 mm -5,3 C -2,2 C 4,8 km/h (1 Bft) 100,00 %
11.12.2019 17:56 23,5 C -2,1 C 41 % 79 % 1012,5 hPa 0,0 l/m 3,2 km/h (1 Bft) W 270 0,000 mm -5,2 C -2,1 C 4,8 km/h (1 Bft) 95,65 %
11.12.2019 17:55 23,5 C -2,1 C 41 % 79 % 1012,4 hPa 0,0 l/m 3,2 km/h (1 Bft) W 270 0,000 mm -5,2 C -2,1 C 4,8 km/h (1 Bft) 100,00 %
11.12.2019 17:54 23,5 C -2,1 C 41 % 79 % 1012,4 hPa 0,0 l/m 1,6 km/h (1 Bft) W 270 0,000 mm -5,2 C -2,1 C 3,2 km/h (1 Bft) 100,00 %
11.12.2019 17:53 23,5 C -2,1 C 41 % 79 % 1012,5 hPa 0,0 l/m 1,6 km/h (1 Bft) W 270 0,000 mm -5,2 C -2,1 C 3,2 km/h (1 Bft) 100,00 %
11.12.2019 17:52 23,5 C -2,1 C 41 % 79 % 1012,5 hPa 0,0 l/m 1,6 km/h (1 Bft) W 270 0,000 mm -5,2 C -2,1 C 3,2 km/h (1 Bft) 100,00 %
11.12.2019 17:51 23,5 C -2,1 C 41 % 79 % 1012,5 hPa 0,0 l/m 1,6 km/h (1 Bft) W 270 0,000 mm -5,2 C -2,1 C 3,2 km/h (1 Bft) 100,00 %
11.12.2019 17:50 23,5 C -2,0 C 41 % 79 % 1012,5 hPa 0,0 l/m 1,6 km/h (1 Bft) W 270 0,000 mm -5,1 C -2,0 C 3,2 km/h (1 Bft) 100,00 %
11.12.2019 17:49 23,5 C -2,0 C 41 % 79 % 1012,5 hPa 0,0 l/m 3,2 km/h (1 Bft) W 270 0,000 mm -5,1 C -2,0 C 4,8 km/h (1 Bft) 100,00 %
11.12.2019 17:48 23,6 C -2,0 C 41 % 79 % 1012,4 hPa 0,0 l/m 3,2 km/h (1 Bft) W 270 0,000 mm -5,1 C -2,0 C 4,8 km/h (1 Bft) 100,00 %
11.12.2019 17:47 23,5 C -2,1 C 40 % 79 % 1012,5 hPa 0,0 l/m 3,2 km/h (1 Bft) W 270 0,000 mm -5,2 C -2,1 C 4,8 km/h (1 Bft) 95,65 %
11.12.2019 17:46 23,6 C -2,1 C 40 % 79 % 1012,5 hPa 0,0 l/m 3,2 km/h (1 Bft) W 270 0,000 mm -5,2 C -2,1 C 4,8 km/h (1 Bft) 100,00 %
11.12.2019 17:45 23,6 C -2,1 C 40 % 79 % 1012,5 hPa 0,0 l/m 3,2 km/h (1 Bft) W 270 0,000 mm -5,2 C -2,1 C 4,8 km/h (1 Bft) 95,65 %
11.12.2019 17:44 23,5 C -2,1 C 40 % 79 % 1012,5 hPa 0,0 l/m 3,2 km/h (1 Bft) W 270 0,000 mm -5,2 C -2,1 C 4,8 km/h (1 Bft) 95,65 %
11.12.2019 17:43 23,5 C -2,1 C 40 % 79 % 1012,6 hPa 0,0 l/m 3,2 km/h (1 Bft) W 270 0,000 mm -5,2 C -2,1 C 4,8 km/h (1 Bft) 100,00 %
11.12.2019 17:42 23,5 C -2,2 C 40 % 79 % 1012,5 hPa 0,0 l/m 3,2 km/h (1 Bft) N-NW 337 0,000 mm -5,3 C -2,2 C 4,8 km/h (1 Bft) 95,65 %
11.12.2019 17:41 23,5 C -2,2 C 40 % 79 % 1012,6 hPa 0,0 l/m 1,6 km/h (1 Bft) N-NW 337 0,000 mm -5,3 C -2,2 C 3,2 km/h (1 Bft) 100,00 %
11.12.2019 17:40 23,6 C -2,2 C 40 % 79 % 1012,6 hPa 0,0 l/m 1,6 km/h (1 Bft) N-NW 337 0,000 mm -5,3 C -2,2 C 3,2 km/h (1 Bft) 95,65 %
11.12.2019 17:39 23,6 C -2,2 C 40 % 79 % 1012,6 hPa 0,0 l/m 1,6 km/h (1 Bft) N-NW 337 0,000 mm -5,3 C -2,2 C 3,2 km/h (1 Bft) 91,30 %
11.12.2019 17:38 23,5 C -2,2 C 40 % 78 % 1012,6 hPa 0,0 l/m 1,6 km/h (1 Bft) N-NW 337 0,000 mm -5,5 C -2,2 C 3,2 km/h (1 Bft) 100,00 %
11.12.2019 17:37 23,5 C -2,1 C 40 % 79 % 1012,6 hPa 0,0 l/m 1,6 km/h (1 Bft) N-NW 337 0,000 mm -5,2 C -2,1 C 3,2 km/h (1 Bft) 100,00 %
11.12.2019 17:36 23,5 C -2,1 C 40 % 79 % 1012,6 hPa 0,0 l/m 1,6 km/h (1 Bft) N-NW 337 0,000 mm -5,2 C -2,1 C 3,2 km/h (1 Bft) 100,00 %
11.12.2019 17:35 23,6 C -2,1 C 40 % 79 % 1012,6 hPa 0,0 l/m 1,6 km/h (1 Bft) N-NW 337 0,000 mm -5,2 C -2,1 C 3,2 km/h (1 Bft) 95,65 %
11.12.2019 17:34 23,6 C -2,0 C 40 % 79 % 1012,7 hPa 0,0 l/m 1,6 km/h (1 Bft) N-NW 337 0,000 mm -5,1 C -2,0 C 3,2 km/h (1 Bft) 100,00 %
11.12.2019 17:33 23,6 C -2,1 C 40 % 79 % 1012,6 hPa 0,0 l/m 1,6 km/h (1 Bft) N-NW 337 0,000 mm -5,2 C -2,1 C 3,2 km/h (1 Bft) 100,00 %
11.12.2019 17:32 23,6 C -2,1 C 40 % 79 % 1012,6 hPa 0,0 l/m 0,0 km/h (0 Bft) N 0 0,000 mm -5,2 C -2,1 C 0,0 km/h (0 Bft) 91,30 %
11.12.2019 17:31 23,6 C -2,2 C 40 % 79 % 1012,6 hPa 0,0 l/m 0,0 km/h (0 Bft) N 0 0,000 mm -5,3 C -2,2 C 0,0 km/h (0 Bft) 100,00 %
11.12.2019 17:30 23,6 C -2,2 C 40 % 79 % 1012,6 hPa 0,0 l/m 0,0 km/h (0 Bft) N 0 0,000 mm -5,3 C -2,2 C 0,0 km/h (0 Bft) 100,00 %
11.12.2019 17:29 23,6 C -2,2 C 40 % 79 % 1012,6 hPa 0,0 l/m 0,0 km/h (0 Bft) N 0 0,000 mm -5,3 C -2,2 C 0,0 km/h (0 Bft) 100,00 %
11.12.2019 17:28 23,6 C -2,3 C 40 % 79 % 1012,7 hPa 0,0 l/m 0,0 km/h (0 Bft) N 0 0,000 mm -5,4 C -2,3 C 0,0 km/h (0 Bft) 95,65 %
11.12.2019 17:27 23,6 C -2,3 C 40 % 79 % 1012,7 hPa 0,0 l/m 0,0 km/h (0 Bft) N 0 0,000 mm -5,4 C -2,3 C 0,0 km/h (0 Bft) 100,00 %
11.12.2019 17:26 23,6 C -2,3 C 40 % 79 % 1012,6 hPa 0,0 l/m 0,0 km/h (0 Bft) N 0 0,000 mm -5,4 C -2,3 C 0,0 km/h (0 Bft) 100,00 %
11.12.2019 17:25 23,6 C -2,3 C 40 % 79 % 1012,7 hPa 0,0 l/m 0,0 km/h (0 Bft) N 0 0,000 mm -5,4 C -2,3 C 0,0 km/h (0 Bft) 100,00 %
11.12.2019 17:24 23,6 C -2,3 C 40 % 79 % 1012,7 hPa 0,0 l/m 0,0 km/h (0 Bft) N 0 0,000 mm -5,4 C -2,3 C 0,0 km/h (0 Bft) 100,00 %
11.12.2019 17:23 23,6 C -2,3 C 40 % 79 % 1012,6 hPa 0,0 l/m 0,0 km/h (0 Bft) N 0 0,000 mm -5,4 C -2,3 C 0,0 km/h (0 Bft) 100,00 %
11.12.2019 17:22 23,6 C -2,3 C 40 % 79 % 1012,7 hPa 0,0 l/m 0,0 km/h (0 Bft) N 0 0,000 mm -5,4 C -2,3 C 0,0 km/h (0 Bft) 95,65 %
11.12.2019 17:21 23,6 C -2,3 C 40 % 79 % 1012,6 hPa 0,0 l/m 0,0 km/h (0 Bft) N 0 0,000 mm -5,4 C -2,3 C 0,0 km/h (0 Bft) 100,00 %
11.12.2019 17:20 23,6 C -2,3 C 40 % 79 % 1012,7 hPa 0,0 l/m 0,0 km/h (0 Bft) N 0 0,000 mm -5,4 C -2,3 C 0,0 km/h (0 Bft) 95,65 %
11.12.2019 17:19 23,6 C -2,3 C 40 % 79 % 1012,7 hPa 0,0 l/m 0,0 km/h (0 Bft) N 0 0,000 mm -5,4 C -2,3 C 0,0 km/h (0 Bft) 100,00 %
11.12.2019 17:18 23,6 C -2,3 C 40 % 79 % 1012,7 hPa 0,0 l/m 0,0 km/h (0 Bft) N 0 0,000 mm -5,4 C -2,3 C 0,0 km/h (0 Bft) 100,00 %
11.12.2019 17:17 23,6 C -2,2 C 40 % 79 % 1012,7 hPa 0,0 l/m 0,0 km/h (0 Bft) N 0 0,000 mm -5,3 C -2,2 C 0,0 km/h (0 Bft) 95,65 %
11.12.2019 17:16 23,6 C -2,2 C 40 % 79 % 1012,7 hPa 0,0 l/m 0,0 km/h (0 Bft) N 0 0,000 mm -5,3 C -2,2 C 0,0 km/h (0 Bft) 95,65 %
11.12.2019 17:15 23,6 C -2,1 C 40 % 79 % 1012,8 hPa 0,0 l/m 0,0 km/h (0 Bft) N 0 0,000 mm -5,2 C -2,1 C 0,0 km/h (0 Bft) 100,00 %
11.12.2019 17:14 23,6 C -2,1 C 40 % 79 % 1012,8 hPa 0,0 l/m 0,0 km/h (0 Bft) N 0 0,000 mm -5,2 C -2,1 C 0,0 km/h (0 Bft) 100,00 %
11.12.2019 17:13 23,6 C -2,1 C 40 % 79 % 1012,8 hPa 0,0 l/m 0,0 km/h (0 Bft) N 0 0,000 mm -5,2 C -2,1 C 0,0 km/h (0 Bft) 100,00 %
11.12.2019 17:12 23,6 C -2,1 C 40 % 79 % 1012,8 hPa 0,0 l/m 0,0 km/h (0 Bft) N 0 0,000 mm -5,2 C -2,1 C 0,0 km/h (0 Bft) 100,00 %
11.12.2019 17:11 23,6 C -2,1 C 40 % 79 % 1012,8 hPa 0,0 l/m 0,0 km/h (0 Bft) N 0 0,000 mm -5,2 C -2,1 C 0,0 km/h (0 Bft) 100,00 %
11.12.2019 17:10 23,6 C -2,1 C 40 % 79 % 1012,8 hPa 0,0 l/m 0,0 km/h (0 Bft) N 0 0,000 mm -5,2 C -2,1 C 0,0 km/h (0 Bft) 95,65 %
11.12.2019 17:09 23,6 C -2,1 C 40 % 79 % 1012,8 hPa 0,0 l/m 0,0 km/h (0 Bft) N 0 0,000 mm -5,2 C -2,1 C 0,0 km/h (0 Bft) 100,00 %
11.12.2019 17:08 23,6 C -2,1 C 40 % 79 % 1012,8 hPa 0,0 l/m 0,0 km/h (0 Bft) N 0 0,000 mm -5,2 C -2,1 C 0,0 km/h (0 Bft) 100,00 %
11.12.2019 17:07 23,6 C -2,1 C 40 % 79 % 1012,8 hPa 0,0 l/m 0,0 km/h (0 Bft) N 0 0,000 mm -5,2 C -2,1 C 0,0 km/h (0 Bft) 100,00 %
11.12.2019 17:06 23,6 C -2,1 C 40 % 79 % 1012,8 hPa 0,0 l/m 0,0 km/h (0 Bft) N 0 0,000 mm -5,2 C -2,1 C 0,0 km/h (0 Bft) 100,00 %
11.12.2019 17:05 23,6 C -2,1 C 40 % 79 % 1012,8 hPa 0,0 l/m 0,0 km/h (0 Bft) N 0 0,000 mm -5,2 C -2,1 C 0,0 km/h (0 Bft) 100,00 %
11.12.2019 17:04 23,6 C -2,0 C 40 % 79 % 1012,8 hPa 0,0 l/m 0,0 km/h (0 Bft) N 0 0,000 mm -5,1 C -2,0 C 0,0 km/h (0 Bft) 100,00 %
11.12.2019 17:03 23,6 C -2,0 C 40 % 79 % 1012,9 hPa 0,0 l/m 0,0 km/h (0 Bft) N 0 0,000 mm -5,1 C -2,0 C 0,0 km/h (0 Bft) 100,00 %
11.12.2019 17:02 23,6 C -1,9 C 40 % 78 % 1012,9 hPa 0,0 l/m 0,0 km/h (0 Bft) N 0 0,000 mm -5,2 C -1,9 C 0,0 km/h (0 Bft) 100,00 %
11.12.2019 17:01 23,6 C -1,9 C 40 % 78 % 1012,9 hPa 0,0 l/m 0,0 km/h (0 Bft) N 0 0,000 mm -5,2 C -1,9 C 0,0 km/h (0 Bft) 100,00 %
11.12.2019 17:00 23,6 C -1,8 C 40 % 78 % 1012,9 hPa 0,0 l/m 0,0 km/h (0 Bft) N 0 0,000 mm -5,1 C -1,8 C 0,0 km/h (0 Bft) 100,00 %
11.12.2019 16:59 23,6 C -1,8 C 40 % 78 % 1012,9 hPa 0,0 l/m 0,0 km/h (0 Bft) N 0 0,000 mm -5,1 C -1,8 C 0,0 km/h (0 Bft) 95,65 %
11.12.2019 16:58 23,6 C -1,7 C 40 % 78 % 1012,9 hPa 0,0 l/m 0,0 km/h (0 Bft) N 0 0,000 mm -5,0 C -1,7 C 0,0 km/h (0 Bft) 100,00 %
11.12.2019 16:57 23,6 C -1,7 C 40 % 78 % 1013,0 hPa 0,0 l/m 0,0 km/h (0 Bft) N 0 0,000 mm -5,0 C -1,7 C 0,0 km/h (0 Bft) 100,00 %
11.12.2019 16:56 23,6 C -1,6 C 40 % 78 % 1012,9 hPa 0,0 l/m 0,0 km/h (0 Bft) N 0 0,000 mm -4,9 C -1,6 C 0,0 km/h (0 Bft) 95,65 %
11.12.2019 16:55 23,6 C -1,6 C 40 % 78 % 1013,0 hPa 0,0 l/m 0,0 km/h (0 Bft) N 0 0,000 mm -4,9 C -1,6 C 0,0 km/h (0 Bft) 100,00 %
11.12.2019 16:54 23,6 C -1,6 C 40 % 78 % 1012,9 hPa 0,0 l/m 0,0 km/h (0 Bft) N 0 0,000 mm -4,9 C -1,6 C 0,0 km/h (0 Bft) 91,30 %
11.12.2019 16:53 23,6 C -1,6 C 40 % 78 % 1012,9 hPa 0,0 l/m 0,0 km/h (0 Bft) N 0 0,000 mm -4,9 C -1,6 C 0,0 km/h (0 Bft) 100,00 %
11.12.2019 16:52 23,6 C -1,6 C 40 % 78 % 1013,0 hPa 0,0 l/m 0,0 km/h (0 Bft) N 0 0,000 mm -4,9 C -1,6 C 0,0 km/h (0 Bft) 100,00 %
11.12.2019 16:51 23,6 C -1,6 C 40 % 78 % 1013,0 hPa 0,0 l/m 0,0 km/h (0 Bft) N 0 0,000 mm -4,9 C -1,6 C 0,0 km/h (0 Bft) 95,65 %
11.12.2019 16:50 23,6 C -1,6 C 40 % 78 % 1012,9 hPa 0,0 l/m 0,0 km/h (0 Bft) N 0 0,000 mm -4,9 C -1,6 C 0,0 km/h (0 Bft) 95,65 %
11.12.2019 16:49 23,7 C -1,6 C 40 % 78 % 1013,0 hPa 0,0 l/m 0,0 km/h (0 Bft) N 0 0,000 mm -4,9 C -1,6 C 0,0 km/h (0 Bft) 100,00 %
11.12.2019 16:48 23,7 C -1,6 C 40 % 78 % 1012,9 hPa 0,0 l/m 0,0 km/h (0 Bft) N 0 0,000 mm -4,9 C -1,6 C 0,0 km/h (0 Bft) 100,00 %
11.12.2019 16:47 23,7 C -1,6 C 40 % 78 % 1012,9 hPa 0,0 l/m 0,0 km/h (0 Bft) N 0 0,000 mm -4,9 C -1,6 C 0,0 km/h (0 Bft) 100,00 %
11.12.2019 16:46 23,7 C -1,6 C 40 % 78 % 1013,0 hPa 0,0 l/m 0,0 km/h (0 Bft) N 0 0,000 mm -4,9 C -1,6 C 0,0 km/h (0 Bft) 100,00 %
11.12.2019 16:45 23,6 C -1,5 C 40 % 78 % 1013,0 hPa 0,0 l/m 0,0 km/h (0 Bft) N 0 0,000 mm -4,8 C -1,5 C 0,0 km/h (0 Bft) 100,00 %
11.12.2019 16:44 23,7 C -1,6 C 40 % 78 % 1013,0 hPa 0,0 l/m 0,0 km/h (0 Bft) N 0 0,000 mm -4,9 C -1,6 C 0,0 km/h (0 Bft) 100,00 %
11.12.2019 16:43 23,7 C -1,6 C 40 % 78 % 1013,0 hPa 0,0 l/m 0,0 km/h (0 Bft) N 0 0,000 mm -4,9 C -1,6 C 0,0 km/h (0 Bft) 100,00 %
11.12.2019 16:42 23,7 C -1,6 C 40 % 77 % 1013,0 hPa 0,0 l/m 0,0 km/h (0 Bft) N 0 0,000 mm -5,1 C -1,6 C 0,0 km/h (0 Bft) 95,65 %
11.12.2019 16:41 23,6 C -1,5 C 40 % 77 % 1013,0 hPa 0,0 l/m 0,0 km/h (0 Bft) N 0 0,000 mm -5,0 C -1,5 C 0,0 km/h (0 Bft) 100,00 %
11.12.2019 16:40 23,7 C -1,4 C 40 % 77 % 1013,1 hPa 0,0 l/m 0,0 km/h (0 Bft) N 0 0,000 mm -4,9 C -1,4 C 0,0 km/h (0 Bft) 100,00 %
11.12.2019 16:39 23,7 C -1,4 C 40 % 76 % 1013,0 hPa 0,0 l/m 0,0 km/h (0 Bft) N 0 0,000 mm -5,1 C -1,4 C 0,0 km/h (0 Bft) 91,30 %
11.12.2019 16:38 23,7 C -1,3 C 40 % 76 % 1013,0 hPa 0,0 l/m 0,0 km/h (0 Bft) N 0 0,000 mm -5,0 C -1,3 C 0,0 km/h (0 Bft) 100,00 %
11.12.2019 16:37 23,7 C -1,2 C 40 % 76 % 1013,0 hPa 0,0 l/m 0,0 km/h (0 Bft) N 0 0,000 mm -4,9 C -1,2 C 0,0 km/h (0 Bft) 95,65 %
11.12.2019 16:36 23,7 C -1,1 C 40 % 76 % 1012,9 hPa 0,0 l/m 0,0 km/h (0 Bft) N 0 0,000 mm -4,8 C -1,1 C 0,0 km/h (0 Bft) 100,00 %
11.12.2019 16:35 23,7 C -1,0 C 40 % 76 % 1013,0 hPa 0,0 l/m 0,0 km/h (0 Bft) N 0 0,000 mm -4,7 C -1,0 C 0,0 km/h (0 Bft) 95,65 %
11.12.2019 16:34 23,7 C -0,9 C 40 % 76 % 1013,1 hPa 0,0 l/m 0,0 km/h (0 Bft) N 0 0,000 mm -4,6 C -0,9 C 0,0 km/h (0 Bft) 100,00 %
11.12.2019 16:33 23,7 C -0,9 C 40 % 76 % 1013,0 hPa 0,0 l/m 0,0 km/h (0 Bft) N 0 0,000 mm -4,6 C -0,9 C 0,0 km/h (0 Bft) 100,00 %
11.12.2019 16:32 23,7 C -0,8 C 39 % 76 % 1013,0 hPa 0,0 l/m 0,0 km/h (0 Bft) N 0 0,000 mm -4,5 C -0,8 C 0,0 km/h (0 Bft) 95,65 %
11.12.2019 16:31 23,7 C -0,8 C 39 % 76 % 1013,1 hPa 0,0 l/m 0,0 km/h (0 Bft) N 0 0,000 mm -4,5 C -0,8 C 0,0 km/h (0 Bft) 100,00 %
11.12.2019 16:30 23,7 C -0,8 C 39 % 76 % 1013,1 hPa 0,0 l/m 0,0 km/h (0 Bft) N 0 0,000 mm -4,5 C -0,8 C 0,0 km/h (0 Bft) 100,00 %
11.12.2019 16:29 23,7 C -0,8 C 39 % 76 % 1013,0 hPa 0,0 l/m 0,0 km/h (0 Bft) N 0 0,000 mm -4,5 C -0,8 C 0,0 km/h (0 Bft) 100,00 %
11.12.2019 16:28 23,7 C -0,8 C 39 % 76 % 1013,0 hPa 0,0 l/m 0,0 km/h (0 Bft) N 0 0,000 mm -4,5 C -0,8 C 0,0 km/h (0 Bft) 100,00 %
11.12.2019 16:27 23,7 C -0,8 C 39 % 76 % 1013,1 hPa 0,0 l/m 0,0 km/h (0 Bft) N 0 0,000 mm -4,5 C -0,8 C 0,0 km/h (0 Bft) 100,00 %
11.12.2019 16:26 23,7 C -0,9 C 39 % 76 % 1013,0 hPa 0,0 l/m 0,0 km/h (0 Bft) N 0 0,000 mm -4,6 C -0,9 C 0,0 km/h (0 Bft) 100,00 %
11.12.2019 16:25 23,7 C -0,9 C 39 % 76 % 1013,1 hPa 0,0 l/m 0,0 km/h (0 Bft) N 0 0,000 mm -4,6 C -0,9 C 0,0 km/h (0 Bft) 95,65 %
11.12.2019 16:24 23,7 C -0,9 C 39 % 76 % 1013,1 hPa 0,0 l/m 0,0 km/h (0 Bft) N 0 0,000 mm -4,6 C -0,9 C 0,0 km/h (0 Bft) 100,00 %
11.12.2019 16:23 23,7 C -0,9 C 39 % 76 % 1013,0 hPa 0,0 l/m 0,0 km/h (0 Bft) N 0 0,000 mm -4,6 C -0,9 C 0,0 km/h (0 Bft) 100,00 %
11.12.2019 16:22 23,7 C -0,9 C 39 % 76 % 1013,0 hPa 0,0 l/m 0,0 km/h (0 Bft) N 0 0,000 mm -4,6 C -0,9 C 0,0 km/h (0 Bft) 95,65 %
11.12.2019 16:21 23,7 C -0,9 C 39 % 77 % 1013,1 hPa 0,0 l/m 0,0 km/h (0 Bft) N 0 0,000 mm -4,4 C -0,9 C 0,0 km/h (0 Bft) 100,00 %
11.12.2019 16:20 23,7 C -0,9 C 39 % 77 % 1013,1 hPa 0,0 l/m 0,0 km/h (0 Bft) N 0 0,000 mm -4,4 C -0,9 C 0,0 km/h (0 Bft) 100,00 %
11.12.2019 16:19 23,7 C -1,0 C 39 % 77 % 1013,1 hPa 0,0 l/m 0,0 km/h (0 Bft) N 0 0,000 mm -4,5 C -1,0 C 0,0 km/h (0 Bft) 100,00 %
11.12.2019 16:18 23,7 C -1,0 C 39 % 77 % 1013,2 hPa 0,0 l/m 0,0 km/h (0 Bft) N 0 0,000 mm -4,5 C -1,0 C 0,0 km/h (0 Bft) 95,65 %
11.12.2019 16:17 23,7 C -1,1 C 39 % 77 % 1013,2 hPa 0,0 l/m 0,0 km/h (0 Bft) N 0 0,000 mm -4,6 C -1,1 C 0,0 km/h (0 Bft) 100,00 %
11.12.2019 16:16 23,7 C -1,2 C 39 % 77 % 1013,1 hPa 0,0 l/m 0,0 km/h (0 Bft) N 0 0,000 mm -4,7 C -1,2 C 0,0 km/h (0 Bft) 100,00 %
11.12.2019 16:15 23,7 C -1,2 C 39 % 77 % 1013,1 hPa 0,0 l/m 0,0 km/h (0 Bft) N 0 0,000 mm -4,7 C -1,2 C 0,0 km/h (0 Bft) 100,00 %
11.12.2019 16:14 23,7 C -1,2 C 39 % 77 % 1013,1 hPa 0,0 l/m 0,0 km/h (0 Bft) N 0 0,000 mm -4,7 C -1,2 C 0,0 km/h (0 Bft) 100,00 %
11.12.2019 16:13 23,7 C -1,3 C 39 % 77 % 1013,1 hPa 0,0 l/m 0,0 km/h (0 Bft) N 0 0,000 mm -4,8 C -1,3 C 0,0 km/h (0 Bft) 95,65 %
11.12.2019 16:12 23,7 C -1,3 C 39 % 77 % 1013,1 hPa 0,0 l/m 0,0 km/h (0 Bft) N 0 0,000 mm -4,8 C -1,3 C 0,0 km/h (0 Bft) 100,00 %
11.12.2019 16:11 23,6 C -1,2 C 39 % 77 % 1013,2 hPa 0,0 l/m 0,0 km/h (0 Bft) N 0 0,000 mm -4,7 C -1,2 C 0,0 km/h (0 Bft) 100,00 %
11.12.2019 16:10 23,7 C -1,2 C 39 % 76 % 1013,2 hPa 0,0 l/m 0,0 km/h (0 Bft) N 0 0,000 mm -4,9 C -1,2 C 0,0 km/h (0 Bft) 100,00 %
11.12.2019 16:09 23,7 C -1,1 C 39 % 76 % 1013,1 hPa 0,0 l/m 0,0 km/h (0 Bft) N 0 0,000 mm -4,8 C -1,1 C 0,0 km/h (0 Bft) 100,00 %
11.12.2019 16:08 23,7 C -1,1 C 39 % 76 % 1013,2 hPa 0,0 l/m 0,0 km/h (0 Bft) N 0 0,000 mm -4,8 C -1,1 C 0,0 km/h (0 Bft) 100,00 %
11.12.2019 16:07 23,7 C -1,1 C 39 % 76 % 1013,2 hPa 0,0 l/m 0,0 km/h (0 Bft) N 0 0,000 mm -4,8 C -1,1 C 0,0 km/h (0 Bft) 100,00 %
11.12.2019 16:06 23,7 C -1,0 C 39 % 76 % 1013,2 hPa 0,0 l/m 0,0 km/h (0 Bft) N 0 0,000 mm -4,7 C -1,0 C 0,0 km/h (0 Bft) 100,00 %
11.12.2019 16:05 23,7 C -0,9 C 39 % 76 % 1013,2 hPa 0,0 l/m 0,0 km/h (0 Bft) N 0 0,000 mm -4,6 C -0,9 C 0,0 km/h (0 Bft) 100,00 %
11.12.2019 16:04 23,7 C -0,8 C 39 % 76 % 1013,2 hPa 0,0 l/m 0,0 km/h (0 Bft) N 0 0,000 mm -4,5 C -0,8 C 0,0 km/h (0 Bft) 100,00 %
11.12.2019 16:03 23,7 C -0,8 C 39 % 76 % 1013,2 hPa 0,0 l/m 0,0 km/h (0 Bft) N 0 0,000 mm -4,5 C -0,8 C 0,0 km/h (0 Bft) 95,65 %
11.12.2019 16:02 23,7 C -0,7 C 39 % 76 % 1013,2 hPa 0,0 l/m 0,0 km/h (0 Bft) N 0 0,000 mm -4,4 C -0,7 C 0,0 km/h (0 Bft) 100,00 %
11.12.2019 16:01 23,7 C -0,7 C 39 % 76 % 1013,2 hPa 0,0 l/m 0,0 km/h (0 Bft) N 0 0,000 mm -4,4 C -0,7 C 0,0 km/h (0 Bft) 95,65 %
11.12.2019 16:00 23,7 C -0,7 C 39 % 76 % 1013,2 hPa 0,0 l/m 0,0 km/h (0 Bft) N 0 0,000 mm -4,4 C -0,7 C 0,0 km/h (0 Bft) 95,65 %
11.12.2019 15:59 23,7 C -0,7 C 39 % 76 % 1013,2 hPa 0,0 l/m 0,0 km/h (0 Bft) N 0 0,000 mm -4,4 C -0,7 C 0,0 km/h (0 Bft) 100,00 %
11.12.2019 15:58 23,7 C -0,7 C 39 % 76 % 1013,2 hPa 0,0 l/m 0,0 km/h (0 Bft) N 0 0,000 mm -4,4 C -0,7 C 0,0 km/h (0 Bft) 100,00 %
11.12.2019 15:57 23,7 C -0,7 C 39 % 76 % 1013,2 hPa 0,0 l/m 0,0 km/h (0 Bft) N 0 0,000 mm -4,4 C -0,7 C 0,0 km/h (0 Bft) 100,00 %
11.12.2019 15:56 23,7 C -0,7 C 39 % 76 % 1013,3 hPa 0,0 l/m 0,0 km/h (0 Bft) N 0 0,000 mm -4,4 C -0,7 C 0,0 km/h (0 Bft) 100,00 %
11.12.2019 15:55 23,7 C -0,7 C 39 % 76 % 1013,3 hPa 0,0 l/m 0,0 km/h (0 Bft) N 0 0,000 mm -4,4 C -0,7 C 0,0 km/h (0 Bft) 100,00 %
11.12.2019 15:54 23,7 C -0,7 C 39 % 76 % 1013,3 hPa 0,0 l/m 0,0 km/h (0 Bft) N 0 0,000 mm -4,4 C -0,7 C 0,0 km/h (0 Bft) 95,65 %
11.12.2019 15:53 23,7 C -0,6 C 39 % 76 % 1013,3 hPa 0,0 l/m 0,0 km/h (0 Bft) N 0 0,000 mm -4,3 C -0,6 C 0,0 km/h (0 Bft) 100,00 %
11.12.2019 15:52 23,7 C -0,7 C 39 % 76 % 1013,3 hPa 0,0 l/m 0,0 km/h (0 Bft) N 0 0,000 mm -4,4 C -0,7 C 0,0 km/h (0 Bft) 100,00 %
11.12.2019 15:51 23,7 C -0,7 C 39 % 76 % 1013,3 hPa 0,0 l/m 0,0 km/h (0 Bft) N 0 0,000 mm -4,4 C -0,7 C 0,0 km/h (0 Bft) 100,00 %
11.12.2019 15:50 23,7 C -0,7 C 39 % 76 % 1013,3 hPa 0,0 l/m 0,0 km/h (0 Bft) N 0 0,000 mm -4,4 C -0,7 C 0,0 km/h (0 Bft) 100,00 %
11.12.2019 15:49 23,6 C -0,7 C 39 % 76 % 1013,3 hPa 0,0 l/m 0,0 km/h (0 Bft) N 0 0,000 mm -4,4 C -0,7 C 0,0 km/h (0 Bft) 100,00 %
11.12.2019 15:48 23,7 C -0,8 C 39 % 76 % 1013,3 hPa 0,0 l/m 0,0 km/h (0 Bft) N 0 0,000 mm -4,5 C -0,8 C 0,0 km/h (0 Bft) 100,00 %
11.12.2019 15:47 23,7 C -0,8 C 39 % 76 % 1013,3 hPa 0,0 l/m 0,0 km/h (0 Bft) N 0 0,000 mm -4,5 C -0,8 C 0,0 km/h (0 Bft) 100,00 %
11.12.2019 15:46 23,6 C -0,8 C 39 % 76 % 1013,3 hPa 0,0 l/m 0,0 km/h (0 Bft) N 0 0,000 mm -4,5 C -0,8 C 0,0 km/h (0 Bft) 100,00 %
11.12.2019 15:45 23,6 C -0,8 C 39 % 76 % 1013,4 hPa 0,0 l/m 0,0 km/h (0 Bft) N 0 0,000 mm -4,5 C -0,8 C 0,0 km/h (0 Bft) 100,00 %
11.12.2019 15:44 23,6 C -0,8 C 39 % 76 % 1013,4 hPa 0,0 l/m 0,0 km/h (0 Bft) N 0 0,000 mm -4,5 C -0,8 C 0,0 km/h (0 Bft) 100,00 %
11.12.2019 15:43 23,6 C -0,8 C 39 % 76 % 1013,4 hPa 0,0 l/m 0,0 km/h (0 Bft) N-NO 22 0,000 mm -4,5 C -0,8 C 1,6 km/h (1 Bft) 100,00 %
11.12.2019 15:42 23,7 C -0,7 C 39 % 76 % 1013,5 hPa 0,0 l/m 1,6 km/h (1 Bft) N-NO 22 0,000 mm -4,4 C -0,7 C 1,6 km/h (1 Bft) 95,65 %
11.12.2019 15:41 23,6 C -0,7 C 39 % 76 % 1013,5 hPa 0,0 l/m 0,0 km/h (0 Bft) N-NO 22 0,000 mm -4,4 C -0,7 C 1,6 km/h (1 Bft) 95,65 %
11.12.2019 15:40 23,7 C -0,7 C 39 % 76 % 1013,5 hPa 0,0 l/m 0,0 km/h (0 Bft) N 0 0,000 mm -4,4 C -0,7 C 0,0 km/h (0 Bft) 100,00 %
11.12.2019 15:39 23,7 C -0,6 C 39 % 76 % 1013,5 hPa 0,0 l/m 0,0 km/h (0 Bft) N 0 0,000 mm -4,3 C -0,6 C 0,0 km/h (0 Bft) 100,00 %
11.12.2019 15:38 23,7 C -0,6 C 39 % 75 % 1013,5 hPa 0,0 l/m 0,0 km/h (0 Bft) N 0 0,000 mm -4,5 C -0,6 C 0,0 km/h (0 Bft) 100,00 %
11.12.2019 15:37 23,7 C -0,6 C 39 % 75 % 1013,5 hPa 0,0 l/m 0,0 km/h (0 Bft) N 0 0,000 mm -4,5 C -0,6 C 0,0 km/h (0 Bft) 95,65 %
11.12.2019 15:36 23,7 C -0,6 C 39 % 75 % 1013,5 hPa 0,0 l/m 0,0 km/h (0 Bft) N 0 0,000 mm -4,5 C -0,6 C 0,0 km/h (0 Bft) 100,00 %
11.12.2019 15:35 23,7 C -0,5 C 39 % 75 % 1013,6 hPa 0,0 l/m 0,0 km/h (0 Bft) N-NO 22 0,000 mm -4,4 C -0,5 C 1,6 km/h (1 Bft) 100,00 %
11.12.2019 15:34 23,7 C -0,4 C 39 % 75 % 1013,5 hPa 0,0 l/m 1,6 km/h (1 Bft) N-NO 22 0,000 mm -4,3 C -0,4 C 1,6 km/h (1 Bft) 100,00 %
11.12.2019 15:33 23,7 C -0,4 C 39 % 75 % 1013,5 hPa 0,0 l/m 0,0 km/h (0 Bft) N-NO 22 0,000 mm -4,3 C -0,4 C 1,6 km/h (1 Bft) 100,00 %
11.12.2019 15:32 23,7 C -0,4 C 39 % 75 % 1013,6 hPa 0,0 l/m 1,6 km/h (1 Bft) N-NO 22 0,000 mm -4,3 C -0,4 C 3,2 km/h (1 Bft) 100,00 %
11.12.2019 15:31 23,7 C -0,4 C 39 % 75 % 1013,6 hPa 0,0 l/m 1,6 km/h (1 Bft) N-NO 22 0,000 mm -4,3 C -0,4 C 3,2 km/h (1 Bft) 95,65 %
11.12.2019 15:30 23,8 C -0,4 C 39 % 75 % 1013,6 hPa 0,0 l/m 1,6 km/h (1 Bft) N-NO 22 0,000 mm -4,3 C -0,4 C 3,2 km/h (1 Bft) 100,00 %
11.12.2019 15:29 23,7 C -0,4 C 39 % 75 % 1013,6 hPa 0,0 l/m 0,0 km/h (0 Bft) N-NO 22 0,000 mm -4,3 C -0,4 C 1,6 km/h (1 Bft) 100,00 %
11.12.2019 15:28 23,7 C -0,4 C 39 % 75 % 1013,6 hPa 0,0 l/m 1,6 km/h (1 Bft) N-NO 22 0,000 mm -4,3 C -0,4 C 3,2 km/h (1 Bft) 100,00 %
11.12.2019 15:27 23,8 C -0,3 C 39 % 75 % 1013,7 hPa 0,0 l/m 1,6 km/h (1 Bft) N-NO 22 0,000 mm -4,2 C -0,3 C 1,6 km/h (1 Bft) 95,65 %
11.12.2019 15:26 23,8 C -0,3 C 39 % 75 % 1013,7 hPa 0,0 l/m 3,2 km/h (1 Bft) N-NO 22 0,000 mm -4,2 C -0,3 C 4,8 km/h (1 Bft) 100,00 %
11.12.2019 15:25 23,8 C -0,3 C 39 % 75 % 1013,6 hPa 0,0 l/m 3,2 km/h (1 Bft) N-NO 22 0,000 mm -4,2 C -0,3 C 4,8 km/h (1 Bft) 100,00 %
11.12.2019 15:24 23,8 C -0,3 C 39 % 75 % 1013,7 hPa 0,0 l/m 1,6 km/h (1 Bft) N-NO 22 0,000 mm -4,2 C -0,3 C 3,2 km/h (1 Bft) 100,00 %
11.12.2019 15:23 23,8 C -0,3 C 39 % 75 % 1013,6 hPa 0,0 l/m 1,6 km/h (1 Bft) N-NO 22 0,000 mm -4,2 C -0,3 C 4,8 km/h (1 Bft) 100,00 %
11.12.2019 15:22 23,8 C -0,3 C 39 % 75 % 1013,8 hPa 0,0 l/m 1,6 km/h (1 Bft) N-NO 22 0,000 mm -4,2 C -0,3 C 3,2 km/h (1 Bft) 95,65 %
11.12.2019 15:21 23,8 C -0,2 C 39 % 75 % 1013,9 hPa 0,0 l/m 1,6 km/h (1 Bft) N-NO 22 0,000 mm -4,1 C -0,2 C 3,2 km/h (1 Bft) 100,00 %
11.12.2019 15:20 23,8 C -0,2 C 39 % 75 % 1013,6 hPa 0,0 l/m 1,6 km/h (1 Bft) N-NO 22 0,000 mm -4,1 C -0,2 C 3,2 km/h (1 Bft) 100,00 %
11.12.2019 15:19 23,8 C -0,1 C 39 % 74 % 1013,7 hPa 0,0 l/m 1,6 km/h (1 Bft) N-NO 22 0,000 mm -4,2 C -0,1 C 3,2 km/h (1 Bft) 100,00 %
11.12.2019 15:18 23,8 C -0,1 C 39 % 74 % 1013,7 hPa 0,0 l/m 3,2 km/h (1 Bft) N-NO 22 0,000 mm -4,2 C -0,1 C 4,8 km/h (1 Bft) 100,00 %
11.12.2019 15:17 23,8 C -0,1 C 39 % 74 % 1013,7 hPa 0,0 l/m 3,2 km/h (1 Bft) N-NO 22 0,000 mm -4,2 C -0,1 C 3,2 km/h (1 Bft) 95,65 %
11.12.2019 15:16 23,8 C -0,1 C 39 % 74 % 1013,7 hPa 0,0 l/m 3,2 km/h (1 Bft) N-NO 22 0,000 mm -4,2 C -0,1 C 4,8 km/h (1 Bft) 100,00 %
11.12.2019 15:15 23,8 C -0,1 C 39 % 74 % 1013,8 hPa 0,0 l/m 3,2 km/h (1 Bft) N-NO 22 0,000 mm -4,2 C -0,1 C 4,8 km/h (1 Bft) 100,00 %
11.12.2019 15:14 23,8 C -0,1 C 39 % 74 % 1013,8 hPa 0,0 l/m 4,8 km/h (1 Bft) N-NO 22 0,000 mm -4,2 C -0,1 C 6,4 km/h (2 Bft) 100,00 %
11.12.2019 15:13 23,8 C 0,0 C 39 % 74 % 1013,7 hPa 0,0 l/m 4,8 km/h (1 Bft) N-NO 22 0,000 mm -4,1 C 0,0 C 4,8 km/h (1 Bft) 95,65 %
11.12.2019 15:12 23,9 C 0,0 C 39 % 74 % 1013,8 hPa 0,0 l/m 4,8 km/h (1 Bft) N-NO 22 0,000 mm -4,1 C 0,0 C 4,8 km/h (1 Bft) 91,30 %
11.12.2019 15:11 23,8 C 0,0 C 39 % 74 % 1013,8 hPa 0,0 l/m 3,2 km/h (1 Bft) N-NO 22 0,000 mm -4,1 C 0,0 C 4,8 km/h (1 Bft) 100,00 %
11.12.2019 15:10 23,9 C 0,0 C 39 % 74 % 1013,9 hPa 0,0 l/m 3,2 km/h (1 Bft) NO 45 0,000 mm -4,1 C 0,0 C 4,8 km/h (1 Bft) 100,00 %
11.12.2019 15:09 23,8 C 0,1 C 39 % 75 % 1013,8 hPa 0,0 l/m 1,6 km/h (1 Bft) NO 45 0,000 mm -3,8 C 0,1 C 3,2 km/h (1 Bft) 100,00 %
11.12.2019 15:08 23,9 C 0,0 C 39 % 74 % 1013,8 hPa 0,0 l/m 3,2 km/h (1 Bft) NO 45 0,000 mm -4,1 C 0,0 C 4,8 km/h (1 Bft) 100,00 %
11.12.2019 15:07 23,9 C 0,0 C 39 % 74 % 1013,9 hPa 0,0 l/m 3,2 km/h (1 Bft) O-NO 67 0,000 mm -4,1 C 0,0 C 4,8 km/h (1 Bft) 100,00 %
11.12.2019 15:06 23,9 C 0,1 C 39 % 74 % 1013,9 hPa 0,0 l/m 3,2 km/h (1 Bft) NO 45 0,000 mm -4,0 C 0,1 C 4,8 km/h (1 Bft) 100,00 %
11.12.2019 15:05 23,9 C 0,1 C 39 % 74 % 1013,9 hPa 0,0 l/m 3,2 km/h (1 Bft) NO 45 0,000 mm -4,0 C 0,1 C 4,8 km/h (1 Bft) 91,30 %
11.12.2019 15:04 23,9 C 0,1 C 39 % 74 % 1014,0 hPa 0,0 l/m 3,2 km/h (1 Bft) N-NO 22 0,000 mm -4,0 C 0,1 C 4,8 km/h (1 Bft) 100,00 %
11.12.2019 15:03 23,9 C 0,1 C 39 % 74 % 1013,9 hPa 0,0 l/m 3,2 km/h (1 Bft) N-NO 22 0,000 mm -4,0 C 0,1 C 4,8 km/h (1 Bft) 100,00 %
11.12.2019 15:02 23,9 C 0,1 C 39 % 74 % 1013,9 hPa 0,0 l/m 3,2 km/h (1 Bft) N-NO 22 0,000 mm -4,0 C 0,1 C 4,8 km/h (1 Bft) 100,00 %
11.12.2019 15:01 23,9 C 0,1 C 39 % 74 % 1013,9 hPa 0,0 l/m 1,6 km/h (1 Bft) N-NO 22 0,000 mm -4,0 C 0,1 C 4,8 km/h (1 Bft) 100,00 %
11.12.2019 15:00 23,9 C 0,1 C 39 % 74 % 1014,0 hPa 0,0 l/m 4,8 km/h (1 Bft) N-NO 22 0,000 mm -4,0 C 0,1 C 6,4 km/h (2 Bft) 100,00 %
11.12.2019 14:59 23,9 C 0,1 C 39 % 74 % 1014,0 hPa 0,0 l/m 3,2 km/h (1 Bft) N-NO 22 0,000 mm -4,0 C 0,1 C 4,8 km/h (1 Bft) 100,00 %
11.12.2019 14:58 23,9 C 0,1 C 39 % 74 % 1013,9 hPa 0,0 l/m 6,4 km/h (2 Bft) N-NO 22 0,000 mm -4,0 C 0,1 C 8,0 km/h (2 Bft) 100,00 %
11.12.2019 14:57 23,9 C 0,1 C 39 % 74 % 1014,0 hPa 0,0 l/m 3,2 km/h (1 Bft) NO 45 0,000 mm -4,0 C 0,1 C 4,8 km/h (1 Bft) 100,00 %
11.12.2019 14:56 23,9 C 0,1 C 39 % 74 % 1014,0 hPa 0,0 l/m 4,8 km/h (1 Bft) N-NO 22 0,000 mm -4,0 C 0,1 C 6,4 km/h (2 Bft) 100,00 %
11.12.2019 14:55 23,9 C 0,1 C 39 % 73 % 1014,0 hPa 0,0 l/m 4,8 km/h (1 Bft) N-NO 22 0,000 mm -4,2 C 0,1 C 6,4 km/h (2 Bft) 100,00 %
11.12.2019 14:54 23,9 C 0,1 C 39 % 74 % 1014,0 hPa 0,0 l/m 4,8 km/h (1 Bft) N-NO 22 0,000 mm -4,0 C 0,1 C 6,4 km/h (2 Bft) 100,00 %
11.12.2019 14:53 23,9 C 0,1 C 39 % 73 % 1014,0 hPa 0,0 l/m 6,4 km/h (2 Bft) N-NO 22 0,000 mm -4,2 C 0,1 C 8,0 km/h (2 Bft) 95,65 %
11.12.2019 14:52 23,9 C 0,1 C 39 % 73 % 1014,0 hPa 0,0 l/m 6,4 km/h (2 Bft) N-NO 22 0,000 mm -4,2 C 0,1 C 8,0 km/h (2 Bft) 100,00 %
11.12.2019 14:51 23,9 C 0,2 C 39 % 74 % 1014,1 hPa 0,0 l/m 4,8 km/h (1 Bft) N-NO 22 0,000 mm -3,9 C 0,2 C 6,4 km/h (2 Bft) 100,00 %
11.12.2019 14:50 23,9 C 0,2 C 39 % 74 % 1014,1 hPa 0,0 l/m 3,2 km/h (1 Bft) NO 45 0,000 mm -3,9 C 0,2 C 6,4 km/h (2 Bft) 100,00 %
11.12.2019 14:49 23,9 C 0,2 C 39 % 73 % 1014,1 hPa 0,0 l/m 4,8 km/h (1 Bft) NO 45 0,000 mm -4,1 C 0,2 C 6,4 km/h (2 Bft) 95,65 %
11.12.2019 14:48 23,9 C 0,2 C 39 % 73 % 1014,1 hPa 0,0 l/m 4,8 km/h (1 Bft) N-NO 22 0,000 mm -4,1 C 0,2 C 6,4 km/h (2 Bft) 100,00 %
11.12.2019 14:47 23,9 C 0,2 C 39 % 73 % 1014,1 hPa 0,0 l/m 6,4 km/h (2 Bft) N-NO 22 0,000 mm -4,1 C 0,2 C 8,0 km/h (2 Bft) 100,00 %
11.12.2019 14:46 23,9 C 0,2 C 39 % 73 % 1014,1 hPa 0,0 l/m 4,8 km/h (1 Bft) NO 45 0,000 mm -4,1 C 0,2 C 8,0 km/h (2 Bft) 100,00 %
11.12.2019 14:45 23,9 C 0,2 C 39 % 73 % 1014,1 hPa 0,0 l/m 4,8 km/h (1 Bft) NO 45 0,000 mm -4,1 C 0,2 C 6,4 km/h (2 Bft) 100,00 %
11.12.2019 14:44 23,9 C 0,2 C 39 % 73 % 1014,2 hPa 0,0 l/m 4,8 km/h (1 Bft) N-NO 22 0,000 mm -4,1 C 0,2 C 6,4 km/h (2 Bft) 95,65 %
11.12.2019 14:43 23,9 C 0,2 C 39 % 73 % 1014,2 hPa 0,0 l/m 4,8 km/h (1 Bft) N-NO 22 0,000 mm -4,1 C 0,2 C 6,4 km/h (2 Bft) 100,00 %
11.12.2019 14:42 23,9 C 0,2 C 39 % 73 % 1014,2 hPa 0,0 l/m 4,8 km/h (1 Bft) N-NO 22 0,000 mm -4,1 C 0,2 C 6,4 km/h (2 Bft) 100,00 %
11.12.2019 14:41 23,9 C 0,2 C 39 % 74 % 1014,2 hPa 0,0 l/m 4,8 km/h (1 Bft) N-NO 22 0,000 mm -3,9 C 0,2 C 6,4 km/h (2 Bft) 91,30 %
11.12.2019 14:40 23,9 C 0,2 C 39 % 73 % 1014,2 hPa 0,0 l/m 4,8 km/h (1 Bft) N 360 0,000 mm -4,1 C 0,2 C 6,4 km/h (2 Bft) 100,00 %
11.12.2019 14:39 23,9 C 0,2 C 39 % 74 % 1014,3 hPa 0,0 l/m 4,8 km/h (1 Bft) N-NW 337 0,000 mm -3,9 C 0,2 C 6,4 km/h (2 Bft) 100,00 %
11.12.2019 14:38 23,9 C 0,2 C 39 % 74 % 1014,3 hPa 0,0 l/m 3,2 km/h (1 Bft) N 360 0,000 mm -3,9 C 0,2 C 3,2 km/h (1 Bft) 100,00 %
11.12.2019 14:37 23,9 C 0,2 C 39 % 73 % 1014,3 hPa 0,0 l/m 3,2 km/h (1 Bft) N-NO 22 0,000 mm -4,1 C 0,2 C 4,8 km/h (1 Bft) 100,00 %
11.12.2019 14:36 23,9 C 0,2 C 39 % 73 % 1014,3 hPa 0,0 l/m 3,2 km/h (1 Bft) N 360 0,000 mm -4,1 C 0,2 C 4,8 km/h (1 Bft) 95,65 %
11.12.2019 14:35 23,9 C 0,2 C 39 % 73 % 1014,3 hPa 0,0 l/m 4,8 km/h (1 Bft) N-NW 337 0,000 mm -4,1 C 0,2 C 6,4 km/h (2 Bft) 100,00 %
11.12.2019 14:34 23,9 C 0,2 C 39 % 73 % 1014,3 hPa 0,0 l/m 3,2 km/h (1 Bft) N-NW 337 0,000 mm -4,1 C 0,2 C 4,8 km/h (1 Bft) 100,00 %
11.12.2019 14:33 23,9 C 0,2 C 39 % 73 % 1014,3 hPa 0,0 l/m 3,2 km/h (1 Bft) N 360 0,000 mm -4,1 C 0,2 C 4,8 km/h (1 Bft) 100,00 %
11.12.2019 14:32 23,9 C 0,2 C 39 % 73 % 1014,4 hPa 0,0 l/m 3,2 km/h (1 Bft) N-NO 22 0,000 mm -4,1 C 0,2 C 4,8 km/h (1 Bft) 100,00 %
11.12.2019 14:31 23,9 C 0,2 C 39 % 73 % 1014,3 hPa 0,0 l/m 4,8 km/h (1 Bft) N-NO 22 0,000 mm -4,1 C 0,2 C 8,0 km/h (2 Bft) 100,00 %
11.12.2019 14:30 24,0 C 0,2 C 39 % 74 % 1014,4 hPa 0,0 l/m 3,2 km/h (1 Bft) N 360 0,000 mm -3,9 C 0,2 C 6,4 km/h (2 Bft) 100,00 %
11.12.2019 14:29 24,0 C 0,2 C 39 % 74 % 1014,4 hPa 0,0 l/m 3,2 km/h (1 Bft) N-NO 22 0,000 mm -3,9 C 0,2 C 4,8 km/h (1 Bft) 100,00 %
11.12.2019 14:28 23,9 C 0,2 C 39 % 73 % 1014,4 hPa 0,0 l/m 3,2 km/h (1 Bft) N-NW 337 0,000 mm -4,1 C 0,2 C 6,4 km/h (2 Bft) 100,00 %
11.12.2019 14:27 23,9 C 0,2 C 39 % 73 % 1014,4 hPa 0,0 l/m 3,2 km/h (1 Bft) N 360 0,000 mm -4,1 C 0,2 C 4,8 km/h (1 Bft) 100,00 %
11.12.2019 14:26 23,9 C 0,2 C 39 % 74 % 1014,3 hPa 0,0 l/m 4,8 km/h (1 Bft) N-NO 22 0,000 mm -3,9 C 0,2 C 8,0 km/h (2 Bft) 100,00 %
11.12.2019 14:25 23,9 C 0,2 C 39 % 74 % 1014,3 hPa 0,0 l/m 4,8 km/h (1 Bft) N-NO 22 0,000 mm -3,9 C 0,2 C 8,0 km/h (2 Bft) 100,00 %
11.12.2019 14:24 23,9 C 0,3 C 39 % 74 % 1014,4 hPa 0,0 l/m 3,2 km/h (1 Bft) N 360 0,000 mm -3,8 C 0,3 C 4,8 km/h (1 Bft) 95,65 %
11.12.2019 14:23 23,9 C 0,2 C 39 % 74 % 1014,3 hPa 0,0 l/m 3,2 km/h (1 Bft) N 360 0,000 mm -3,9 C 0,2 C 4,8 km/h (1 Bft) 100,00 %
11.12.2019 14:22 23,9 C 0,2 C 39 % 74 % 1014,3 hPa 0,0 l/m 3,2 km/h (1 Bft) N 360 0,000 mm -3,9 C 0,2 C 4,8 km/h (1 Bft) 100,00 %
11.12.2019 14:21 23,9 C 0,1 C 39 % 74 % 1014,3 hPa 0,0 l/m 4,8 km/h (1 Bft) N 360 0,000 mm -4,0 C 0,1 C 6,4 km/h (2 Bft) 100,00 %
11.12.2019 14:20 23,9 C 0,1 C 39 % 74 % 1014,3 hPa 0,0 l/m 4,8 km/h (1 Bft) N 360 0,000 mm -4,0 C 0,1 C 6,4 km/h (2 Bft) 100,00 %
11.12.2019 14:19 23,9 C 0,1 C 39 % 74 % 1014,3 hPa 0,0 l/m 6,4 km/h (2 Bft) N-NO 22 0,000 mm -4,0 C 0,1 C 8,0 km/h (2 Bft) 100,00 %
11.12.2019 14:18 23,9 C 0,1 C 39 % 74 % 1014,4 hPa 0,0 l/m 4,8 km/h (1 Bft) N-NO 22 0,000 mm -4,0 C 0,1 C 8,0 km/h (2 Bft) 100,00 %
11.12.2019 14:17 23,9 C 0,1 C 39 % 74 % 1014,3 hPa 0,0 l/m 4,8 km/h (1 Bft) N-NO 22 0,000 mm -4,0 C 0,1 C 8,0 km/h (2 Bft) 100,00 %
11.12.2019 14:16 23,9 C 0,1 C 39 % 74 % 1014,4 hPa 0,0 l/m 6,4 km/h (2 Bft) N-NO 22 0,000 mm -4,0 C 0,1 C 8,0 km/h (2 Bft) 100,00 %
11.12.2019 14:15 23,9 C 0,1 C 39 % 74 % 1014,4 hPa 0,0 l/m 4,8 km/h (1 Bft) N-NO 22 0,000 mm -4,0 C 0,1 C 8,0 km/h (2 Bft) 100,00 %
11.12.2019 14:14 23,9 C 0,2 C 39 % 75 % 1014,4 hPa 0,0 l/m 4,8 km/h (1 Bft) N-NO 22 0,000 mm -3,7 C 0,2 C 6,4 km/h (2 Bft) 100,00 %
11.12.2019 14:13 23,9 C 0,1 C 39 % 75 % 1014,4 hPa 0,0 l/m 3,2 km/h (1 Bft) N-NO 22 0,000 mm -3,8 C 0,1 C 4,8 km/h (1 Bft) 100,00 %
11.12.2019 14:12 23,9 C 0,0 C 39 % 74 % 1014,5 hPa 0,0 l/m 4,8 km/h (1 Bft) N-NO 22 0,000 mm -4,1 C 0,0 C 4,8 km/h (1 Bft) 100,00 %
11.12.2019 14:11 23,9 C 0,0 C 39 % 74 % 1014,6 hPa 0,0 l/m 6,4 km/h (2 Bft) N-NO 22 0,000 mm -4,1 C 0,0 C 11,3 km/h (2 Bft) 100,00 %
11.12.2019 14:10 23,9 C -0,1 C 39 % 74 % 1014,6 hPa 0,0 l/m 4,8 km/h (1 Bft) N-NO 22 0,000 mm -4,2 C -0,1 C 11,3 km/h (2 Bft) 100,00 %
11.12.2019 14:09 23,9 C -0,1 C 39 % 74 % 1014,6 hPa 0,0 l/m 4,8 km/h (1 Bft) N-NO 22 0,000 mm -4,2 C -0,1 C 6,4 km/h (2 Bft) 100,00 %
11.12.2019 14:08 23,9 C -0,1 C 39 % 74 % 1014,6 hPa 0,0 l/m 6,4 km/h (2 Bft) N-NO 22 0,000 mm -4,2 C -0,1 C 8,0 km/h (2 Bft) 95,65 %
11.12.2019 14:07 23,9 C 0,0 C 39 % 75 % 1014,7 hPa 0,0 l/m 6,4 km/h (2 Bft) NO 45 0,000 mm -3,9 C 0,0 C 9,7 km/h (2 Bft) 100,00 %
11.12.2019 14:06 23,9 C -0,1 C 39 % 74 % 1014,6 hPa 0,0 l/m 3,2 km/h (1 Bft) NO 45 0,000 mm -4,2 C -0,1 C 4,8 km/h (1 Bft) 100,00 %
11.12.2019 14:05 23,9 C -0,1 C 39 % 74 % 1014,6 hPa 0,0 l/m 4,8 km/h (1 Bft) N-NO 22 0,000 mm -4,2 C -0,1 C 8,0 km/h (2 Bft) 100,00 %
11.12.2019 14:04 23,9 C -0,1 C 39 % 74 % 1014,7 hPa 0,0 l/m 6,4 km/h (2 Bft) N-NO 22 0,000 mm -4,2 C -0,1 C 8,0 km/h (2 Bft) 100,00 %
11.12.2019 14:03 23,9 C -0,1 C 39 % 74 % 1014,7 hPa 0,0 l/m 6,4 km/h (2 Bft) N-NO 22 0,000 mm -4,2 C -0,1 C 9,7 km/h (2 Bft) 95,65 %
11.12.2019 14:02 23,9 C -0,1 C 39 % 74 % 1014,8 hPa 0,0 l/m 4,8 km/h (1 Bft) N-NO 22 0,000 mm -4,2 C -0,1 C 6,4 km/h (2 Bft) 100,00 %
11.12.2019 14:01 23,9 C -0,1 C 39 % 74 % 1014,8 hPa 0,0 l/m 4,8 km/h (1 Bft) N-NO 22 0,000 mm -4,2 C -0,1 C 8,0 km/h (2 Bft) 100,00 %
11.12.2019 14:00 23,9 C 0,0 C 39 % 74 % 1014,9 hPa 0,0 l/m 6,4 km/h (2 Bft) NO 45 0,000 mm -4,1 C 0,0 C 8,0 km/h (2 Bft) 95,65 %
11.12.2019 13:59 23,9 C 0,0 C 39 % 75 % 1014,9 hPa 0,0 l/m 4,8 km/h (1 Bft) N-NO 22 0,000 mm -3,9 C 0,0 C 8,0 km/h (2 Bft) 100,00 %
11.12.2019 13:58 23,9 C -0,1 C 39 % 74 % 1014,9 hPa 0,0 l/m 4,8 km/h (1 Bft) NO 45 0,000 mm -4,2 C -0,1 C 8,0 km/h (2 Bft) 100,00 %
11.12.2019 13:57 23,9 C -0,1 C 39 % 74 % 1014,9 hPa 0,0 l/m 4,8 km/h (1 Bft) N-NO 22 0,000 mm -4,2 C -0,1 C 6,4 km/h (2 Bft) 100,00 %
11.12.2019 13:56 23,9 C -0,1 C 39 % 74 % 1015,0 hPa 0,0 l/m 4,8 km/h (1 Bft) N-NO 22 0,000 mm -4,2 C -0,1 C 6,4 km/h (2 Bft) 100,00 %
11.12.2019 13:55 23,9 C -0,1 C 39 % 74 % 1015,0 hPa 0,0 l/m 4,8 km/h (1 Bft) N-NO 22 0,000 mm -4,2 C -0,1 C 6,4 km/h (2 Bft) 100,00 %
11.12.2019 13:54 23,9 C -0,1 C 39 % 75 % 1015,0 hPa 0,0 l/m 4,8 km/h (1 Bft) N-NO 22 0,000 mm -4,0 C -0,1 C 8,0 km/h (2 Bft) 100,00 %
11.12.2019 13:53 23,9 C -0,1 C 39 % 75 % 1015,0 hPa 0,0 l/m 4,8 km/h (1 Bft) N-NO 22 0,000 mm -4,0 C -0,1 C 6,4 km/h (2 Bft) 100,00 %
11.12.2019 13:52 23,9 C -0,1 C 39 % 75 % 1015,0 hPa 0,0 l/m 4,8 km/h (1 Bft) N-NO 22 0,000 mm -4,0 C -0,1 C 8,0 km/h (2 Bft) 100,00 %
11.12.2019 13:51 23,9 C -0,1 C 39 % 75 % 1015,1 hPa 0,0 l/m 3,2 km/h (1 Bft) N-NO 22 0,000 mm -4,0 C -0,1 C 4,8 km/h (1 Bft) 100,00 %
11.12.2019 13:50 23,9 C -0,1 C 39 % 75 % 1015,1 hPa 0,0 l/m 3,2 km/h (1 Bft) N-NO 22 0,000 mm -4,0 C -0,1 C 6,4 km/h (2 Bft) 100,00 %
11.12.2019 13:49 23,8 C -0,1 C 39 % 75 % 1015,1 hPa 0,0 l/m 4,8 km/h (1 Bft) N 360 0,000 mm -4,0 C -0,1 C 6,4 km/h (2 Bft) 100,00 %
11.12.2019 13:48 23,9 C -0,1 C 38 % 75 % 1015,2 hPa 0,0 l/m 4,8 km/h (1 Bft) N 360 0,000 mm -4,0 C -0,1 C 6,4 km/h (2 Bft) 91,30 %
11.12.2019 13:47 23,9 C -0,1 C 38 % 75 % 1015,1 hPa 0,0 l/m 4,8 km/h (1 Bft) N-NO 22 0,000 mm -4,0 C -0,1 C 6,4 km/h (2 Bft) 100,00 %
11.12.2019 13:46 23,9 C -0,1 C 39 % 75 % 1015,2 hPa 0,0 l/m 4,8 km/h (1 Bft) N-NO 22 0,000 mm -4,0 C -0,1 C 8,0 km/h (2 Bft) 100,00 %
11.12.2019 13:45 23,9 C -0,1 C 38 % 75 % 1015,2 hPa 0,0 l/m 4,8 km/h (1 Bft) N-NO 22 0,000 mm -4,0 C -0,1 C 6,4 km/h (2 Bft) 95,65 %
11.12.2019 13:44 23,9 C -0,1 C 38 % 75 % 1015,2 hPa 0,0 l/m 3,2 km/h (1 Bft) N-NO 22 0,000 mm -4,0 C -0,1 C 8,0 km/h (2 Bft) 100,00 %
11.12.2019 13:43 23,9 C -0,1 C 38 % 75 % 1015,2 hPa 0,0 l/m 3,2 km/h (1 Bft) N-NO 22 0,000 mm -4,0 C -0,1 C 6,4 km/h (2 Bft) 100,00 %
11.12.2019 13:42 23,9 C -0,1 C 38 % 75 % 1015,3 hPa 0,0 l/m 3,2 km/h (1 Bft) N 360 0,000 mm -4,0 C -0,1 C 6,4 km/h (2 Bft) 100,00 %
11.12.2019 13:41 23,9 C -0,2 C 38 % 75 % 1015,3 hPa 0,0 l/m 3,2 km/h (1 Bft) N 360 0,000 mm -4,1 C -0,2 C 6,4 km/h (2 Bft) 100,00 %
11.12.2019 13:40 23,9 C -0,2 C 38 % 76 % 1015,3 hPa 0,0 l/m 3,2 km/h (1 Bft) N-NW 337 0,000 mm -3,9 C -0,2 C 8,0 km/h (2 Bft) 100,00 %
11.12.2019 13:39 23,9 C -0,2 C 38 % 75 % 1015,3 hPa 0,0 l/m 3,2 km/h (1 Bft) N-NW 337 0,000 mm -4,1 C -0,2 C 4,8 km/h (1 Bft) 95,65 %
11.12.2019 13:38 23,9 C -0,2 C 38 % 75 % 1015,4 hPa 0,0 l/m 4,8 km/h (1 Bft) N-NW 337 0,000 mm -4,1 C -0,2 C 6,4 km/h (2 Bft) 100,00 %
11.12.2019 13:37 23,9 C -0,2 C 38 % 75 % 1015,4 hPa 0,0 l/m 4,8 km/h (1 Bft) N-NW 337 0,000 mm -4,1 C -0,2 C 8,0 km/h (2 Bft) 100,00 %
11.12.2019 13:36 23,9 C -0,2 C 38 % 75 % 1015,5 hPa 0,0 l/m 4,8 km/h (1 Bft) N-NW 337 0,000 mm -4,1 C -0,2 C 6,4 km/h (2 Bft) 100,00 %
11.12.2019 13:35 23,9 C -0,2 C 38 % 75 % 1015,5 hPa 0,0 l/m 4,8 km/h (1 Bft) N 360 0,000 mm -4,1 C -0,2 C 6,4 km/h (2 Bft) 100,00 %
11.12.2019 13:34 23,8 C -0,1 C 38 % 76 % 1015,4 hPa 0,0 l/m 3,2 km/h (1 Bft) N-NO 22 0,000 mm -3,8 C -0,1 C 6,4 km/h (2 Bft) 100,00 %
11.12.2019 13:33 23,9 C -0,2 C 38 % 76 % 1015,4 hPa 0,0 l/m 3,2 km/h (1 Bft) N-NO 22 0,000 mm -3,9 C -0,2 C 6,4 km/h (2 Bft) 100,00 %
11.12.2019 13:32 23,9 C -0,2 C 38 % 76 % 1015,5 hPa 0,0 l/m 4,8 km/h (1 Bft) N-NO 22 0,000 mm -3,9 C -0,2 C 6,4 km/h (2 Bft) 100,00 %
11.12.2019 13:31 23,9 C -0,2 C 38 % 76 % 1015,5 hPa 0,0 l/m 4,8 km/h (1 Bft) N-NO 22 0,000 mm -3,9 C -0,2 C 8,0 km/h (2 Bft) 95,65 %
11.12.2019 13:30 23,9 C -0,2 C 38 % 76 % 1015,4 hPa 0,0 l/m 3,2 km/h (1 Bft) N-NO 22 0,000 mm -3,9 C -0,2 C 6,4 km/h (2 Bft) 100,00 %
11.12.2019 13:29 23,9 C -0,2 C 38 % 77 % 1015,5 hPa 0,0 l/m 3,2 km/h (1 Bft) N-NO 22 0,000 mm -3,7 C -0,2 C 6,4 km/h (2 Bft) 100,00 %
11.12.2019 13:28 23,9 C -0,3 C 38 % 76 % 1015,6 hPa 0,0 l/m 4,8 km/h (1 Bft) NO 45 0,000 mm -4,0 C -0,3 C 6,4 km/h (2 Bft) 100,00 %
11.12.2019 13:27 23,9 C -0,3 C 38 % 77 % 1015,5 hPa 0,0 l/m 4,8 km/h (1 Bft) NO 45 0,000 mm -3,8 C -0,3 C 6,4 km/h (2 Bft) 100,00 %
11.12.2019 13:26 23,8 C -0,3 C 38 % 77 % 1015,5 hPa 0,0 l/m 4,8 km/h (1 Bft) NO 45 0,000 mm -3,8 C -0,3 C 6,4 km/h (2 Bft) 95,65 %
11.12.2019 13:25 23,8 C -0,3 C 38 % 77 % 1015,5 hPa 0,0 l/m 4,8 km/h (1 Bft) N-NO 22 0,000 mm -3,8 C -0,3 C 8,0 km/h (2 Bft) 100,00 %
11.12.2019 13:24 23,9 C -0,4 C 38 % 77 % 1015,6 hPa 0,0 l/m 4,8 km/h (1 Bft) N 360 0,000 mm -3,9 C -0,4 C 6,4 km/h (2 Bft) 95,65 %
11.12.2019 13:23 23,9 C -0,4 C 38 % 77 % 1015,6 hPa 0,0 l/m 4,8 km/h (1 Bft) NO 45 0,000 mm -3,9 C -0,4 C 12,9 km/h (3 Bft) 100,00 %
11.12.2019 13:22 23,9 C -0,4 C 38 % 77 % 1015,6 hPa 0,0 l/m 6,4 km/h (2 Bft) N-NO 22 0,000 mm -3,9 C -0,4 C 12,9 km/h (3 Bft) 100,00 %
11.12.2019 13:21 23,9 C -0,4 C 38 % 77 % 1015,6 hPa 0,0 l/m 6,4 km/h (2 Bft) N-NO 22 0,000 mm -3,9 C -0,4 C 8,0 km/h (2 Bft) 95,65 %
11.12.2019 13:20 23,9 C -0,4 C 38 % 77 % 1015,8 hPa 0,0 l/m 4,8 km/h (1 Bft) N-NO 22 0,000 mm -3,9 C -0,4 C 6,4 km/h (2 Bft) 100,00 %
11.12.2019 13:19 23,9 C -0,4 C 38 % 77 % 1015,7 hPa 0,0 l/m 6,4 km/h (2 Bft) N-NO 22 0,000 mm -3,9 C -0,4 C 8,0 km/h (2 Bft) 100,00 %
11.12.2019 13:18 23,8 C -0,3 C 38 % 77 % 1015,7 hPa 0,0 l/m 6,4 km/h (2 Bft) N-NO 22 0,000 mm -3,8 C -0,3 C 8,0 km/h (2 Bft) 100,00 %
11.12.2019 13:17 23,8 C -0,3 C 38 % 78 % 1015,7 hPa 0,0 l/m 4,8 km/h (1 Bft) N-NO 22 0,000 mm -3,7 C -0,3 C 6,4 km/h (2 Bft) 95,65 %
11.12.2019 13:16 23,8 C -0,4 C 38 % 77 % 1015,8 hPa 0,0 l/m 4,8 km/h (1 Bft) N-NO 22 0,000 mm -3,9 C -0,4 C 8,0 km/h (2 Bft) 100,00 %
11.12.2019 13:15 23,9 C -0,4 C 38 % 77 % 1015,8 hPa 0,0 l/m 4,8 km/h (1 Bft) N-NO 22 0,000 mm -3,9 C -0,4 C 8,0 km/h (2 Bft) 100,00 %
11.12.2019 13:14 23,9 C -0,4 C 38 % 78 % 1015,8 hPa 0,0 l/m 6,4 km/h (2 Bft) NO 45 0,000 mm -3,8 C -0,4 C 9,7 km/h (2 Bft) 100,00 %
11.12.2019 13:13 23,8 C -0,4 C 38 % 78 % 1015,8 hPa 0,0 l/m 4,8 km/h (1 Bft) NO 45 0,000 mm -3,8 C -0,4 C 8,0 km/h (2 Bft) 100,00 %
11.12.2019 13:12 23,8 C -0,5 C 38 % 77 % 1015,8 hPa 0,0 l/m 4,8 km/h (1 Bft) N-NO 22 0,000 mm -4,0 C -0,5 C 8,0 km/h (2 Bft) 100,00 %
11.12.2019 13:11 23,8 C -0,5 C 38 % 77 % 1015,9 hPa 0,0 l/m 3,2 km/h (1 Bft) N-NO 22 0,000 mm -4,0 C -0,5 C 4,8 km/h (1 Bft) 100,00 %
11.12.2019 13:10 23,8 C -0,5 C 38 % 77 % 1015,9 hPa 0,0 l/m 3,2 km/h (1 Bft) N-NO 22 0,000 mm -4,0 C -0,5 C 4,8 km/h (1 Bft) 100,00 %
11.12.2019 13:09 23,8 C -0,5 C 38 % 78 % 1015,8 hPa 0,0 l/m 4,8 km/h (1 Bft) N-NO 22 0,000 mm -3,9 C -0,5 C 6,4 km/h (2 Bft) 100,00 %
11.12.2019 13:08 23,8 C -0,5 C 38 % 78 % 1015,8 hPa 0,0 l/m 3,2 km/h (1 Bft) N-NO 22 0,000 mm -3,9 C -0,5 C 6,4 km/h (2 Bft) 100,00 %
11.12.2019 13:07 23,8 C -0,5 C 38 % 78 % 1015,8 hPa 0,0 l/m 6,4 km/h (2 Bft) NO 45 0,000 mm -3,9 C -0,5 C 8,0 km/h (2 Bft) 95,65 %
11.12.2019 13:06 23,8 C -0,5 C 38 % 78 % 1015,9 hPa 0,0 l/m 3,2 km/h (1 Bft) N-NO 22 0,000 mm -3,9 C -0,5 C 6,4 km/h (2 Bft) 100,00 %
11.12.2019 13:05 23,8 C -0,6 C 38 % 78 % 1015,9 hPa 0,0 l/m 3,2 km/h (1 Bft) N-NO 22 0,000 mm -3,9 C -0,6 C 4,8 km/h (1 Bft) 100,00 %
11.12.2019 13:04 23,8 C -0,6 C 38 % 78 % 1015,9 hPa 0,0 l/m 4,8 km/h (1 Bft) NO 45 0,000 mm -3,9 C -0,6 C 6,4 km/h (2 Bft) 100,00 %
11.12.2019 13:03 23,8 C -0,5 C 38 % 78 % 1016,0 hPa 0,0 l/m 4,8 km/h (1 Bft) N-NO 22 0,000 mm -3,9 C -0,5 C 6,4 km/h (2 Bft) 95,65 %
11.12.2019 13:02 23,8 C -0,5 C 38 % 78 % 1016,0 hPa 0,0 l/m 3,2 km/h (1 Bft) N-NO 22 0,000 mm -3,9 C -0,5 C 9,7 km/h (2 Bft) 100,00 %
11.12.2019 13:01 23,8 C -0,6 C 38 % 78 % 1016,0 hPa 0,0 l/m 4,8 km/h (1 Bft) N-NO 22 0,000 mm -3,9 C -0,6 C 6,4 km/h (2 Bft) 95,65 %
11.12.2019 13:00 23,8 C -0,6 C 38 % 78 % 1016,0 hPa 0,0 l/m 4,8 km/h (1 Bft) N-NO 22 0,000 mm -3,9 C -0,6 C 9,7 km/h (2 Bft) 100,00 %
11.12.2019 12:59 23,8 C -0,6 C 38 % 78 % 1016,1 hPa 0,0 l/m 4,8 km/h (1 Bft) N-NO 22 0,000 mm -3,9 C -0,6 C 6,4 km/h (2 Bft) 100,00 %
11.12.2019 12:58 23,8 C -0,5 C 38 % 79 % 1016,1 hPa 0,0 l/m 3,2 km/h (1 Bft) NO 45 0,000 mm -3,7 C -0,5 C 6,4 km/h (2 Bft) 100,00 %
11.12.2019 12:57 23,8 C -0,5 C 38 % 79 % 1016,1 hPa 0,0 l/m 1,6 km/h (1 Bft) N-NO 22 0,000 mm -3,7 C -0,5 C 4,8 km/h (1 Bft) 100,00 %
11.12.2019 12:56 23,7 C -0,6 C 38 % 79 % 1016,1 hPa 0,0 l/m 1,6 km/h (1 Bft) N-NO 22 0,000 mm -3,8 C -0,6 C 4,8 km/h (1 Bft) 100,00 %
11.12.2019 12:55 23,7 C -0,6 C 38 % 79 % 1016,1 hPa 0,0 l/m 3,2 km/h (1 Bft) N-NO 22 0,000 mm -3,8 C -0,6 C 4,8 km/h (1 Bft) 95,65 %
11.12.2019 12:54 23,7 C -0,7 C 38 % 79 % 1016,2 hPa 0,0 l/m 4,8 km/h (1 Bft) N-NO 22 0,000 mm -3,9 C -0,7 C 6,4 km/h (2 Bft) 100,00 %
11.12.2019 12:53 23,7 C -0,7 C 38 % 79 % 1016,2 hPa 0,0 l/m 3,2 km/h (1 Bft) N-NO 22 0,000 mm -3,9 C -0,7 C 4,8 km/h (1 Bft) 100,00 %
11.12.2019 12:52 23,7 C -0,8 C 38 % 79 % 1016,2 hPa 0,0 l/m 3,2 km/h (1 Bft) N-NO 22 0,000 mm -4,0 C -0,8 C 4,8 km/h (1 Bft) 100,00 %
11.12.2019 12:51 23,7 C -0,9 C 38 % 79 % 1016,1 hPa 0,0 l/m 3,2 km/h (1 Bft) N-NO 22 0,000 mm -4,1 C -0,9 C 4,8 km/h (1 Bft) 100,00 %
11.12.2019 12:50 23,7 C -0,9 C 38 % 79 % 1016,2 hPa 0,0 l/m 3,2 km/h (1 Bft) N-NO 22 0,000 mm -4,1 C -0,9 C 4,8 km/h (1 Bft) 95,65 %
11.12.2019 12:49 23,7 C -0,8 C 38 % 79 % 1016,2 hPa 0,0 l/m 4,8 km/h (1 Bft) N-NO 22 0,000 mm -4,0 C -0,8 C 4,8 km/h (1 Bft) 100,00 %
11.12.2019 12:48 23,7 C -1,0 C 38 % 79 % 1016,3 hPa 0,0 l/m 3,2 km/h (1 Bft) N-NO 22 0,000 mm -4,2 C -1,0 C 4,8 km/h (1 Bft) 100,00 %
11.12.2019 12:47 23,7 C -1,1 C 38 % 79 % 1016,2 hPa 0,0 l/m 3,2 km/h (1 Bft) NO 45 0,000 mm -4,3 C -1,1 C 6,4 km/h (2 Bft) 100,00 %
11.12.2019 12:46 23,7 C -1,1 C 38 % 79 % 1016,2 hPa 0,0 l/m 4,8 km/h (1 Bft) N-NO 22 0,000 mm -4,3 C -1,1 C 6,4 km/h (2 Bft) 100,00 %
11.12.2019 12:45 23,6 C -1,1 C 38 % 79 % 1016,3 hPa 0,0 l/m 4,8 km/h (1 Bft) N-NO 22 0,000 mm -4,3 C -1,1 C 6,4 km/h (2 Bft) 95,65 %
11.12.2019 12:44 23,6 C -1,2 C 38 % 79 % 1016,3 hPa 0,0 l/m 4,8 km/h (1 Bft) N-NO 22 0,000 mm -4,4 C -1,2 C 6,4 km/h (2 Bft) 100,00 %
11.12.2019 12:43 23,6 C -1,3 C 38 % 79 % 1016,3 hPa 0,0 l/m 4,8 km/h (1 Bft) N-NO 22 0,000 mm -4,5 C -1,3 C 6,4 km/h (2 Bft) 95,65 %
11.12.2019 12:42 23,6 C -1,3 C 38 % 79 % 1016,4 hPa 0,0 l/m 3,2 km/h (1 Bft) NO 45 0,000 mm -4,5 C -1,3 C 8,0 km/h (2 Bft) 100,00 %
11.12.2019 12:41 23,6 C -1,3 C 38 % 79 % 1016,3 hPa 0,0 l/m 6,4 km/h (2 Bft) N-NO 22 0,000 mm -4,5 C -1,3 C 8,0 km/h (2 Bft) 100,00 %
11.12.2019 12:40 23,6 C -1,4 C 38 % 79 % 1016,4 hPa 0,0 l/m 4,8 km/h (1 Bft) NO 45 0,000 mm -4,6 C -1,4 C 6,4 km/h (2 Bft) 100,00 %
11.12.2019 12:39 23,6 C -1,4 C 38 % 79 % 1016,4 hPa 0,0 l/m 3,2 km/h (1 Bft) N-NO 22 0,000 mm -4,6 C -1,4 C 4,8 km/h (1 Bft) 100,00 %
11.12.2019 12:38 23,6 C -1,3 C 38 % 79 % 1016,4 hPa 0,0 l/m 3,2 km/h (1 Bft) N-NO 22 0,000 mm -4,5 C -1,3 C 4,8 km/h (1 Bft) 100,00 %
11.12.2019 12:37 23,6 C -1,2 C 38 % 79 % 1016,4 hPa 0,0 l/m 3,2 km/h (1 Bft) N 360 0,000 mm -4,4 C -1,2 C 6,4 km/h (2 Bft) 100,00 %
11.12.2019 12:36 23,6 C -1,2 C 38 % 79 % 1016,5 hPa 0,0 l/m 3,2 km/h (1 Bft) NO 45 0,000 mm -4,4 C -1,2 C 6,4 km/h (2 Bft) 100,00 %
11.12.2019 12:35 23,6 C -1,3 C 38 % 79 % 1016,5 hPa 0,0 l/m 6,4 km/h (2 Bft) N-NO 22 0,000 mm -4,5 C -1,3 C 8,0 km/h (2 Bft) 100,00 %
11.12.2019 12:34 23,5 C -1,3 C 38 % 79 % 1016,5 hPa 0,0 l/m 3,2 km/h (1 Bft) N-NO 22 0,000 mm -4,5 C -1,3 C 3,2 km/h (1 Bft) 95,65 %
11.12.2019 12:33 23,5 C -1,3 C 38 % 79 % 1016,5 hPa 0,0 l/m 3,2 km/h (1 Bft) N-NO 22 0,000 mm -4,5 C -1,3 C 4,8 km/h (1 Bft) 95,65 %
11.12.2019 12:32 23,5 C -1,3 C 38 % 79 % 1016,6 hPa 0,0 l/m 4,8 km/h (1 Bft) N-NO 22 0,000 mm -4,5 C -1,3 C 6,4 km/h (2 Bft) 100,00 %
11.12.2019 12:31 23,5 C -1,2 C 38 % 80 % 1016,6 hPa 0,0 l/m 4,8 km/h (1 Bft) N 360 0,000 mm -4,2 C -1,2 C 6,4 km/h (2 Bft) 100,00 %
11.12.2019 12:30 23,5 C -1,3 C 38 % 80 % 1016,7 hPa 0,0 l/m 4,8 km/h (1 Bft) N-NW 337 0,000 mm -4,3 C -1,3 C 6,4 km/h (2 Bft) 100,00 %
11.12.2019 12:29 23,4 C -1,3 C 38 % 80 % 1016,7 hPa 0,0 l/m 4,8 km/h (1 Bft) N-NO 22 0,000 mm -4,3 C -1,3 C 6,4 km/h (2 Bft) 95,65 %
11.12.2019 12:28 23,4 C -1,4 C 38 % 80 % 1016,7 hPa 0,0 l/m 4,8 km/h (1 Bft) N 360 0,000 mm -4,4 C -1,4 C 6,4 km/h (2 Bft) 100,00 %
11.12.2019 12:27 23,4 C -1,4 C 38 % 80 % 1016,8 hPa 0,0 l/m 1,6 km/h (1 Bft) N-NW 337 0,000 mm -4,4 C -1,4 C 4,8 km/h (1 Bft) 100,00 %
11.12.2019 12:26 23,4 C -1,6 C 38 % 80 % 1016,8 hPa 0,0 l/m 4,8 km/h (1 Bft) N-NW 337 0,000 mm -4,6 C -1,6 C 6,4 km/h (2 Bft) 100,00 %
11.12.2019 12:25 23,4 C -1,5 C 38 % 80 % 1016,9 hPa 0,0 l/m 4,8 km/h (1 Bft) N 360 0,000 mm -4,5 C -1,5 C 6,4 km/h (2 Bft) 100,00 %
11.12.2019 12:24 23,4 C -1,6 C 38 % 80 % 1017,0 hPa 0,0 l/m 4,8 km/h (1 Bft) N-NO 22 0,000 mm -4,6 C -1,6 C 6,4 km/h (2 Bft) 100,00 %
11.12.2019 12:23 23,4 C -1,6 C 38 % 81 % 1017,0 hPa 0,0 l/m 3,2 km/h (1 Bft) N-NW 337 0,000 mm -4,4 C -1,6 C 4,8 km/h (1 Bft) 100,00 %
11.12.2019 12:22 23,4 C -1,8 C 38 % 81 % 1017,1 hPa 0,0 l/m 4,8 km/h (1 Bft) N-NW 337 0,000 mm -4,6 C -1,8 C 6,4 km/h (2 Bft) 100,00 %
11.12.2019 12:21 23,3 C -1,8 C 38 % 81 % 1017,1 hPa 0,0 l/m 3,2 km/h (1 Bft) N 360 0,000 mm -4,6 C -1,8 C 4,8 km/h (1 Bft) 100,00 %
11.12.2019 12:20 23,3 C -1,8 C 38 % 81 % 1017,1 hPa 0,0 l/m 4,8 km/h (1 Bft) N-NW 337 0,000 mm -4,6 C -1,8 C 6,4 km/h (2 Bft) 100,00 %
11.12.2019 12:19 23,3 C -1,8 C 38 % 81 % 1017,2 hPa 0,0 l/m 4,8 km/h (1 Bft) N-NW 337 0,000 mm -4,6 C -1,8 C 8,0 km/h (2 Bft) 95,65 %
11.12.2019 12:18 23,3 C -1,9 C 38 % 81 % 1017,1 hPa 0,0 l/m 3,2 km/h (1 Bft) N-NW 337 0,000 mm -4,7 C -1,9 C 6,4 km/h (2 Bft) 100,00 %
11.12.2019 12:17 23,3 C -1,9 C 38 % 81 % 1017,1 hPa 0,0 l/m 4,8 km/h (1 Bft) N-NO 22 0,000 mm -4,7 C -1,9 C 8,0 km/h (2 Bft) 100,00 %
11.12.2019 12:16 23,3 C -2,0 C 38 % 82 % 1017,1 hPa 0,0 l/m 4,8 km/h (1 Bft) NW 315 0,000 mm -4,7 C -2,0 C 6,4 km/h (2 Bft) 100,00 %
11.12.2019 12:15 23,3 C -2,0 C 38 % 82 % 1017,1 hPa 0,0 l/m 4,8 km/h (1 Bft) N-NW 337 0,000 mm -4,7 C -2,0 C 6,4 km/h (2 Bft) 100,00 %
11.12.2019 12:14 23,3 C -2,0 C 37 % 82 % 1017,1 hPa 0,0 l/m 4,8 km/h (1 Bft) N-NW 337 0,000 mm -4,7 C -2,0 C 4,8 km/h (1 Bft) 100,00 %
11.12.2019 12:13 23,3 C -2,1 C 37 % 82 % 1017,1 hPa 0,0 l/m 4,8 km/h (1 Bft) N 360 0,000 mm -4,7 C -2,1 C 6,4 km/h (2 Bft) 100,00 %
11.12.2019 12:12 23,2 C -2,1 C 37 % 82 % 1017,1 hPa 0,0 l/m 4,8 km/h (1 Bft) N-NW 337 0,000 mm -4,7 C -2,1 C 6,4 km/h (2 Bft) 100,00 %
11.12.2019 12:11 23,2 C -2,1 C 37 % 82 % 1017,1 hPa 0,0 l/m 4,8 km/h (1 Bft) N-NW 337 0,000 mm -4,7 C -2,1 C 8,0 km/h (2 Bft) 100,00 %
11.12.2019 12:10 23,2 C -2,2 C 37 % 82 % 1017,1 hPa 0,0 l/m 4,8 km/h (1 Bft) N-NW 337 0,000 mm -4,8 C -2,2 C 6,4 km/h (2 Bft) 100,00 %
11.12.2019 12:09 23,2 C -2,3 C 37 % 82 % 1017,2 hPa 0,0 l/m 3,2 km/h (1 Bft) N-NW 337 0,000 mm -4,9 C -2,3 C 4,8 km/h (1 Bft) 100,00 %
11.12.2019 12:08 23,2 C -2,3 C 37 % 82 % 1017,2 hPa 0,0 l/m 4,8 km/h (1 Bft) N-NW 337 0,000 mm -4,9 C -2,3 C 6,4 km/h (2 Bft) 100,00 %
11.12.2019 12:07 23,2 C -2,4 C 37 % 82 % 1017,2 hPa 0,0 l/m 6,4 km/h (2 Bft) N-NW 337 0,000 mm -5,0 C -2,4 C 8,0 km/h (2 Bft) 95,65 %
11.12.2019 12:06 23,2 C -2,3 C 37 % 82 % 1017,2 hPa 0,0 l/m 4,8 km/h (1 Bft) N-NW 337 0,000 mm -4,9 C -2,3 C 8,0 km/h (2 Bft) 100,00 %
11.12.2019 12:05 23,2 C -2,3 C 37 % 82 % 1017,2 hPa 0,0 l/m 4,8 km/h (1 Bft) N-NW 337 0,000 mm -4,9 C -2,3 C 6,4 km/h (2 Bft) 100,00 %
11.12.2019 12:04 23,2 C -2,3 C 37 % 83 % 1017,3 hPa 0,0 l/m 4,8 km/h (1 Bft) N-NW 337 0,000 mm -4,8 C -2,3 C 6,4 km/h (2 Bft) 100,00 %
11.12.2019 12:03 23,2 C -2,2 C 37 % 82 % 1017,3 hPa 0,0 l/m 4,8 km/h (1 Bft) N-NW 337 0,000 mm -4,8 C -2,2 C 8,0 km/h (2 Bft) 100,00 %
11.12.2019 12:02 23,2 C -2,3 C 37 % 82 % 1017,3 hPa 0,0 l/m 3,2 km/h (1 Bft) N-NW 337 0,000 mm -4,9 C -2,3 C 6,4 km/h (2 Bft) 100,00 %
11.12.2019 12:01 23,2 C -2,3 C 37 % 82 % 1017,2 hPa 0,0 l/m 3,2 km/h (1 Bft) N-NW 337 0,000 mm -4,9 C -2,3 C 4,8 km/h (1 Bft) 100,00 %
11.12.2019 12:00 23,1 C -2,4 C 37 % 82 % 1017,3 hPa 0,0 l/m 4,8 km/h (1 Bft) N-NW 337 0,000 mm -5,0 C -2,4 C 6,4 km/h (2 Bft) 100,00 %
11.12.2019 11:59 23,2 C -2,3 C 37 % 82 % 1017,2 hPa 0,0 l/m 4,8 km/h (1 Bft) N-NW 337 0,000 mm -4,9 C -2,3 C 6,4 km/h (2 Bft) 100,00 %
11.12.2019 11:58 23,1 C -2,3 C 37 % 82 % 1017,2 hPa 0,0 l/m 4,8 km/h (1 Bft) N-NW 337 0,000 mm -4,9 C -2,3 C 6,4 km/h (2 Bft) 100,00 %
11.12.2019 11:57 23,1 C -2,3 C 37 % 82 % 1017,3 hPa 0,0 l/m 4,8 km/h (1 Bft) N-NW 337 0,000 mm -4,9 C -2,3 C 6,4 km/h (2 Bft) 100,00 %
11.12.2019 11:56 23,1 C -2,3 C 37 % 82 % 1017,3 hPa 0,0 l/m 3,2 km/h (1 Bft) N-NO 22 0,000 mm -4,9 C -2,3 C 6,4 km/h (2 Bft) 100,00 %
11.12.2019 11:55 23,1 C -2,3 C 37 % 82 % 1017,3 hPa 0,0 l/m 4,8 km/h (1 Bft) N-NW 337 0,000 mm -4,9 C -2,3 C 6,4 km/h (2 Bft) 100,00 %
11.12.2019 11:54 23,1 C -2,3 C 37 % 82 % 1017,4 hPa 0,0 l/m 4,8 km/h (1 Bft) N-NO 22 0,000 mm -4,9 C -2,3 C 6,4 km/h (2 Bft) 95,65 %
11.12.2019 11:53 23,1 C -2,3 C 37 % 82 % 1017,4 hPa 0,0 l/m 6,4 km/h (2 Bft) N-NW 337 0,000 mm -4,9 C -2,3 C 8,0 km/h (2 Bft) 100,00 %
11.12.2019 11:52 23,1 C -2,3 C 37 % 82 % 1017,4 hPa 0,0 l/m 4,8 km/h (1 Bft) N-NW 337 0,000 mm -4,9 C -2,3 C 6,4 km/h (2 Bft) 95,65 %
11.12.2019 11:51 23,1 C -2,2 C 36 % 82 % 1017,4 hPa 0,0 l/m 3,2 km/h (1 Bft) N-NW 337 0,000 mm -4,8 C -2,2 C 4,8 km/h (1 Bft) 100,00 %
11.12.2019 11:50 23,0 C -2,2 C 36 % 82 % 1017,4 hPa 0,0 l/m 4,8 km/h (1 Bft) N-NW 337 0,000 mm -4,8 C -2,2 C 4,8 km/h (1 Bft) 100,00 %
11.12.2019 11:49 23,1 C -2,2 C 36 % 82 % 1017,4 hPa 0,0 l/m 4,8 km/h (1 Bft) N-NO 22 0,000 mm -4,8 C -2,2 C 6,4 km/h (2 Bft) 100,00 %
11.12.2019 11:48 23,0 C -2,2 C 36 % 82 % 1017,5 hPa 0,0 l/m 3,2 km/h (1 Bft) N-NO 22 0,000 mm -4,8 C -2,2 C 4,8 km/h (1 Bft) 100,00 %
11.12.2019 11:47 23,0 C -2,2 C 36 % 83 % 1017,5 hPa 0,0 l/m 3,2 km/h (1 Bft) N-NO 22 0,000 mm -4,7 C -2,2 C 4,8 km/h (1 Bft) 100,00 %
11.12.2019 11:46 23,0 C -2,2 C 36 % 83 % 1017,5 hPa 0,0 l/m 4,8 km/h (1 Bft) N-NO 22 0,000 mm -4,7 C -2,2 C 6,4 km/h (2 Bft) 100,00 %
11.12.2019 11:45 23,0 C -2,2 C 36 % 83 % 1017,5 hPa 0,0 l/m 1,6 km/h (1 Bft) N 360 0,000 mm -4,7 C -2,2 C 3,2 km/h (1 Bft) 100,00 %
11.12.2019 11:44 22,9 C -2,2 C 36 % 82 % 1017,5 hPa 0,0 l/m 3,2 km/h (1 Bft) N 360 0,000 mm -4,8 C -2,2 C 4,8 km/h (1 Bft) 100,00 %
11.12.2019 11:43 22,9 C -2,3 C 36 % 82 % 1017,5 hPa 0,0 l/m 1,6 km/h (1 Bft) N-NO 22 0,000 mm -4,9 C -2,3 C 4,8 km/h (1 Bft) 95,65 %
11.12.2019 11:42 22,9 C -2,3 C 36 % 82 % 1017,5 hPa 0,0 l/m 3,2 km/h (1 Bft) N 360 0,000 mm -4,9 C -2,3 C 4,8 km/h (1 Bft) 100,00 %
11.12.2019 11:41 22,9 C -2,3 C 36 % 82 % 1017,5 hPa 0,0 l/m 3,2 km/h (1 Bft) N-NO 22 0,000 mm -4,9 C -2,3 C 4,8 km/h (1 Bft) 100,00 %
11.12.2019 11:40 22,9 C -2,3 C 35 % 82 % 1017,5 hPa 0,0 l/m 4,8 km/h (1 Bft) N-NO 22 0,000 mm -4,9 C -2,3 C 6,4 km/h (2 Bft) 95,65 %
11.12.2019 11:39 22,9 C -2,4 C 35 % 82 % 1017,6 hPa 0,0 l/m 3,2 km/h (1 Bft) N-NO 22 0,000 mm -5,0 C -2,4 C 4,8 km/h (1 Bft) 100,00 %
11.12.2019 11:38 22,9 C -2,4 C 35 % 82 % 1017,6 hPa 0,0 l/m 4,8 km/h (1 Bft) N-NO 22 0,000 mm -5,0 C -2,4 C 6,4 km/h (2 Bft) 100,00 %
11.12.2019 11:37 22,9 C -2,4 C 35 % 82 % 1017,6 hPa 0,0 l/m 3,2 km/h (1 Bft) N-NO 22 0,000 mm -5,0 C -2,4 C 6,4 km/h (2 Bft) 100,00 %
11.12.2019 11:36 22,9 C -2,4 C 35 % 82 % 1017,7 hPa 0,0 l/m 3,2 km/h (1 Bft) N 360 0,000 mm -5,0 C -2,4 C 4,8 km/h (1 Bft) 95,65 %
11.12.2019 11:35 22,9 C -2,4 C 35 % 82 % 1017,7 hPa 0,0 l/m 3,2 km/h (1 Bft) N 360 0,000 mm -5,0 C -2,4 C 4,8 km/h (1 Bft) 100,00 %
11.12.2019 11:34 22,9 C -2,3 C 34 % 82 % 1017,7 hPa 0,0 l/m 3,2 km/h (1 Bft) N-NO 22 0,000 mm -4,9 C -2,3 C 4,8 km/h (1 Bft) 100,00 %
11.12.2019 11:33 22,9 C -2,3 C 34 % 82 % 1017,7 hPa 0,0 l/m 3,2 km/h (1 Bft) N 360 0,000 mm -4,9 C -2,3 C 4,8 km/h (1 Bft) 95,65 %
11.12.2019 11:32 22,9 C -2,3 C 34 % 83 % 1017,7 hPa 0,0 l/m 1,6 km/h (1 Bft) N-NO 22 0,000 mm -4,8 C -2,3 C 3,2 km/h (1 Bft) 100,00 %
11.12.2019 11:31 23,0 C -2,3 C 34 % 82 % 1017,8 hPa 0,0 l/m 1,6 km/h (1 Bft) N-NO 22 0,000 mm -4,9 C -2,3 C 3,2 km/h (1 Bft) 95,65 %
11.12.2019 11:30 23,0 C -2,4 C 34 % 83 % 1017,8 hPa 0,0 l/m 3,2 km/h (1 Bft) N-NO 22 0,000 mm -4,9 C -2,4 C 4,8 km/h (1 Bft) 100,00 %
11.12.2019 11:29 23,0 C -2,5 C 33 % 82 % 1017,8 hPa 0,0 l/m 3,2 km/h (1 Bft) N-NO 22 0,000 mm -5,1 C -2,5 C 4,8 km/h (1 Bft) 100,00 %
11.12.2019 11:28 23,1 C -2,7 C 33 % 82 % 1017,9 hPa 0,0 l/m 3,2 km/h (1 Bft) N 360 0,000 mm -5,3 C -2,7 C 4,8 km/h (1 Bft) 100,00 %
11.12.2019 11:27 23,1 C -2,7 C 33 % 82 % 1017,8 hPa 0,0 l/m 3,2 km/h (1 Bft) N-NO 22 0,000 mm -5,3 C -2,7 C 6,4 km/h (2 Bft) 100,00 %
11.12.2019 11:26 23,1 C -2,7 C 33 % 82 % 1017,9 hPa 0,0 l/m 3,2 km/h (1 Bft) N-NO 22 0,000 mm -5,3 C -2,7 C 6,4 km/h (2 Bft) 100,00 %
11.12.2019 11:25 23,2 C -2,8 C 33 % 82 % 1017,9 hPa 0,0 l/m 3,2 km/h (1 Bft) N-NO 22 0,000 mm -5,4 C -2,8 C 4,8 km/h (1 Bft) 100,00 %
11.12.2019 11:24 23,2 C -2,7 C 33 % 82 % 1017,9 hPa 0,0 l/m 3,2 km/h (1 Bft) N-NO 22 0,000 mm -5,3 C -2,7 C 4,8 km/h (1 Bft) 100,00 %
11.12.2019 11:23 23,2 C -2,6 C 33 % 82 % 1018,1 hPa 0,0 l/m 4,8 km/h (1 Bft) N-NO 22 0,000 mm -5,2 C -2,6 C 6,4 km/h (2 Bft) 100,00 %
11.12.2019 11:22 23,3 C -2,7 C 33 % 82 % 1018,1 hPa 0,0 l/m 3,2 km/h (1 Bft) N-NO 22 0,000 mm -5,3 C -2,7 C 4,8 km/h (1 Bft) 100,00 %
11.12.2019 11:21 23,3 C -2,7 C 34 % 82 % 1018,0 hPa 0,0 l/m 3,2 km/h (1 Bft) N-NO 22 0,000 mm -5,3 C -2,7 C 4,8 km/h (1 Bft) 91,30 %
11.12.2019 11:20 23,3 C -2,8 C 34 % 82 % 1018,1 hPa 0,0 l/m 3,2 km/h (1 Bft) N 360 0,000 mm -5,4 C -2,8 C 4,8 km/h (1 Bft) 100,00 %
11.12.2019 11:19 23,4 C -2,9 C 34 % 82 % 1018,1 hPa 0,0 l/m 3,2 km/h (1 Bft) N 360 0,000 mm -5,5 C -2,9 C 3,2 km/h (1 Bft) 95,65 %
11.12.2019 11:18 23,4 C -2,9 C 35 % 82 % 1018,1 hPa 0,0 l/m 3,2 km/h (1 Bft) N 360 0,000 mm -5,5 C -2,9 C 4,8 km/h (1 Bft) 100,00 %
11.12.2019 11:17 23,5 C -3,0 C 35 % 82 % 1018,2 hPa 0,0 l/m 4,8 km/h (1 Bft) N-NO 22 0,000 mm -5,6 C -3,0 C 6,4 km/h (2 Bft) 100,00 %
11.12.2019 11:16 23,5 C -2,9 C 36 % 82 % 1018,3 hPa 0,0 l/m 4,8 km/h (1 Bft) N-NO 22 0,000 mm -5,5 C -2,9 C 6,4 km/h (2 Bft) 95,65 %
11.12.2019 11:15 23,6 C -2,9 C 37 % 82 % 1018,3 hPa 0,0 l/m 4,8 km/h (1 Bft) N-NO 22 0,000 mm -5,5 C -2,9 C 6,4 km/h (2 Bft) 100,00 %
11.12.2019 11:14 23,6 C -2,9 C 38 % 82 % 1018,3 hPa 0,0 l/m 3,2 km/h (1 Bft) N-NO 22 0,000 mm -5,5 C -2,9 C 6,4 km/h (2 Bft) 100,00 %
11.12.2019 11:13 23,6 C -3,0 C 38 % 82 % 1018,4 hPa 0,0 l/m 4,8 km/h (1 Bft) N-NO 22 0,000 mm -5,6 C -3,0 C 6,4 km/h (2 Bft) 100,00 %
11.12.2019 11:12 23,6 C -3,0 C 38 % 82 % 1018,3 hPa 0,0 l/m 4,8 km/h (1 Bft) NO 45 0,000 mm -5,6 C -3,0 C 6,4 km/h (2 Bft) 95,65 %
11.12.2019 11:11 23,6 C -3,1 C 39 % 82 % 1018,4 hPa 0,0 l/m 4,8 km/h (1 Bft) N 360 0,000 mm -5,7 C -3,1 C 4,8 km/h (1 Bft) 100,00 %
11.12.2019 11:10 23,7 C -3,1 C 38 % 82 % 1018,4 hPa 0,0 l/m 3,2 km/h (1 Bft) N-NW 337 0,000 mm -5,7 C -3,1 C 4,8 km/h (1 Bft) 100,00 %
11.12.2019 11:09 23,7 C -3,1 C 39 % 82 % 1018,5 hPa 0,0 l/m 3,2 km/h (1 Bft) N-NO 22 0,000 mm -5,7 C -3,1 C 4,8 km/h (1 Bft) 100,00 %
11.12.2019 11:08 23,7 C -3,1 C 40 % 82 % 1018,5 hPa 0,0 l/m 4,8 km/h (1 Bft) N-NW 337 0,000 mm -5,7 C -3,1 C 4,8 km/h (1 Bft) 100,00 %
11.12.2019 11:07 23,7 C -3,1 C 40 % 82 % 1018,5 hPa 0,0 l/m 3,2 km/h (1 Bft) N-NO 22 0,000 mm -5,7 C -3,1 C 3,2 km/h (1 Bft) 100,00 %
11.12.2019 11:06 23,7 C -3,1 C 39 % 82 % 1018,6 hPa 0,0 l/m 3,2 km/h (1 Bft) N-NO 22 0,000 mm -5,7 C -3,1 C 3,2 km/h (1 Bft) 100,00 %
11.12.2019 11:05 23,8 C -3,2 C 41 % 82 % 1018,6 hPa 0,0 l/m 4,8 km/h (1 Bft) N-NO 22 0,000 mm -5,8 C -3,2 C 4,8 km/h (1 Bft) 100,00 %
11.12.2019 11:04 23,8 C -3,2 C 42 % 82 % 1018,6 hPa 0,0 l/m 4,8 km/h (1 Bft) N-NO 22 0,000 mm -5,8 C -3,2 C 4,8 km/h (1 Bft) 100,00 %
11.12.2019 11:03 23,8 C -3,2 C 44 % 82 % 1018,6 hPa 0,0 l/m 4,8 km/h (1 Bft) N-NO 22 0,000 mm -5,8 C -3,2 C 6,4 km/h (2 Bft) 100,00 %
11.12.2019 11:02 23,8 C -3,2 C 45 % 82 % 1018,7 hPa 0,0 l/m 4,8 km/h (1 Bft) N-NO 22 0,000 mm -5,8 C -3,2 C 6,4 km/h (2 Bft) 100,00 %
11.12.2019 11:01 23,8 C -3,2 C 45 % 82 % 1018,7 hPa 0,0 l/m 4,8 km/h (1 Bft) N-NO 22 0,000 mm -5,8 C -3,2 C 6,4 km/h (2 Bft) 100,00 %
11.12.2019 11:00 23,8 C -3,2 C 45 % 82 % 1018,7 hPa 0,0 l/m 3,2 km/h (1 Bft) N-NO 22 0,000 mm -5,8 C -3,2 C 4,8 km/h (1 Bft) 100,00 %
11.12.2019 10:59 23,8 C -3,2 C 45 % 82 % 1018,7 hPa 0,0 l/m 4,8 km/h (1 Bft) N-NO 22 0,000 mm -5,8 C -3,2 C 6,4 km/h (2 Bft) 100,00 %
11.12.2019 10:58 23,8 C -3,2 C 45 % 82 % 1018,7 hPa 0,0 l/m 4,8 km/h (1 Bft) NO 45 0,000 mm -5,8 C -3,2 C 6,4 km/h (2 Bft) 100,00 %
11.12.2019 10:57 23,8 C -3,2 C 45 % 82 % 1018,8 hPa 0,0 l/m 4,8 km/h (1 Bft) N-NO 22 0,000 mm -5,8 C -3,2 C 6,4 km/h (2 Bft) 100,00 %
11.12.2019 10:56 23,8 C -3,1 C 45 % 82 % 1018,8 hPa 0,0 l/m 3,2 km/h (1 Bft) N-NO 22 0,000 mm -5,7 C -3,1 C 6,4 km/h (2 Bft) 100,00 %
11.12.2019 10:55 23,8 C -3,2 C 45 % 82 % 1018,8 hPa 0,0 l/m 3,2 km/h (1 Bft) N-NO 22 0,000 mm -5,8 C -3,2 C 4,8 km/h (1 Bft) 100,00 %
11.12.2019 10:54 23,8 C -3,2 C 45 % 82 % 1018,9 hPa 0,0 l/m 4,8 km/h (1 Bft) N-NO 22 0,000 mm -5,8 C -3,2 C 4,8 km/h (1 Bft) 100,00 %
11.12.2019 10:53 23,8 C -3,2 C 45 % 82 % 1018,9 hPa 0,0 l/m 3,2 km/h (1 Bft) N 360 0,000 mm -5,8 C -3,2 C 6,4 km/h (2 Bft) 100,00 %
11.12.2019 10:52 23,8 C -3,3 C 45 % 82 % 1018,9 hPa 0,0 l/m 3,2 km/h (1 Bft) N-NO 22 0,000 mm -5,9 C -3,3 C 6,4 km/h (2 Bft) 95,65 %
11.12.2019 10:51 23,8 C -3,4 C 45 % 82 % 1018,9 hPa 0,0 l/m 4,8 km/h (1 Bft) N-NO 22 0,000 mm -6,0 C -3,4 C 6,4 km/h (2 Bft) 100,00 %
11.12.2019 10:50 23,8 C -3,4 C 45 % 82 % 1018,9 hPa 0,0 l/m 3,2 km/h (1 Bft) N 360 0,000 mm -6,0 C -3,4 C 4,8 km/h (1 Bft) 95,65 %
11.12.2019 10:49 23,8 C -3,5 C 45 % 82 % 1019,0 hPa 0,0 l/m 4,8 km/h (1 Bft) N 360 0,000 mm -6,1 C -3,5 C 4,8 km/h (1 Bft) 100,00 %
11.12.2019 10:48 23,8 C -3,4 C 45 % 82 % 1019,0 hPa 0,0 l/m 4,8 km/h (1 Bft) N 360 0,000 mm -6,0 C -3,4 C 6,4 km/h (2 Bft) 95,65 %
11.12.2019 10:47 23,8 C -3,5 C 45 % 82 % 1019,0 hPa 0,0 l/m 3,2 km/h (1 Bft) N-NO 22 0,000 mm -6,1 C -3,5 C 4,8 km/h (1 Bft) 100,00 %
11.12.2019 10:46 23,8 C -3,6 C 45 % 82 % 1019,0 hPa 0,0 l/m 3,2 km/h (1 Bft) N-NO 22 0,000 mm -6,2 C -3,6 C 4,8 km/h (1 Bft) 100,00 %
11.12.2019 10:45 23,8 C -3,7 C 45 % 82 % 1019,1 hPa 0,0 l/m 3,2 km/h (1 Bft) N 360 0,000 mm -6,3 C -3,7 C 4,8 km/h (1 Bft) 100,00 %
11.12.2019 10:44 23,8 C -3,7 C 45 % 82 % 1019,2 hPa 0,0 l/m 3,2 km/h (1 Bft) N 360 0,000 mm -6,3 C -3,7 C 4,8 km/h (1 Bft) 100,00 %
11.12.2019 10:43 23,8 C -3,7 C 45 % 82 % 1019,2 hPa 0,0 l/m 4,8 km/h (1 Bft) N-NW 337 0,000 mm -6,3 C -3,7 C 6,4 km/h (2 Bft) 95,65 %
11.12.2019 10:42 23,8 C -3,7 C 45 % 82 % 1019,2 hPa 0,0 l/m 4,8 km/h (1 Bft) N 360 0,000 mm -6,3 C -3,7 C 6,4 km/h (2 Bft) 95,65 %
11.12.2019 10:41 23,8 C -3,6 C 45 % 82 % 1019,2 hPa 0,0 l/m 3,2 km/h (1 Bft) N 360 0,000 mm -6,2 C -3,6 C 3,2 km/h (1 Bft) 100,00 %
11.12.2019 10:40 23,8 C -3,7 C 45 % 83 % 1019,2 hPa 0,0 l/m 3,2 km/h (1 Bft) N 360 0,000 mm -6,2 C -3,7 C 4,8 km/h (1 Bft) 95,65 %
11.12.2019 10:39 23,8 C -3,7 C 45 % 82 % 1019,2 hPa 0,0 l/m 3,2 km/h (1 Bft) N-NO 22 0,000 mm -6,3 C -3,7 C 6,4 km/h (2 Bft) 100,00 %
11.12.2019 10:38 23,8 C -3,8 C 45 % 82 % 1019,3 hPa 0,0 l/m 3,2 km/h (1 Bft) N-NO 22 0,000 mm -6,4 C -3,8 C 6,4 km/h (2 Bft) 100,00 %
11.12.2019 10:37 23,8 C -3,9 C 45 % 82 % 1019,3 hPa 0,0 l/m 3,2 km/h (1 Bft) N-NO 22 0,000 mm -6,5 C -3,9 C 3,2 km/h (1 Bft) 100,00 %
11.12.2019 10:36 23,8 C -4,0 C 45 % 82 % 1019,4 hPa 0,0 l/m 3,2 km/h (1 Bft) N-NO 22 0,000 mm -6,6 C -4,0 C 3,2 km/h (1 Bft) 100,00 %
11.12.2019 10:35 23,8 C -4,1 C 45 % 82 % 1019,4 hPa 0,0 l/m 3,2 km/h (1 Bft) N-NO 22 0,000 mm -6,7 C -4,1 C 3,2 km/h (1 Bft) 95,65 %
11.12.2019 10:34 23,8 C -4,1 C 45 % 82 % 1019,4 hPa 0,0 l/m 4,8 km/h (1 Bft) N-NO 22 0,000 mm -6,7 C -4,1 C 6,4 km/h (2 Bft) 100,00 %
11.12.2019 10:33 23,8 C -4,2 C 45 % 82 % 1019,5 hPa 0,0 l/m 3,2 km/h (1 Bft) N-NO 22 0,000 mm -6,8 C -4,2 C 4,8 km/h (1 Bft) 95,65 %
11.12.2019 10:32 23,8 C -4,2 C 45 % 82 % 1019,5 hPa 0,0 l/m 3,2 km/h (1 Bft) NO 45 0,000 mm -6,8 C -4,2 C 4,8 km/h (1 Bft) 100,00 %
11.12.2019 10:31 23,8 C -4,2 C 45 % 82 % 1019,5 hPa 0,0 l/m 3,2 km/h (1 Bft) O-NO 67 0,000 mm -6,8 C -4,2 C 4,8 km/h (1 Bft) 95,65 %
11.12.2019 10:30 23,8 C -4,2 C 45 % 82 % 1019,4 hPa 0,0 l/m 1,6 km/h (1 Bft) O-NO 67 0,000 mm -6,8 C -4,2 C 3,2 km/h (1 Bft) 95,65 %
11.12.2019 10:29 23,8 C -4,2 C 46 % 82 % 1019,4 hPa 0,0 l/m 3,2 km/h (1 Bft) O-NO 67 0,000 mm -6,8 C -4,2 C 4,8 km/h (1 Bft) 100,00 %
11.12.2019 10:28 23,7 C -4,1 C 46 % 82 % 1019,4 hPa 0,0 l/m 4,8 km/h (1 Bft) O-NO 67 0,000 mm -6,7 C -4,1 C 6,4 km/h (2 Bft) 100,00 %
11.12.2019 10:27 23,8 C -4,1 C 46 % 82 % 1019,4 hPa 0,0 l/m 4,8 km/h (1 Bft) O-NO 67 0,000 mm -6,7 C -4,1 C 4,8 km/h (1 Bft) 100,00 %
11.12.2019 10:26 23,7 C -4,0 C 46 % 82 % 1019,4 hPa 0,0 l/m 4,8 km/h (1 Bft) O-NO 67 0,000 mm -6,6 C -4,0 C 4,8 km/h (1 Bft) 100,00 %
11.12.2019 10:25 23,7 C -3,9 C 45 % 82 % 1019,5 hPa 0,0 l/m 4,8 km/h (1 Bft) O-NO 67 0,000 mm -6,5 C -3,9 C 6,4 km/h (2 Bft) 100,00 %
11.12.2019 10:24 23,7 C -3,9 C 45 % 82 % 1019,5 hPa 0,0 l/m 3,2 km/h (1 Bft) O-NO 67 0,000 mm -6,5 C -3,9 C 6,4 km/h (2 Bft) 100,00 %
11.12.2019 10:23 23,7 C -4,1 C 45 % 82 % 1019,5 hPa 0,0 l/m 3,2 km/h (1 Bft) N-NO 22 0,000 mm -6,7 C -4,1 C 4,8 km/h (1 Bft) 100,00 %
11.12.2019 10:22 23,7 C -4,1 C 45 % 82 % 1019,5 hPa 0,0 l/m 3,2 km/h (1 Bft) N-NO 22 0,000 mm -6,7 C -4,1 C 4,8 km/h (1 Bft) 100,00 %
11.12.2019 10:21 23,7 C -4,1 C 45 % 82 % 1019,6 hPa 0,0 l/m 3,2 km/h (1 Bft) N-NO 22 0,000 mm -6,7 C -4,1 C 4,8 km/h (1 Bft) 100,00 %
11.12.2019 10:20 23,7 C -4,1 C 45 % 82 % 1019,6 hPa 0,0 l/m 4,8 km/h (1 Bft) N-NO 22 0,000 mm -6,7 C -4,1 C 4,8 km/h (1 Bft) 100,00 %
11.12.2019 10:19 23,7 C -4,0 C 45 % 82 % 1019,5 hPa 0,0 l/m 4,8 km/h (1 Bft) N-NO 22 0,000 mm -6,6 C -4,0 C 6,4 km/h (2 Bft) 100,00 %
11.12.2019 10:18 23,7 C -4,0 C 45 % 82 % 1019,5 hPa 0,0 l/m 3,2 km/h (1 Bft) N-NO 22 0,000 mm -6,6 C -4,0 C 6,4 km/h (2 Bft) 95,65 %
11.12.2019 10:17 23,7 C -3,9 C 45 % 82 % 1019,6 hPa 0,0 l/m 3,2 km/h (1 Bft) N-NO 22 0,000 mm -6,5 C -3,9 C 4,8 km/h (1 Bft) 100,00 %
11.12.2019 10:16 23,7 C -3,9 C 45 % 82 % 1019,6 hPa 0,0 l/m 4,8 km/h (1 Bft) N-NO 22 0,000 mm -6,5 C -3,9 C 6,4 km/h (2 Bft) 100,00 %
11.12.2019 10:15 23,7 C -3,9 C 45 % 82 % 1019,6 hPa 0,0 l/m 3,2 km/h (1 Bft) NO 45 0,000 mm -6,5 C -3,9 C 6,4 km/h (2 Bft) 100,00 %
11.12.2019 10:14 23,7 C -3,9 C 45 % 82 % 1019,6 hPa 0,0 l/m 3,2 km/h (1 Bft) NO 45 0,000 mm -6,5 C -3,9 C 4,8 km/h (1 Bft) 100,00 %
11.12.2019 10:13 23,7 C -3,9 C 45 % 82 % 1019,7 hPa 0,0 l/m 1,6 km/h (1 Bft) N-NO 22 0,000 mm -6,5 C -3,9 C 3,2 km/h (1 Bft) 95,65 %
11.12.2019 10:12 23,6 C -4,0 C 45 % 82 % 1019,7 hPa 0,0 l/m 4,8 km/h (1 Bft) N-NO 22 0,000 mm -6,6 C -4,0 C 4,8 km/h (1 Bft) 100,00 %
11.12.2019 10:11 23,6 C -4,0 C 45 % 82 % 1019,7 hPa 0,0 l/m 1,6 km/h (1 Bft) N-NO 22 0,000 mm -6,6 C -4,0 C 4,8 km/h (1 Bft) 100,00 %
11.12.2019 10:10 23,6 C -4,1 C 45 % 82 % 1019,6 hPa 0,0 l/m 3,2 km/h (1 Bft) N-NO 22 0,000 mm -6,7 C -4,1 C 4,8 km/h (1 Bft) 100,00 %
11.12.2019 10:09 23,6 C -4,1 C 45 % 82 % 1019,6 hPa 0,0 l/m 3,2 km/h (1 Bft) N-NW 337 0,000 mm -6,7 C -4,1 C 4,8 km/h (1 Bft) 100,00 %
11.12.2019 10:08 23,6 C -4,1 C 45 % 82 % 1019,6 hPa 0,0 l/m 3,2 km/h (1 Bft) N 360 0,000 mm -6,7 C -4,1 C 4,8 km/h (1 Bft) 100,00 %
11.12.2019 10:07 23,6 C -4,1 C 45 % 82 % 1019,6 hPa 0,0 l/m 1,6 km/h (1 Bft) N 360 0,000 mm -6,7 C -4,1 C 3,2 km/h (1 Bft) 100,00 %
11.12.2019 10:06 23,6 C -4,2 C 45 % 82 % 1019,6 hPa 0,0 l/m 3,2 km/h (1 Bft) N-NW 337 0,000 mm -6,8 C -4,2 C 6,4 km/h (2 Bft) 100,00 %
11.12.2019 10:05 23,6 C -4,2 C 45 % 82 % 1019,6 hPa 0,0 l/m 3,2 km/h (1 Bft) N 360 0,000 mm -6,8 C -4,2 C 4,8 km/h (1 Bft) 100,00 %
11.12.2019 10:04 23,6 C -4,2 C 45 % 82 % 1019,7 hPa 0,0 l/m 3,2 km/h (1 Bft) N-NW 337 0,000 mm -6,8 C -4,2 C 3,2 km/h (1 Bft) 95,65 %
11.12.2019 10:03 23,6 C -4,3 C 45 % 82 % 1019,8 hPa 0,0 l/m 3,2 km/h (1 Bft) N-NW 337 0,000 mm -6,9 C -4,3 C 6,4 km/h (2 Bft) 100,00 %
11.12.2019 10:02 23,6 C -4,2 C 45 % 82 % 1019,8 hPa 0,0 l/m 3,2 km/h (1 Bft) N-NW 337 0,000 mm -6,8 C -4,2 C 3,2 km/h (1 Bft) 100,00 %
11.12.2019 10:01 23,6 C -4,3 C 45 % 82 % 1019,8 hPa 0,0 l/m 3,2 km/h (1 Bft) N-NW 337 0,000 mm -6,9 C -4,3 C 4,8 km/h (1 Bft) 95,65 %
11.12.2019 10:00 23,6 C -4,3 C 45 % 82 % 1019,8 hPa 0,0 l/m 3,2 km/h (1 Bft) N 360 0,000 mm -6,9 C -4,3 C 4,8 km/h (1 Bft) 100,00 %
11.12.2019 09:59 23,6 C -4,4 C 45 % 82 % 1019,8 hPa 0,0 l/m 3,2 km/h (1 Bft) N 360 0,000 mm -7,0 C -4,4 C 4,8 km/h (1 Bft) 91,30 %
11.12.2019 09:58 23,6 C -4,4 C 45 % 82 % 1019,8 hPa 0,0 l/m 1,6 km/h (1 Bft) N-NO 22 0,000 mm -7,0 C -4,4 C 3,2 km/h (1 Bft) 100,00 %
11.12.2019 09:57 23,6 C -4,6 C 45 % 82 % 1019,8 hPa 0,0 l/m 4,8 km/h (1 Bft) N-NO 22 0,000 mm -7,2 C -4,6 C 8,0 km/h (2 Bft) 95,65 %
11.12.2019 09:56 23,6 C -4,6 C 45 % 82 % 1019,7 hPa 0,0 l/m 4,8 km/h (1 Bft) N-NO 22 0,000 mm -7,2 C -4,6 C 6,4 km/h (2 Bft) 100,00 %
11.12.2019 09:55 23,6 C -4,6 C 45 % 82 % 1019,8 hPa 0,0 l/m 3,2 km/h (1 Bft) N-NO 22 0,000 mm -7,2 C -4,6 C 6,4 km/h (2 Bft) 100,00 %
11.12.2019 09:54 23,5 C -4,7 C 45 % 82 % 1019,8 hPa 0,0 l/m 3,2 km/h (1 Bft) N 360 0,000 mm -7,3 C -4,7 C 4,8 km/h (1 Bft) 95,65 %
11.12.2019 09:53 23,5 C -4,7 C 45 % 82 % 1019,8 hPa 0,0 l/m 4,8 km/h (1 Bft) N-NO 22 0,000 mm -7,3 C -4,7 C 6,4 km/h (2 Bft) 100,00 %
11.12.2019 09:52 23,6 C -4,8 C 45 % 82 % 1019,7 hPa 0,0 l/m 3,2 km/h (1 Bft) N-NO 22 0,000 mm -7,4 C -4,8 C 6,4 km/h (2 Bft) 100,00 %
11.12.2019 09:51 23,5 C -4,8 C 45 % 82 % 1019,8 hPa 0,0 l/m 3,2 km/h (1 Bft) N-NO 22 0,000 mm -7,4 C -4,8 C 4,8 km/h (1 Bft) 100,00 %
11.12.2019 09:50 23,5 C -4,8 C 45 % 82 % 1019,7 hPa 0,0 l/m 3,2 km/h (1 Bft) N-NO 22 0,000 mm -7,4 C -4,8 C 4,8 km/h (1 Bft) 100,00 %
11.12.2019 09:49 23,5 C -4,9 C 45 % 82 % 1019,7 hPa 0,0 l/m 3,2 km/h (1 Bft) N 360 0,000 mm -7,5 C -4,9 C 4,8 km/h (1 Bft) 91,30 %
11.12.2019 09:48 23,5 C -4,9 C 45 % 82 % 1019,9 hPa 0,0 l/m 3,2 km/h (1 Bft) N-NO 22 0,000 mm -7,5 C -4,9 C 4,8 km/h (1 Bft) 100,00 %
11.12.2019 09:47 23,5 C -4,9 C 45 % 82 % 1019,7 hPa 0,0 l/m 3,2 km/h (1 Bft) N-NO 22 0,000 mm -7,5 C -4,9 C 4,8 km/h (1 Bft) 100,00 %
11.12.2019 09:46 23,5 C -4,9 C 45 % 82 % 1019,8 hPa 0,0 l/m 3,2 km/h (1 Bft) N-NO 22 0,000 mm -7,5 C -4,9 C 6,4 km/h (2 Bft) 100,00 %
11.12.2019 09:45 23,5 C -4,9 C 45 % 82 % 1019,8 hPa 0,0 l/m 1,6 km/h (1 Bft) N-NO 22 0,000 mm -7,5 C -4,9 C 3,2 km/h (1 Bft) 100,00 %
11.12.2019 09:44 23,5 C -5,0 C 46 % 82 % 1019,8 hPa 0,0 l/m 3,2 km/h (1 Bft) N-NO 22 0,000 mm -7,6 C -5,0 C 4,8 km/h (1 Bft) 95,65 %
11.12.2019 09:43 23,5 C -4,9 C 46 % 82 % 1019,8 hPa 0,0 l/m 3,2 km/h (1 Bft) N-NO 22 0,000 mm -7,5 C -4,9 C 4,8 km/h (1 Bft) 100,00 %
11.12.2019 09:42 23,5 C -5,0 C 46 % 82 % 1019,8 hPa 0,0 l/m 1,6 km/h (1 Bft) N-NO 22 0,000 mm -7,6 C -5,0 C 3,2 km/h (1 Bft) 100,00 %
11.12.2019 09:41 23,5 C -5,1 C 46 % 82 % 1019,8 hPa 0,0 l/m 3,2 km/h (1 Bft) N-NO 22 0,000 mm -7,7 C -5,1 C 4,8 km/h (1 Bft) 100,00 %
11.12.2019 09:40 23,5 C -5,1 C 46 % 82 % 1019,9 hPa 0,0 l/m 3,2 km/h (1 Bft) N 360 0,000 mm -7,7 C -5,1 C 4,8 km/h (1 Bft) 95,65 %
11.12.2019 09:39 23,5 C -5,1 C 46 % 82 % 1019,9 hPa 0,0 l/m 3,2 km/h (1 Bft) N-NO 22 0,000 mm -7,7 C -5,1 C 3,2 km/h (1 Bft) 100,00 %
11.12.2019 09:38 23,5 C -5,2 C 46 % 82 % 1019,9 hPa 0,0 l/m 3,2 km/h (1 Bft) N 360 0,000 mm -7,8 C -5,2 C 3,2 km/h (1 Bft) 95,65 %
11.12.2019 09:37 23,5 C -5,2 C 46 % 82 % 1019,8 hPa 0,0 l/m 3,2 km/h (1 Bft) N 360 0,000 mm -7,8 C -5,2 C 3,2 km/h (1 Bft) 100,00 %
11.12.2019 09:36 23,5 C -5,2 C 46 % 82 % 1019,8 hPa 0,0 l/m 3,2 km/h (1 Bft) N-NW 337 0,000 mm -7,8 C -5,2 C 4,8 km/h (1 Bft) 100,00 %
11.12.2019 09:35 23,5 C -5,3 C 46 % 82 % 1019,9 hPa 0,0 l/m 3,2 km/h (1 Bft) N-NW 337 0,000 mm -7,9 C -5,3 C 4,8 km/h (1 Bft) 95,65 %
11.12.2019 09:34 23,4 C -5,3 C 46 % 82 % 1019,9 hPa 0,0 l/m 3,2 km/h (1 Bft) N-NW 337 0,000 mm -7,9 C -5,3 C 4,8 km/h (1 Bft) 100,00 %
11.12.2019 09:33 23,5 C -5,3 C 46 % 82 % 1019,9 hPa 0,0 l/m 3,2 km/h (1 Bft) N-NW 337 0,000 mm -7,9 C -5,3 C 4,8 km/h (1 Bft) 100,00 %
11.12.2019 09:32 23,5 C -5,3 C 46 % 82 % 1019,9 hPa 0,0 l/m 3,2 km/h (1 Bft) N-NW 337 0,000 mm -7,9 C -5,3 C 4,8 km/h (1 Bft) 100,00 %
11.12.2019 09:31 23,4 C -5,4 C 46 % 82 % 1020,0 hPa 0,0 l/m 3,2 km/h (1 Bft) N-NW 337 0,000 mm -8,0 C -5,4 C 4,8 km/h (1 Bft) 100,00 %
11.12.2019 09:30 23,4 C -5,3 C 46 % 82 % 1020,0 hPa 0,0 l/m 4,8 km/h (1 Bft) N-NW 337 0,000 mm -7,9 C -5,3 C 4,8 km/h (1 Bft) 100,00 %
11.12.2019 09:29 23,4 C -5,3 C 46 % 82 % 1020,0 hPa 0,0 l/m 3,2 km/h (1 Bft) N-NW 337 0,000 mm -7,9 C -5,3 C 4,8 km/h (1 Bft) 100,00 %
11.12.2019 09:28 23,4 C -5,3 C 46 % 82 % 1020,0 hPa 0,0 l/m 3,2 km/h (1 Bft) N-NW 337 0,000 mm -7,9 C -5,3 C 4,8 km/h (1 Bft) 100,00 %
11.12.2019 09:27 23,4 C -5,4 C 46 % 82 % 1020,0 hPa 0,0 l/m 3,2 km/h (1 Bft) N 360 0,000 mm -8,0 C -5,4 C 4,8 km/h (1 Bft) 100,00 %
11.12.2019 09:26 23,4 C -5,4 C 46 % 82 % 1020,0 hPa 0,0 l/m 3,2 km/h (1 Bft) N-NW 337 0,000 mm -8,0 C -5,4 C 4,8 km/h (1 Bft) 91,30 %
11.12.2019 09:25 23,4 C -5,4 C 46 % 82 % 1020,1 hPa 0,0 l/m 3,2 km/h (1 Bft) N-NW 337 0,000 mm -8,0 C -5,4 C 4,8 km/h (1 Bft) 95,65 %
11.12.2019 09:24 23,4 C -5,4 C 46 % 82 % 1020,1 hPa 0,0 l/m 3,2 km/h (1 Bft) N-NW 337 0,000 mm -8,0 C -5,4 C 6,4 km/h (2 Bft) 100,00 %
11.12.2019 09:23 23,4 C -5,4 C 46 % 82 % 1020,1 hPa 0,0 l/m 3,2 km/h (1 Bft) N-NW 337 0,000 mm -8,0 C -5,4 C 4,8 km/h (1 Bft) 95,65 %
11.12.2019 09:22 23,4 C -5,4 C 46 % 82 % 1020,1 hPa 0,0 l/m 3,2 km/h (1 Bft) N-NW 337 0,000 mm -8,0 C -5,4 C 3,2 km/h (1 Bft) 100,00 %
11.12.2019 09:21 23,3 C -5,4 C 46 % 82 % 1020,1 hPa 0,0 l/m 3,2 km/h (1 Bft) N-NW 337 0,000 mm -8,0 C -5,4 C 3,2 km/h (1 Bft) 100,00 %
11.12.2019 09:20 23,4 C -5,4 C 46 % 82 % 1020,0 hPa 0,0 l/m 3,2 km/h (1 Bft) N-NW 337 0,000 mm -8,0 C -5,4 C 4,8 km/h (1 Bft) 95,65 %
11.12.2019 09:19 23,3 C -5,4 C 46 % 82 % 1020,1 hPa 0,0 l/m 3,2 km/h (1 Bft) N-NW 337 0,000 mm -8,0 C -5,4 C 6,4 km/h (2 Bft) 100,00 %
11.12.2019 09:18 23,4 C -5,4 C 46 % 82 % 1020,2 hPa 0,0 l/m 3,2 km/h (1 Bft) N-NW 337 0,000 mm -8,0 C -5,4 C 4,8 km/h (1 Bft) 100,00 %
11.12.2019 09:17 23,3 C -5,4 C 46 % 82 % 1020,2 hPa 0,0 l/m 3,2 km/h (1 Bft) N 360 0,000 mm -8,0 C -5,4 C 4,8 km/h (1 Bft) 100,00 %
11.12.2019 09:16 23,3 C -5,4 C 46 % 82 % 1020,2 hPa 0,0 l/m 0,0 km/h (0 Bft) N 360 0,000 mm -8,0 C -5,4 C 3,2 km/h (1 Bft) 100,00 %
11.12.2019 09:15 23,3 C -5,3 C 46 % 82 % 1020,2 hPa 0,0 l/m 0,0 km/h (0 Bft) N 0 0,000 mm -7,9 C -5,3 C 0,0 km/h (0 Bft) 100,00 %
11.12.2019 09:14 23,3 C -5,3 C 46 % 82 % 1020,1 hPa 0,0 l/m 0,0 km/h (0 Bft) N 0 0,000 mm -7,9 C -5,3 C 0,0 km/h (0 Bft) 95,65 %
11.12.2019 09:13 23,3 C -5,3 C 46 % 82 % 1020,2 hPa 0,0 l/m 0,0 km/h (0 Bft) N 0 0,000 mm -7,9 C -5,3 C 0,0 km/h (0 Bft) 100,00 %
11.12.2019 09:12 23,3 C -5,4 C 46 % 82 % 1020,2 hPa 0,0 l/m 0,0 km/h (0 Bft) N 0 0,000 mm -8,0 C -5,4 C 0,0 km/h (0 Bft) 100,00 %
11.12.2019 09:11 23,3 C -5,5 C 46 % 82 % 1020,3 hPa 0,0 l/m 0,0 km/h (0 Bft) N 0 0,000 mm -8,1 C -5,5 C 0,0 km/h (0 Bft) 100,00 %
11.12.2019 09:10 23,3 C -5,6 C 46 % 82 % 1020,3 hPa 0,0 l/m 0,0 km/h (0 Bft) N-NO 22 0,000 mm -8,2 C -5,6 C 1,6 km/h (1 Bft) 100,00 %
11.12.2019 09:09 23,3 C -5,6 C 46 % 82 % 1020,3 hPa 0,0 l/m 1,6 km/h (1 Bft) N-NO 22 0,000 mm -8,2 C -5,6 C 3,2 km/h (1 Bft) 100,00 %
11.12.2019 09:08 23,3 C -5,6 C 46 % 82 % 1020,4 hPa 0,0 l/m 1,6 km/h (1 Bft) N-NO 22 0,000 mm -8,2 C -5,6 C 3,2 km/h (1 Bft) 100,00 %
11.12.2019 09:07 23,3 C -5,6 C 46 % 82 % 1020,5 hPa 0,0 l/m 1,6 km/h (1 Bft) N-NO 22 0,000 mm -8,2 C -5,6 C 3,2 km/h (1 Bft) 100,00 %
11.12.2019 09:06 23,3 C -5,6 C 46 % 82 % 1020,4 hPa 0,0 l/m 1,6 km/h (1 Bft) N-NO 22 0,000 mm -8,2 C -5,6 C 3,2 km/h (1 Bft) 100,00 %
11.12.2019 09:05 23,3 C -5,6 C 46 % 82 % 1020,4 hPa 0,0 l/m 1,6 km/h (1 Bft) N-NO 22 0,000 mm -8,2 C -5,6 C 3,2 km/h (1 Bft) 100,00 %
11.12.2019 09:04 23,2 C -5,7 C 46 % 82 % 1020,5 hPa 0,0 l/m 1,6 km/h (1 Bft) N-NO 22 0,000 mm -8,3 C -5,7 C 1,6 km/h (1 Bft) 100,00 %
11.12.2019 09:03 23,2 C -5,7 C 46 % 82 % 1020,4 hPa 0,0 l/m 1,6 km/h (1 Bft) N-NO 22 0,000 mm -8,3 C -5,7 C 3,2 km/h (1 Bft) 100,00 %
11.12.2019 09:02 23,2 C -5,8 C 46 % 82 % 1020,4 hPa 0,0 l/m 1,6 km/h (1 Bft) N-NO 22 0,000 mm -8,4 C -5,8 C 3,2 km/h (1 Bft) 100,00 %
11.12.2019 09:01 23,2 C -5,9 C 46 % 82 % 1020,4 hPa 0,0 l/m 1,6 km/h (1 Bft) N-NO 22 0,000 mm -8,5 C -5,9 C 3,2 km/h (1 Bft) 100,00 %
11.12.2019 09:00 23,2 C -5,9 C 46 % 82 % 1020,4 hPa 0,0 l/m 0,0 km/h (0 Bft) N-NO 22 0,000 mm -8,5 C -5,9 C 1,6 km/h (1 Bft) 100,00 %
11.12.2019 08:59 23,2 C -5,9 C 46 % 82 % 1020,4 hPa 0,0 l/m 0,0 km/h (0 Bft) N-NO 22 0,000 mm -8,5 C -5,9 C 1,6 km/h (1 Bft) 100,00 %
11.12.2019 08:58 23,2 C -6,0 C 46 % 82 % 1020,4 hPa 0,0 l/m 1,6 km/h (1 Bft) N-NO 22 0,000 mm -8,6 C -6,0 C 3,2 km/h (1 Bft) 100,00 %
11.12.2019 08:57 23,2 C -6,0 C 46 % 82 % 1020,4 hPa 0,0 l/m 1,6 km/h (1 Bft) N-NO 22 0,000 mm -8,6 C -6,0 C 1,6 km/h (1 Bft) 95,65 %
11.12.2019 08:56 23,2 C -6,1 C 46 % 82 % 1020,4 hPa 0,0 l/m 1,6 km/h (1 Bft) N-NO 22 0,000 mm -8,7 C -6,1 C 3,2 km/h (1 Bft) 100,00 %
11.12.2019 08:55 23,2 C -6,1 C 45 % 82 % 1020,4 hPa 0,0 l/m 1,6 km/h (1 Bft) N-NO 22 0,000 mm -8,7 C -6,1 C 3,2 km/h (1 Bft) 100,00 %
11.12.2019 08:54 23,2 C -6,1 C 45 % 82 % 1020,4 hPa 0,0 l/m 1,6 km/h (1 Bft) N-NO 22 0,000 mm -8,7 C -6,1 C 3,2 km/h (1 Bft) 100,00 %
11.12.2019 08:53 23,1 C -6,1 C 45 % 82 % 1020,5 hPa 0,0 l/m 1,6 km/h (1 Bft) N-NO 22 0,000 mm -8,7 C -6,1 C 3,2 km/h (1 Bft) 100,00 %
11.12.2019 08:52 23,2 C -6,1 C 45 % 82 % 1020,4 hPa 0,0 l/m 3,2 km/h (1 Bft) N-NO 22 0,000 mm -8,7 C -6,1 C 3,2 km/h (1 Bft) 100,00 %
11.12.2019 08:51 23,2 C -6,1 C 45 % 82 % 1020,4 hPa 0,0 l/m 1,6 km/h (1 Bft) N-NO 22 0,000 mm -8,7 C -6,1 C 3,2 km/h (1 Bft) 100,00 %
11.12.2019 08:50 23,2 C -6,1 C 45 % 82 % 1020,5 hPa 0,0 l/m 1,6 km/h (1 Bft) N-NO 22 0,000 mm -8,7 C -6,1 C 1,6 km/h (1 Bft) 100,00 %
11.12.2019 08:49 23,1 C -6,1 C 45 % 82 % 1020,5 hPa 0,0 l/m 1,6 km/h (1 Bft) N-NO 22 0,000 mm -8,7 C -6,1 C 1,6 km/h (1 Bft) 100,00 %
11.12.2019 08:48 23,1 C -6,1 C 45 % 82 % 1020,9 hPa 0,0 l/m 1,6 km/h (1 Bft) N-NO 22 0,000 mm -8,7 C -6,1 C 3,2 km/h (1 Bft) 100,00 %
11.12.2019 08:47 23,1 C -6,1 C 45 % 82 % 1020,4 hPa 0,0 l/m 3,2 km/h (1 Bft) N-NO 22 0,000 mm -8,7 C -6,1 C 4,8 km/h (1 Bft) 100,00 %
11.12.2019 08:46 23,1 C -6,1 C 45 % 82 % 1020,4 hPa 0,0 l/m 3,2 km/h (1 Bft) N-NO 22 0,000 mm -8,7 C -6,1 C 4,8 km/h (1 Bft) 100,00 %
11.12.2019 08:45 23,1 C -6,2 C 45 % 82 % 1020,4 hPa 0,0 l/m 3,2 km/h (1 Bft) N-NO 22 0,000 mm -8,8 C -6,2 C 4,8 km/h (1 Bft) 100,00 %
11.12.2019 08:44 23,1 C -6,2 C 45 % 82 % 1020,4 hPa 0,0 l/m 1,6 km/h (1 Bft) N-NO 22 0,000 mm -8,8 C -6,2 C 3,2 km/h (1 Bft) 100,00 %
11.12.2019 08:43 23,1 C -6,2 C 45 % 82 % 1020,4 hPa 0,0 l/m 3,2 km/h (1 Bft) N-NO 22 0,000 mm -8,8 C -6,2 C 4,8 km/h (1 Bft) 100,00 %
11.12.2019 08:42 23,1 C -6,3 C 45 % 82 % 1020,4 hPa 0,0 l/m 1,6 km/h (1 Bft) N 360 0,000 mm -8,9 C -6,3 C 3,2 km/h (1 Bft) 100,00 %
11.12.2019 08:41 23,1 C -6,3 C 45 % 82 % 1020,4 hPa 0,0 l/m 1,6 km/h (1 Bft) N 360 0,000 mm -8,9 C -6,3 C 3,2 km/h (1 Bft) 100,00 %
11.12.2019 08:40 23,1 C -6,3 C 45 % 82 % 1020,4 hPa 0,0 l/m 1,6 km/h (1 Bft) N 360 0,000 mm -8,9 C -6,3 C 1,6 km/h (1 Bft) 100,00 %
11.12.2019 08:39 23,1 C -6,3 C 45 % 82 % 1020,5 hPa 0,0 l/m 1,6 km/h (1 Bft) N 360 0,000 mm -8,9 C -6,3 C 3,2 km/h (1 Bft) 95,65 %
11.12.2019 08:38 23,1 C -6,3 C 45 % 82 % 1020,4 hPa 0,0 l/m 1,6 km/h (1 Bft) N 360 0,000 mm -8,9 C -6,3 C 3,2 km/h (1 Bft) 100,00 %
11.12.2019 08:37 23,1 C -6,3 C 45 % 82 % 1020,5 hPa 0,0 l/m 1,6 km/h (1 Bft) N 360 0,000 mm -8,9 C -6,3 C 3,2 km/h (1 Bft) 95,65 %
11.12.2019 08:36 23,1 C -6,3 C 45 % 82 % 1020,5 hPa 0,0 l/m 1,6 km/h (1 Bft) N-NO 22 0,000 mm -8,9 C -6,3 C 3,2 km/h (1 Bft) 100,00 %
11.12.2019 08:35 23,1 C -6,3 C 45 % 82 % 1020,5 hPa 0,0 l/m 3,2 km/h (1 Bft) N-NO 22 0,000 mm -8,9 C -6,3 C 4,8 km/h (1 Bft) 100,00 %
11.12.2019 08:34 23,1 C -6,3 C 45 % 82 % 1020,5 hPa 0,0 l/m 1,6 km/h (1 Bft) N 360 0,000 mm -8,9 C -6,3 C 3,2 km/h (1 Bft) 100,00 %
11.12.2019 08:33 23,1 C -6,3 C 45 % 82 % 1020,5 hPa 0,0 l/m 1,6 km/h (1 Bft) N 360 0,000 mm -8,9 C -6,3 C 3,2 km/h (1 Bft) 100,00 %
11.12.2019 08:32 23,1 C -6,4 C 45 % 82 % 1020,5 hPa 0,0 l/m 3,2 km/h (1 Bft) N 360 0,000 mm -9,0 C -6,4 C 4,8 km/h (1 Bft) 100,00 %
11.12.2019 08:31 23,1 C -6,3 C 45 % 82 % 1020,6 hPa 0,0 l/m 3,2 km/h (1 Bft) N 360 0,000 mm -8,9 C -6,3 C 3,2 km/h (1 Bft) 100,00 %
11.12.2019 08:30 23,1 C -6,3 C 45 % 81 % 1020,6 hPa 0,0 l/m 3,2 km/h (1 Bft) N 360 0,000 mm -9,0 C -6,3 C 4,8 km/h (1 Bft) 100,00 %
11.12.2019 08:29 23,1 C -6,3 C 45 % 81 % 1020,6 hPa 0,0 l/m 3,2 km/h (1 Bft) N 360 0,000 mm -9,0 C -6,3 C 4,8 km/h (1 Bft) 100,00 %
11.12.2019 08:28 23,1 C -6,2 C 45 % 81 % 1020,6 hPa 0,0 l/m 3,2 km/h (1 Bft) N 360 0,000 mm -8,9 C -6,2 C 3,2 km/h (1 Bft) 100,00 %
11.12.2019 08:27 23,0 C -6,1 C 45 % 81 % 1020,6 hPa 0,0 l/m 3,2 km/h (1 Bft) N 360 0,000 mm -8,8 C -6,1 C 4,8 km/h (1 Bft) 95,65 %
11.12.2019 08:26 23,1 C -6,1 C 45 % 81 % 1020,6 hPa 0,0 l/m 3,2 km/h (1 Bft) N 360 0,000 mm -8,8 C -6,1 C 4,8 km/h (1 Bft) 100,00 %
11.12.2019 08:25 23,1 C -6,1 C 45 % 81 % 1020,6 hPa 0,0 l/m 0,0 km/h (0 Bft) N 0 0,000 mm -8,8 C -6,1 C 0,0 km/h (0 Bft) 95,65 %
11.12.2019 08:24 23,0 C -6,1 C 45 % 82 % 1020,6 hPa 0,0 l/m 0,0 km/h (0 Bft) N 0 0,000 mm -8,7 C -6,1 C 0,0 km/h (0 Bft) 100,00 %
11.12.2019 08:23 23,1 C -6,1 C 45 % 81 % 1020,6 hPa 0,0 l/m 0,0 km/h (0 Bft) N 0 0,000 mm -8,8 C -6,1 C 0,0 km/h (0 Bft) 95,65 %
11.12.2019 08:22 23,1 C -6,1 C 45 % 81 % 1020,6 hPa 0,0 l/m 0,0 km/h (0 Bft) N 360 0,000 mm -8,8 C -6,1 C 1,6 km/h (1 Bft) 100,00 %
11.12.2019 08:21 23,0 C -6,1 C 45 % 81 % 1020,6 hPa 0,0 l/m 1,6 km/h (1 Bft) N 360 0,000 mm -8,8 C -6,1 C 1,6 km/h (1 Bft) 100,00 %
11.12.2019 08:20 23,0 C -6,1 C 45 % 81 % 1020,7 hPa 0,0 l/m 1,6 km/h (1 Bft) N 360 0,000 mm -8,8 C -6,1 C 1,6 km/h (1 Bft) 100,00 %
11.12.2019 08:19 23,0 C -6,0 C 45 % 81 % 1020,6 hPa 0,0 l/m 1,6 km/h (1 Bft) N 360 0,000 mm -8,7 C -6,0 C 1,6 km/h (1 Bft) 95,65 %
11.12.2019 08:18 23,1 C -5,9 C 45 % 81 % 1020,6 hPa 0,0 l/m 1,6 km/h (1 Bft) N 360 0,000 mm -8,6 C -5,9 C 3,2 km/h (1 Bft) 95,65 %
11.12.2019 08:17 23,0 C -5,9 C 45 % 81 % 1020,7 hPa 0,0 l/m 1,6 km/h (1 Bft) N 360 0,000 mm -8,6 C -5,9 C 3,2 km/h (1 Bft) 100,00 %
11.12.2019 08:16 23,0 C -5,9 C 45 % 81 % 1020,7 hPa 0,0 l/m 1,6 km/h (1 Bft) N 360 0,000 mm -8,6 C -5,9 C 3,2 km/h (1 Bft) 95,65 %
11.12.2019 08:15 23,0 C -5,8 C 45 % 81 % 1020,6 hPa 0,0 l/m 3,2 km/h (1 Bft) N 360 0,000 mm -8,5 C -5,8 C 3,2 km/h (1 Bft) 95,65 %
11.12.2019 08:14 23,0 C -5,8 C 45 % 81 % 1020,6 hPa 0,0 l/m 3,2 km/h (1 Bft) N 360 0,000 mm -8,5 C -5,8 C 3,2 km/h (1 Bft) 100,00 %
11.12.2019 08:13 23,0 C -5,8 C 45 % 81 % 1020,6 hPa 0,0 l/m 3,2 km/h (1 Bft) N 360 0,000 mm -8,5 C -5,8 C 3,2 km/h (1 Bft) 100,00 %
11.12.2019 08:12 23,0 C -5,8 C 45 % 81 % 1020,6 hPa 0,0 l/m 1,6 km/h (1 Bft) N 360 0,000 mm -8,5 C -5,8 C 3,2 km/h (1 Bft) 100,00 %
11.12.2019 08:11 22,9 C -5,8 C 45 % 82 % 1020,7 hPa 0,0 l/m 1,6 km/h (1 Bft) N 360 0,000 mm -8,4 C -5,8 C 3,2 km/h (1 Bft) 95,65 %
11.12.2019 08:10 23,0 C -5,8 C 45 % 82 % 1020,7 hPa 0,0 l/m 1,6 km/h (1 Bft) N 360 0,000 mm -8,4 C -5,8 C 3,2 km/h (1 Bft) 100,00 %
11.12.2019 08:09 22,9 C -5,9 C 45 % 81 % 1020,7 hPa 0,0 l/m 1,6 km/h (1 Bft) N 360 0,000 mm -8,6 C -5,9 C 3,2 km/h (1 Bft) 100,00 %
11.12.2019 08:08 23,0 C -5,9 C 46 % 81 % 1020,7 hPa 0,0 l/m 3,2 km/h (1 Bft) N 360 0,000 mm -8,6 C -5,9 C 3,2 km/h (1 Bft) 95,65 %
11.12.2019 08:07 22,9 C -5,9 C 45 % 81 % 1020,6 hPa 0,0 l/m 0,0 km/h (0 Bft) N 360 0,000 mm -8,6 C -5,9 C 3,2 km/h (1 Bft) 100,00 %
11.12.2019 08:06 22,9 C -5,9 C 45 % 81 % 1020,7 hPa 0,0 l/m 0,0 km/h (0 Bft) N 0 0,000 mm -8,6 C -5,9 C 0,0 km/h (0 Bft) 95,65 %
11.12.2019 08:05 22,9 C -5,9 C 45 % 81 % 1020,6 hPa 0,0 l/m 0,0 km/h (0 Bft) N 0 0,000 mm -8,6 C -5,9 C 0,0 km/h (0 Bft) 100,00 %
11.12.2019 08:04 22,9 C -6,0 C 45 % 81 % 1020,7 hPa 0,0 l/m 0,0 km/h (0 Bft) N 0 0,000 mm -8,7 C -6,0 C 0,0 km/h (0 Bft) 100,00 %
11.12.2019 08:03 22,9 C -6,0 C 46 % 81 % 1020,6 hPa 0,0 l/m 0,0 km/h (0 Bft) N 0 0,000 mm -8,7 C -6,0 C 0,0 km/h (0 Bft) 100,00 %
11.12.2019 08:02 22,9 C -6,0 C 45 % 81 % 1020,6 hPa 0,0 l/m 0,0 km/h (0 Bft) N 0 0,000 mm -8,7 C -6,0 C 0,0 km/h (0 Bft) 100,00 %
11.12.2019 08:01 22,9 C -5,9 C 46 % 81 % 1020,6 hPa 0,0 l/m 0,0 km/h (0 Bft) N 0 0,000 mm -8,6 C -5,9 C 0,0 km/h (0 Bft) 100,00 %
11.12.2019 08:00 22,9 C -5,9 C 46 % 81 % 1020,6 hPa 0,0 l/m 0,0 km/h (0 Bft) N 0 0,000 mm -8,6 C -5,9 C 0,0 km/h (0 Bft) 100,00 %
11.12.2019 07:59 22,9 C -5,9 C 46 % 81 % 1020,6 hPa 0,0 l/m 0,0 km/h (0 Bft) N 0 0,000 mm -8,6 C -5,9 C 0,0 km/h (0 Bft) 95,65 %
11.12.2019 07:58 22,9 C -5,9 C 46 % 81 % 1020,6 hPa 0,0 l/m 0,0 km/h (0 Bft) N 0 0,000 mm -8,6 C -5,9 C 0,0 km/h (0 Bft) 100,00 %
11.12.2019 07:57 22,9 C -5,9 C 46 % 81 % 1020,5 hPa 0,0 l/m 0,0 km/h (0 Bft) N 0 0,000 mm -8,6 C -5,9 C 0,0 km/h (0 Bft) 100,00 %
11.12.2019 07:56 22,9 C -5,9 C 46 % 81 % 1020,5 hPa 0,0 l/m 0,0 km/h (0 Bft) N 0 0,000 mm -8,6 C -5,9 C 0,0 km/h (0 Bft) 91,30 %
11.12.2019 07:55 22,9 C -5,9 C 46 % 81 % 1020,5 hPa 0,0 l/m 0,0 km/h (0 Bft) N 0 0,000 mm -8,6 C -5,9 C 0,0 km/h (0 Bft) 100,00 %
11.12.2019 07:54 22,9 C -5,9 C 46 % 81 % 1020,6 hPa 0,0 l/m 0,0 km/h (0 Bft) N 0 0,000 mm -8,6 C -5,9 C 0,0 km/h (0 Bft) 95,65 %
11.12.2019 07:53 22,9 C -5,9 C 46 % 81 % 1020,5 hPa 0,0 l/m 0,0 km/h (0 Bft) N 0 0,000 mm -8,6 C -5,9 C 0,0 km/h (0 Bft) 100,00 %
11.12.2019 07:52 22,9 C -5,9 C 46 % 81 % 1020,5 hPa 0,0 l/m 0,0 km/h (0 Bft) N 0 0,000 mm -8,6 C -5,9 C 0,0 km/h (0 Bft) 100,00 %
11.12.2019 07:51 22,9 C -5,9 C 46 % 81 % 1020,6 hPa 0,0 l/m 0,0 km/h (0 Bft) N 0 0,000 mm -8,6 C -5,9 C 0,0 km/h (0 Bft) 95,65 %
11.12.2019 07:50 22,9 C -6,0 C 46 % 81 % 1020,6 hPa 0,0 l/m 0,0 km/h (0 Bft) N 0 0,000 mm -8,7 C -6,0 C 0,0 km/h (0 Bft) 100,00 %
11.12.2019 07:49 22,9 C -5,9 C 46 % 81 % 1020,6 hPa 0,0 l/m 0,0 km/h (0 Bft) N 0 0,000 mm -8,6 C -5,9 C 0,0 km/h (0 Bft) 100,00 %
11.12.2019 07:48 22,9 C -5,9 C 46 % 81 % 1020,6 hPa 0,0 l/m 0,0 km/h (0 Bft) N 0 0,000 mm -8,6 C -5,9 C 0,0 km/h (0 Bft) 100,00 %
11.12.2019 07:47 22,9 C -5,9 C 46 % 81 % 1020,6 hPa 0,0 l/m 0,0 km/h (0 Bft) N 0 0,000 mm -8,6 C -5,9 C 0,0 km/h (0 Bft) 95,65 %
11.12.2019 07:46 22,9 C -6,0 C 46 % 81 % 1020,6 hPa 0,0 l/m 0,0 km/h (0 Bft) N 0 0,000 mm -8,7 C -6,0 C 0,0 km/h (0 Bft) 100,00 %
11.12.2019 07:45 22,9 C -5,9 C 46 % 81 % 1020,7 hPa 0,0 l/m 0,0 km/h (0 Bft) N 0 0,000 mm -8,6 C -5,9 C 0,0 km/h (0 Bft) 100,00 %
11.12.2019 07:44 22,9 C -6,0 C 46 % 81 % 1020,6 hPa 0,0 l/m 0,0 km/h (0 Bft) N 0 0,000 mm -8,7 C -6,0 C 0,0 km/h (0 Bft) 100,00 %
11.12.2019 07:43 22,9 C -5,9 C 46 % 81 % 1020,6 hPa 0,0 l/m 0,0 km/h (0 Bft) N 0 0,000 mm -8,6 C -5,9 C 0,0 km/h (0 Bft) 100,00 %
11.12.2019 07:42 22,9 C -5,9 C 46 % 81 % 1020,7 hPa 0,0 l/m 0,0 km/h (0 Bft) N 0 0,000 mm -8,6 C -5,9 C 0,0 km/h (0 Bft) 100,00 %
11.12.2019 07:41 22,9 C -5,9 C 46 % 81 % 1020,6 hPa 0,0 l/m 0,0 km/h (0 Bft) N 0 0,000 mm -8,6 C -5,9 C 0,0 km/h (0 Bft) 95,65 %
11.12.2019 07:40 22,9 C -5,9 C 46 % 81 % 1020,7 hPa 0,0 l/m 0,0 km/h (0 Bft) N 0 0,000 mm -8,6 C -5,9 C 0,0 km/h (0 Bft) 100,00 %
11.12.2019 07:39 22,9 C -5,9 C 46 % 81 % 1020,7 hPa 0,0 l/m 0,0 km/h (0 Bft) N 0 0,000 mm -8,6 C -5,9 C 0,0 km/h (0 Bft) 100,00 %
11.12.2019 07:38 22,9 C -5,9 C 46 % 81 % 1020,7 hPa 0,0 l/m 0,0 km/h (0 Bft) N 0 0,000 mm -8,6 C -5,9 C 0,0 km/h (0 Bft) 100,00 %
11.12.2019 07:37 22,9 C -5,9 C 46 % 81 % 1020,7 hPa 0,0 l/m 0,0 km/h (0 Bft) N 0 0,000 mm -8,6 C -5,9 C 0,0 km/h (0 Bft) 100,00 %
11.12.2019 07:36 22,9 C -5,9 C 46 % 81 % 1020,8 hPa 0,0 l/m 0,0 km/h (0 Bft) N 0 0,000 mm -8,6 C -5,9 C 0,0 km/h (0 Bft) 100,00 %
11.12.2019 07:35 22,9 C -5,9 C 46 % 81 % 1020,8 hPa 0,0 l/m 0,0 km/h (0 Bft) N 0 0,000 mm -8,6 C -5,9 C 0,0 km/h (0 Bft) 95,65 %
11.12.2019 07:34 22,9 C -5,8 C 46 % 81 % 1020,7 hPa 0,0 l/m 0,0 km/h (0 Bft) N 0 0,000 mm -8,5 C -5,8 C 0,0 km/h (0 Bft) 100,00 %
11.12.2019 07:33 22,9 C -5,8 C 46 % 81 % 1020,7 hPa 0,0 l/m 0,0 km/h (0 Bft) N 0 0,000 mm -8,5 C -5,8 C 0,0 km/h (0 Bft) 100,00 %
11.12.2019 07:32 22,9 C -5,8 C 46 % 81 % 1020,7 hPa 0,0 l/m 0,0 km/h (0 Bft) N 0 0,000 mm -8,5 C -5,8 C 0,0 km/h (0 Bft) 95,65 %
11.12.2019 07:31 22,9 C -5,8 C 46 % 81 % 1020,8 hPa 0,0 l/m 0,0 km/h (0 Bft) N 0 0,000 mm -8,5 C -5,8 C 0,0 km/h (0 Bft) 100,00 %
11.12.2019 07:30 22,9 C -5,8 C 46 % 81 % 1020,8 hPa 0,0 l/m 0,0 km/h (0 Bft) N 0 0,000 mm -8,5 C -5,8 C 0,0 km/h (0 Bft) 95,65 %
11.12.2019 07:29 22,9 C -5,7 C 46 % 81 % 1020,9 hPa 0,0 l/m 0,0 km/h (0 Bft) N 0 0,000 mm -8,4 C -5,7 C 0,0 km/h (0 Bft) 100,00 %
11.12.2019 07:28 22,9 C -5,7 C 46 % 81 % 1020,9 hPa 0,0 l/m 0,0 km/h (0 Bft) N 0 0,000 mm -8,4 C -5,7 C 0,0 km/h (0 Bft) 100,00 %
11.12.2019 07:27 22,9 C -5,7 C 46 % 81 % 1020,9 hPa 0,0 l/m 0,0 km/h (0 Bft) N 0 0,000 mm -8,4 C -5,7 C 0,0 km/h (0 Bft) 91,30 %
11.12.2019 07:26 22,9 C -5,7 C 46 % 81 % 1020,9 hPa 0,0 l/m 0,0 km/h (0 Bft) N 0 0,000 mm -8,4 C -5,7 C 0,0 km/h (0 Bft) 100,00 %
11.12.2019 07:25 22,9 C -5,7 C 45 % 81 % 1020,9 hPa 0,0 l/m 0,0 km/h (0 Bft) N 0 0,000 mm -8,4 C -5,7 C 0,0 km/h (0 Bft) 100,00 %
11.12.2019 07:24 22,9 C -5,7 C 45 % 81 % 1020,9 hPa 0,0 l/m 0,0 km/h (0 Bft) N 0 0,000 mm -8,4 C -5,7 C 0,0 km/h (0 Bft) 100,00 %
11.12.2019 07:23 22,9 C -5,6 C 45 % 81 % 1020,9 hPa 0,0 l/m 0,0 km/h (0 Bft) N 0 0,000 mm -8,3 C -5,6 C 0,0 km/h (0 Bft) 100,00 %
11.12.2019 07:22 22,9 C -5,7 C 45 % 81 % 1020,9 hPa 0,0 l/m 0,0 km/h (0 Bft) N 0 0,000 mm -8,4 C -5,7 C 0,0 km/h (0 Bft) 86,96 %
11.12.2019 07:21 22,8 C -5,6 C 45 % 81 % 1021,0 hPa 0,0 l/m 0,0 km/h (0 Bft) N 0 0,000 mm -8,3 C -5,6 C 0,0 km/h (0 Bft) 100,00 %
11.12.2019 07:20 22,9 C -5,6 C 45 % 81 % 1021,0 hPa 0,0 l/m 0,0 km/h (0 Bft) N 0 0,000 mm -8,3 C -5,6 C 0,0 km/h (0 Bft) 100,00 %
11.12.2019 07:19 22,9 C -5,6 C 45 % 81 % 1021,0 hPa 0,0 l/m 0,0 km/h (0 Bft) N 0 0,000 mm -8,3 C -5,6 C 0,0 km/h (0 Bft) 100,00 %
11.12.2019 07:18 22,9 C -5,6 C 45 % 81 % 1021,1 hPa 0,0 l/m 0,0 km/h (0 Bft) N 0 0,000 mm -8,3 C -5,6 C 0,0 km/h (0 Bft) 95,65 %
11.12.2019 07:17 22,9 C -5,6 C 45 % 81 % 1021,1 hPa 0,0 l/m 0,0 km/h (0 Bft) N 0 0,000 mm -8,3 C -5,6 C 0,0 km/h (0 Bft) 100,00 %
11.12.2019 07:16 22,8 C -5,6 C 45 % 81 % 1021,1 hPa 0,0 l/m 0,0 km/h (0 Bft) N 0 0,000 mm -8,3 C -5,6 C 0,0 km/h (0 Bft) 100,00 %
11.12.2019 07:15 22,9 C -5,6 C 45 % 81 % 1021,1 hPa 0,0 l/m 0,0 km/h (0 Bft) N 0 0,000 mm -8,3 C -5,6 C 0,0 km/h (0 Bft) 95,65 %
11.12.2019 07:14 22,9 C -5,6 C 45 % 81 % 1021,2 hPa 0,0 l/m 0,0 km/h (0 Bft) N 0 0,000 mm -8,3 C -5,6 C 0,0 km/h (0 Bft) 100,00 %
11.12.2019 07:13 22,9 C -5,6 C 45 % 81 % 1021,1 hPa 0,0 l/m 0,0 km/h (0 Bft) N 0 0,000 mm -8,3 C -5,6 C 0,0 km/h (0 Bft) 95,65 %
11.12.2019 07:12 22,9 C -5,6 C 45 % 81 % 1021,1 hPa 0,0 l/m 0,0 km/h (0 Bft) N 0 0,000 mm -8,3 C -5,6 C 0,0 km/h (0 Bft) 100,00 %
11.12.2019 07:11 22,9 C -5,5 C 45 % 81 % 1021,1 hPa 0,0 l/m 0,0 km/h (0 Bft) N 0 0,000 mm -8,2 C -5,5 C 0,0 km/h (0 Bft) 100,00 %
11.12.2019 07:10 22,9 C -5,6 C 46 % 81 % 1021,1 hPa 0,0 l/m 0,0 km/h (0 Bft) N 0 0,000 mm -8,3 C -5,6 C 0,0 km/h (0 Bft) 95,65 %
11.12.2019 07:09 22,8 C -5,6 C 46 % 81 % 1021,0 hPa 0,0 l/m 0,0 km/h (0 Bft) N 0 0,000 mm -8,3 C -5,6 C 0,0 km/h (0 Bft) 100,00 %
11.12.2019 07:08 22,9 C -5,6 C 45 % 81 % 1021,1 hPa 0,0 l/m 0,0 km/h (0 Bft) N 0 0,000 mm -8,3 C -5,6 C 0,0 km/h (0 Bft) 100,00 %
11.12.2019 07:07 22,8 C -5,5 C 45 % 81 % 1021,1 hPa 0,0 l/m 0,0 km/h (0 Bft) N 0 0,000 mm -8,2 C -5,5 C 0,0 km/h (0 Bft) 100,00 %
11.12.2019 07:06 22,8 C -5,5 C 45 % 81 % 1021,1 hPa 0,0 l/m 0,0 km/h (0 Bft) N 0 0,000 mm -8,2 C -5,5 C 0,0 km/h (0 Bft) 100,00 %
11.12.2019 07:05 22,8 C -5,5 C 45 % 81 % 1021,2 hPa 0,0 l/m 0,0 km/h (0 Bft) N 0 0,000 mm -8,2 C -5,5 C 0,0 km/h (0 Bft) 95,65 %
11.12.2019 07:04 22,8 C -5,5 C 45 % 81 % 1021,2 hPa 0,0 l/m 0,0 km/h (0 Bft) N 0 0,000 mm -8,2 C -5,5 C 0,0 km/h (0 Bft) 100,00 %
11.12.2019 07:03 22,8 C -5,5 C 45 % 81 % 1021,2 hPa 0,0 l/m 0,0 km/h (0 Bft) N 0 0,000 mm -8,2 C -5,5 C 0,0 km/h (0 Bft) 95,65 %
11.12.2019 07:02 22,8 C -5,5 C 45 % 81 % 1021,2 hPa 0,0 l/m 0,0 km/h (0 Bft) N 0 0,000 mm -8,2 C -5,5 C 0,0 km/h (0 Bft) 100,00 %
11.12.2019 07:01 22,8 C -5,5 C 45 % 81 % 1021,2 hPa 0,0 l/m 0,0 km/h (0 Bft) N 0 0,000 mm -8,2 C -5,5 C 0,0 km/h (0 Bft) 100,00 %
11.12.2019 07:00 22,8 C -5,5 C 45 % 81 % 1021,2 hPa 0,0 l/m 0,0 km/h (0 Bft) N 0 0,000 mm -8,2 C -5,5 C 0,0 km/h (0 Bft) 100,00 %
11.12.2019 06:59 22,8 C -5,4 C 45 % 81 % 1021,2 hPa 0,0 l/m 0,0 km/h (0 Bft) N 0 0,000 mm -8,1 C -5,4 C 0,0 km/h (0 Bft) 100,00 %
11.12.2019 06:58 22,8 C -5,4 C 45 % 81 % 1021,3 hPa 0,0 l/m 0,0 km/h (0 Bft) N 0 0,000 mm -8,1 C -5,4 C 0,0 km/h (0 Bft) 95,65 %
11.12.2019 06:57 22,8 C -5,4 C 45 % 81 % 1021,3 hPa 0,0 l/m 0,0 km/h (0 Bft) N 0 0,000 mm -8,1 C -5,4 C 0,0 km/h (0 Bft) 100,00 %
11.12.2019 06:56 22,8 C -5,4 C 45 % 81 % 1021,3 hPa 0,0 l/m 0,0 km/h (0 Bft) N 0 0,000 mm -8,1 C -5,4 C 0,0 km/h (0 Bft) 100,00 %
11.12.2019 06:55 22,7 C -5,4 C 45 % 81 % 1021,3 hPa 0,0 l/m 0,0 km/h (0 Bft) N 0 0,000 mm -8,1 C -5,4 C 0,0 km/h (0 Bft) 69,57 %
11.12.2019 06:54 22,7 C -5,4 C 45 % 81 % 1021,4 hPa 0,0 l/m 0,0 km/h (0 Bft) N 0 0,000 mm -8,1 C -5,4 C 0,0 km/h (0 Bft) 26,09 %
11.12.2019 06:53 22,7 C -5,4 C 45 % 81 % 1021,3 hPa 0,0 l/m 0,0 km/h (0 Bft) N 0 0,000 mm -8,1 C -5,4 C 0,0 km/h (0 Bft) 100,00 %
11.12.2019 06:52 22,7 C -5,4 C 45 % 81 % 1021,3 hPa 0,0 l/m 0,0 km/h (0 Bft) N 0 0,000 mm -8,1 C -5,4 C 0,0 km/h (0 Bft) 100,00 %
11.12.2019 06:51 22,7 C -5,4 C 45 % 81 % 1021,3 hPa 0,0 l/m 0,0 km/h (0 Bft) N 0 0,000 mm -8,1 C -5,4 C 0,0 km/h (0 Bft) 100,00 %
11.12.2019 06:50 22,7 C -5,4 C 45 % 81 % 1021,3 hPa 0,0 l/m 0,0 km/h (0 Bft) N 0 0,000 mm -8,1 C -5,4 C 0,0 km/h (0 Bft) 100,00 %
11.12.2019 06:49 22,7 C -5,4 C 45 % 81 % 1021,3 hPa 0,0 l/m 0,0 km/h (0 Bft) N 0 0,000 mm -8,1 C -5,4 C 0,0 km/h (0 Bft) 100,00 %
11.12.2019 06:48 22,7 C -5,4 C 45 % 81 % 1021,3 hPa 0,0 l/m 0,0 km/h (0 Bft) N 0 0,000 mm -8,1 C -5,4 C 0,0 km/h (0 Bft) 95,65 %
11.12.2019 06:47 22,6 C -5,4 C 45 % 81 % 1021,3 hPa 0,0 l/m 0,0 km/h (0 Bft) N 0 0,000 mm -8,1 C -5,4 C 0,0 km/h (0 Bft) 95,65 %
11.12.2019 06:46 22,6 C -5,5 C 45 % 81 % 1021,3 hPa 0,0 l/m 0,0 km/h (0 Bft) N 0 0,000 mm -8,2 C -5,5 C 0,0 km/h (0 Bft) 100,00 %
11.12.2019 06:45 22,6 C -5,4 C 45 % 81 % 1021,4 hPa 0,0 l/m 0,0 km/h (0 Bft) N 0 0,000 mm -8,1 C -5,4 C 0,0 km/h (0 Bft) 100,00 %
11.12.2019 06:44 22,6 C -5,5 C 45 % 81 % 1021,4 hPa 0,0 l/m 0,0 km/h (0 Bft) N 0 0,000 mm -8,2 C -5,5 C 0,0 km/h (0 Bft) 95,65 %
11.12.2019 06:43 22,6 C -5,5 C 45 % 81 % 1021,4 hPa 0,0 l/m 0,0 km/h (0 Bft) N 0 0,000 mm -8,2 C -5,5 C 0,0 km/h (0 Bft) 100,00 %
11.12.2019 06:42 22,6 C -5,5 C 45 % 81 % 1021,3 hPa 0,0 l/m 0,0 km/h (0 Bft) N 0 0,000 mm -8,2 C -5,5 C 0,0 km/h (0 Bft) 91,30 %
11.12.2019 06:41 22,6 C -5,5 C 45 % 81 % 1021,4 hPa 0,0 l/m 0,0 km/h (0 Bft) N 0 0,000 mm -8,2 C -5,5 C 0,0 km/h (0 Bft) 100,00 %
11.12.2019 06:40 22,6 C -5,6 C 45 % 81 % 1021,3 hPa 0,0 l/m 0,0 km/h (0 Bft) N 0 0,000 mm -8,3 C -5,6 C 0,0 km/h (0 Bft) 100,00 %
11.12.2019 06:39 22,5 C -5,6 C 45 % 81 % 1021,4 hPa 0,0 l/m 0,0 km/h (0 Bft) N 0 0,000 mm -8,3 C -5,6 C 0,0 km/h (0 Bft) 95,65 %
11.12.2019 06:38 22,5 C -5,5 C 45 % 81 % 1021,3 hPa 0,0 l/m 0,0 km/h (0 Bft) N 0 0,000 mm -8,2 C -5,5 C 0,0 km/h (0 Bft) 100,00 %
11.12.2019 06:37 22,5 C -5,6 C 45 % 81 % 1021,4 hPa 0,0 l/m 0,0 km/h (0 Bft) N 0 0,000 mm -8,3 C -5,6 C 0,0 km/h (0 Bft) 95,65 %
11.12.2019 06:36 22,4 C -5,6 C 44 % 81 % 1021,4 hPa 0,0 l/m 0,0 km/h (0 Bft) N 0 0,000 mm -8,3 C -5,6 C 0,0 km/h (0 Bft) 100,00 %
11.12.2019 06:35 22,4 C -5,6 C 44 % 81 % 1021,4 hPa 0,0 l/m 0,0 km/h (0 Bft) N 0 0,000 mm -8,3 C -5,6 C 0,0 km/h (0 Bft) 100,00 %
11.12.2019 06:34 22,4 C -5,6 C 44 % 81 % 1021,5 hPa 0,0 l/m 0,0 km/h (0 Bft) N 0 0,000 mm -8,3 C -5,6 C 0,0 km/h (0 Bft) 100,00 %
11.12.2019 06:33 22,4 C -5,6 C 44 % 81 % 1021,4 hPa 0,0 l/m 0,0 km/h (0 Bft) N 0 0,000 mm -8,3 C -5,6 C 0,0 km/h (0 Bft) 100,00 %
11.12.2019 06:32 22,4 C -5,6 C 44 % 81 % 1021,4 hPa 0,0 l/m 0,0 km/h (0 Bft) N 0 0,000 mm -8,3 C -5,6 C 0,0 km/h (0 Bft) 100,00 %
11.12.2019 06:31 22,4 C -5,5 C 43 % 81 % 1021,5 hPa 0,0 l/m 0,0 km/h (0 Bft) N 0 0,000 mm -8,2 C -5,5 C 0,0 km/h (0 Bft) 95,65 %
11.12.2019 06:30 22,4 C -5,5 C 43 % 81 % 1021,4 hPa 0,0 l/m 0,0 km/h (0 Bft) N 0 0,000 mm -8,2 C -5,5 C 0,0 km/h (0 Bft) 100,00 %
11.12.2019 06:29 22,4 C -5,5 C 42 % 81 % 1021,4 hPa 0,0 l/m 0,0 km/h (0 Bft) N 0 0,000 mm -8,2 C -5,5 C 0,0 km/h (0 Bft) 100,00 %
11.12.2019 06:28 22,4 C -5,5 C 42 % 81 % 1021,4 hPa 0,0 l/m 0,0 km/h (0 Bft) N 0 0,000 mm -8,2 C -5,5 C 0,0 km/h (0 Bft) 100,00 %
11.12.2019 06:27 22,5 C -5,4 C 41 % 80 % 1021,4 hPa 0,0 l/m 0,0 km/h (0 Bft) N 0 0,000 mm -8,3 C -5,4 C 0,0 km/h (0 Bft) 100,00 %
11.12.2019 06:26 22,6 C -5,4 C 41 % 81 % 1021,4 hPa 0,0 l/m 0,0 km/h (0 Bft) N 0 0,000 mm -8,1 C -5,4 C 0,0 km/h (0 Bft) 100,00 %
11.12.2019 06:25 22,6 C -5,4 C 39 % 80 % 1021,5 hPa 0,0 l/m 0,0 km/h (0 Bft) N 360 0,000 mm -8,3 C -5,4 C 1,6 km/h (1 Bft) 100,00 %
11.12.2019 06:24 22,7 C -5,4 C 36 % 81 % 1021,4 hPa 0,0 l/m 1,6 km/h (1 Bft) N 360 0,000 mm -8,1 C -5,4 C 1,6 km/h (1 Bft) 100,00 %
11.12.2019 06:23 22,9 C -5,3 C 33 % 81 % 1021,4 hPa 0,0 l/m 1,6 km/h (1 Bft) N 360 0,000 mm -8,0 C -5,3 C 1,6 km/h (1 Bft) 100,00 %
11.12.2019 06:22 23,1 C -5,3 C 43 % 81 % 1021,4 hPa 0,0 l/m 1,6 km/h (1 Bft) N 360 0,000 mm -8,0 C -5,3 C 1,6 km/h (1 Bft) 100,00 %
11.12.2019 06:21 23,1 C -5,3 C 43 % 81 % 1021,4 hPa 0,0 l/m 0,0 km/h (0 Bft) N 360 0,000 mm -8,0 C -5,3 C 1,6 km/h (1 Bft) 100,00 %
11.12.2019 06:20 23,1 C -5,3 C 46 % 81 % 1021,4 hPa 0,0 l/m 0,0 km/h (0 Bft) N 0 0,000 mm -8,0 C -5,3 C 0,0 km/h (0 Bft) 100,00 %
11.12.2019 06:19 23,1 C -5,2 C 46 % 81 % 1021,5 hPa 0,0 l/m 0,0 km/h (0 Bft) N 0 0,000 mm -7,9 C -5,2 C 0,0 km/h (0 Bft) 100,00 %
11.12.2019 06:18 23,1 C -5,2 C 46 % 81 % 1021,4 hPa 0,0 l/m 0,0 km/h (0 Bft) N 0 0,000 mm -7,9 C -5,2 C 0,0 km/h (0 Bft) 100,00 %
11.12.2019 06:17 23,1 C -5,2 C 46 % 81 % 1021,5 hPa 0,0 l/m 0,0 km/h (0 Bft) N 360 0,000 mm -7,9 C -5,2 C 1,6 km/h (1 Bft) 95,65 %
11.12.2019 06:16 23,1 C -5,2 C 46 % 81 % 1021,4 hPa 0,0 l/m 0,0 km/h (0 Bft) N 360 0,000 mm -7,9 C -5,2 C 1,6 km/h (1 Bft) 100,00 %
11.12.2019 06:15 23,1 C -5,1 C 46 % 81 % 1021,5 hPa 0,0 l/m 0,0 km/h (0 Bft) N 0 0,000 mm -7,8 C -5,1 C 0,0 km/h (0 Bft) 100,00 %
11.12.2019 06:14 23,1 C -5,1 C 46 % 81 % 1021,5 hPa 0,0 l/m 0,0 km/h (0 Bft) N 0 0,000 mm -7,8 C -5,1 C 0,0 km/h (0 Bft) 100,00 %
11.12.2019 06:13 23,1 C -5,1 C 46 % 81 % 1021,5 hPa 0,0 l/m 0,0 km/h (0 Bft) N 0 0,000 mm -7,8 C -5,1 C 0,0 km/h (0 Bft) 95,65 %
11.12.2019 06:12 23,1 C -5,1 C 46 % 81 % 1021,5 hPa 0,0 l/m 0,0 km/h (0 Bft) N 360 0,000 mm -7,8 C -5,1 C 1,6 km/h (1 Bft) 95,65 %
11.12.2019 06:11 23,1 C -5,1 C 46 % 81 % 1021,5 hPa 0,0 l/m 0,0 km/h (0 Bft) N 0 0,000 mm -7,8 C -5,1 C 0,0 km/h (0 Bft) 100,00 %
11.12.2019 06:10 23,1 C -5,0 C 46 % 81 % 1021,5 hPa 0,0 l/m 0,0 km/h (0 Bft) N 0 0,000 mm -7,7 C -5,0 C 0,0 km/h (0 Bft) 100,00 %
11.12.2019 06:09 23,1 C -5,1 C 46 % 81 % 1021,5 hPa 0,0 l/m 0,0 km/h (0 Bft) N 0 0,000 mm -7,8 C -5,1 C 0,0 km/h (0 Bft) 100,00 %
11.12.2019 06:08 23,1 C -5,0 C 46 % 81 % 1021,5 hPa 0,0 l/m 0,0 km/h (0 Bft) N 0 0,000 mm -7,7 C -5,0 C 0,0 km/h (0 Bft) 100,00 %
11.12.2019 06:07 23,1 C -5,0 C 46 % 81 % 1021,6 hPa 0,0 l/m 0,0 km/h (0 Bft) N 0 0,000 mm -7,7 C -5,0 C 0,0 km/h (0 Bft) 100,00 %
11.12.2019 06:06 23,1 C -5,0 C 46 % 81 % 1021,6 hPa 0,0 l/m 0,0 km/h (0 Bft) N 0 0,000 mm -7,7 C -5,0 C 0,0 km/h (0 Bft) 100,00 %
11.12.2019 06:05 23,1 C -5,0 C 46 % 81 % 1021,5 hPa 0,0 l/m 0,0 km/h (0 Bft) N 0 0,000 mm -7,7 C -5,0 C 0,0 km/h (0 Bft) 100,00 %
11.12.2019 06:04 23,1 C -5,0 C 46 % 81 % 1021,6 hPa 0,0 l/m 0,0 km/h (0 Bft) N 360 0,000 mm -7,7 C -5,0 C 1,6 km/h (1 Bft) 95,65 %
11.12.2019 06:03 23,1 C -5,0 C 46 % 81 % 1021,6 hPa 0,0 l/m 1,6 km/h (1 Bft) N 360 0,000 mm -7,7 C -5,0 C 1,6 km/h (1 Bft) 95,65 %
11.12.2019 06:02 23,1 C -5,0 C 46 % 81 % 1021,6 hPa 0,0 l/m 1,6 km/h (1 Bft) N 360 0,000 mm -7,7 C -5,0 C 3,2 km/h (1 Bft) 100,00 %
11.12.2019 06:01 23,0 C -5,0 C 46 % 80 % 1021,7 hPa 0,0 l/m 1,6 km/h (1 Bft) N 360 0,000 mm -7,9 C -5,0 C 1,6 km/h (1 Bft) 100,00 %
11.12.2019 06:00 23,1 C -4,9 C 46 % 80 % 1021,7 hPa 0,0 l/m 0,0 km/h (0 Bft) N 360 0,000 mm -7,8 C -4,9 C 1,6 km/h (1 Bft) 100,00 %
11.12.2019 05:59 23,1 C -4,9 C 46 % 80 % 1021,7 hPa 0,0 l/m 1,6 km/h (1 Bft) N 360 0,000 mm -7,8 C -4,9 C 1,6 km/h (1 Bft) 100,00 %
11.12.2019 05:58 23,1 C -4,9 C 46 % 80 % 1021,7 hPa 0,0 l/m 1,6 km/h (1 Bft) N 360 0,000 mm -7,8 C -4,9 C 1,6 km/h (1 Bft) 100,00 %
11.12.2019 05:57 23,1 C -4,9 C 46 % 81 % 1021,7 hPa 0,0 l/m 1,6 km/h (1 Bft) N 360 0,000 mm -7,6 C -4,9 C 3,2 km/h (1 Bft) 100,00 %
11.12.2019 05:56 23,1 C -4,9 C 46 % 81 % 1021,8 hPa 0,0 l/m 1,6 km/h (1 Bft) N 360 0,000 mm -7,6 C -4,9 C 3,2 km/h (1 Bft) 95,65 %
11.12.2019 05:55 23,1 C -4,9 C 46 % 81 % 1021,8 hPa 0,0 l/m 1,6 km/h (1 Bft) N 360 0,000 mm -7,6 C -4,9 C 1,6 km/h (1 Bft) 100,00 %
11.12.2019 05:54 23,1 C -4,9 C 46 % 81 % 1021,7 hPa 0,0 l/m 1,6 km/h (1 Bft) N 360 0,000 mm -7,6 C -4,9 C 3,2 km/h (1 Bft) 100,00 %
11.12.2019 05:53 23,1 C -4,8 C 46 % 81 % 1021,8 hPa 0,0 l/m 1,6 km/h (1 Bft) N 360 0,000 mm -7,5 C -4,8 C 3,2 km/h (1 Bft) 95,65 %
11.12.2019 05:52 23,1 C -4,8 C 46 % 81 % 1021,8 hPa 0,0 l/m 1,6 km/h (1 Bft) N 360 0,000 mm -7,5 C -4,8 C 3,2 km/h (1 Bft) 100,00 %
11.12.2019 05:51 23,1 C -4,8 C 46 % 81 % 1021,8 hPa 0,0 l/m 1,6 km/h (1 Bft) N 360 0,000 mm -7,5 C -4,8 C 1,6 km/h (1 Bft) 100,00 %
11.12.2019 05:50 23,1 C -4,8 C 46 % 80 % 1021,8 hPa 0,0 l/m 1,6 km/h (1 Bft) N 360 0,000 mm -7,7 C -4,8 C 3,2 km/h (1 Bft) 100,00 %
11.12.2019 05:49 23,1 C -4,8 C 46 % 80 % 1021,8 hPa 0,0 l/m 1,6 km/h (1 Bft) N 360 0,000 mm -7,7 C -4,8 C 1,6 km/h (1 Bft) 100,00 %
11.12.2019 05:48 23,0 C -4,7 C 46 % 80 % 1021,8 hPa 0,0 l/m 1,6 km/h (1 Bft) N 360 0,000 mm -7,6 C -4,7 C 1,6 km/h (1 Bft) 95,65 %
11.12.2019 05:47 23,1 C -4,7 C 46 % 80 % 1021,9 hPa 0,0 l/m 1,6 km/h (1 Bft) N 360 0,000 mm -7,6 C -4,7 C 3,2 km/h (1 Bft) 100,00 %
11.12.2019 05:46 23,1 C -4,7 C 46 % 80 % 1021,8 hPa 0,0 l/m 3,2 km/h (1 Bft) N 360 0,000 mm -7,6 C -4,7 C 3,2 km/h (1 Bft) 100,00 %
11.12.2019 05:45 23,0 C -4,6 C 46 % 80 % 1021,8 hPa 0,0 l/m 3,2 km/h (1 Bft) N 360 0,000 mm -7,5 C -4,6 C 3,2 km/h (1 Bft) 100,00 %
11.12.2019 05:44 23,1 C -4,6 C 46 % 80 % 1021,8 hPa 0,0 l/m 3,2 km/h (1 Bft) N 360 0,000 mm -7,5 C -4,6 C 3,2 km/h (1 Bft) 100,00 %
11.12.2019 05:43 23,1 C -4,6 C 46 % 80 % 1021,9 hPa 0,0 l/m 1,6 km/h (1 Bft) N 360 0,000 mm -7,5 C -4,6 C 3,2 km/h (1 Bft) 95,65 %
11.12.2019 05:42 23,0 C -4,6 C 46 % 80 % 1021,9 hPa 0,0 l/m 1,6 km/h (1 Bft) N 360 0,000 mm -7,5 C -4,6 C 1,6 km/h (1 Bft) 100,00 %
11.12.2019 05:41 23,0 C -4,6 C 46 % 80 % 1021,9 hPa 0,0 l/m 1,6 km/h (1 Bft) N 360 0,000 mm -7,5 C -4,6 C 3,2 km/h (1 Bft) 100,00 %
11.12.2019 05:40 23,0 C -4,6 C 46 % 80 % 1021,9 hPa 0,0 l/m 1,6 km/h (1 Bft) N 360 0,000 mm -7,5 C -4,6 C 3,2 km/h (1 Bft) 100,00 %
11.12.2019 05:39 23,0 C -4,5 C 46 % 80 % 1022,0 hPa 0,0 l/m 1,6 km/h (1 Bft) N 360 0,000 mm -7,4 C -4,5 C 3,2 km/h (1 Bft) 95,65 %
11.12.2019 05:38 23,1 C -4,5 C 46 % 81 % 1021,9 hPa 0,0 l/m 1,6 km/h (1 Bft) N 360 0,000 mm -7,3 C -4,5 C 3,2 km/h (1 Bft) 100,00 %
11.12.2019 05:37 23,0 C -4,5 C 46 % 81 % 1021,9 hPa 0,0 l/m 1,6 km/h (1 Bft) N 360 0,000 mm -7,3 C -4,5 C 3,2 km/h (1 Bft) 100,00 %
11.12.2019 05:36 23,0 C -4,5 C 46 % 80 % 1021,9 hPa 0,0 l/m 1,6 km/h (1 Bft) N 360 0,000 mm -7,4 C -4,5 C 3,2 km/h (1 Bft) 100,00 %
11.12.2019 05:35 23,0 C -4,6 C 46 % 80 % 1022,0 hPa 0,0 l/m 3,2 km/h (1 Bft) N 360 0,000 mm -7,5 C -4,6 C 3,2 km/h (1 Bft) 100,00 %
11.12.2019 05:34 23,0 C -4,6 C 46 % 80 % 1022,0 hPa 0,0 l/m 1,6 km/h (1 Bft) N 360 0,000 mm -7,5 C -4,6 C 3,2 km/h (1 Bft) 100,00 %
11.12.2019 05:33 23,0 C -4,6 C 46 % 80 % 1022,0 hPa 0,0 l/m 1,6 km/h (1 Bft) N 360 0,000 mm -7,5 C -4,6 C 3,2 km/h (1 Bft) 100,00 %
11.12.2019 05:32 23,0 C -4,6 C 46 % 80 % 1021,9 hPa 0,0 l/m 0,0 km/h (0 Bft) N 360 0,000 mm -7,5 C -4,6 C 1,6 km/h (1 Bft) 100,00 %
11.12.2019 05:31 23,0 C -4,6 C 46 % 80 % 1021,9 hPa 0,0 l/m 0,0 km/h (0 Bft) N 0 0,000 mm -7,5 C -4,6 C 0,0 km/h (0 Bft) 100,00 %
11.12.2019 05:30 23,0 C -4,6 C 46 % 80 % 1022,0 hPa 0,0 l/m 0,0 km/h (0 Bft) N 0 0,000 mm -7,5 C -4,6 C 0,0 km/h (0 Bft) 100,00 %
11.12.2019 05:29 23,0 C -4,6 C 46 % 80 % 1021,9 hPa 0,0 l/m 0,0 km/h (0 Bft) N 0 0,000 mm -7,5 C -4,6 C 0,0 km/h (0 Bft) 100,00 %
11.12.2019 05:28 23,0 C -4,6 C 46 % 80 % 1021,9 hPa 0,0 l/m 0,0 km/h (0 Bft) N 0 0,000 mm -7,5 C -4,6 C 0,0 km/h (0 Bft) 100,00 %
11.12.2019 05:27 23,0 C -4,6 C 46 % 80 % 1021,9 hPa 0,0 l/m 0,0 km/h (0 Bft) N 0 0,000 mm -7,5 C -4,6 C 0,0 km/h (0 Bft) 100,00 %
11.12.2019 05:26 23,0 C -4,6 C 46 % 80 % 1021,9 hPa 0,0 l/m 0,0 km/h (0 Bft) N 0 0,000 mm -7,5 C -4,6 C 0,0 km/h (0 Bft) 95,65 %
11.12.2019 05:25 23,0 C -4,6 C 46 % 80 % 1022,0 hPa 0,0 l/m 0,0 km/h (0 Bft) N 0 0,000 mm -7,5 C -4,6 C 0,0 km/h (0 Bft) 95,65 %
11.12.2019 05:24 23,0 C -4,6 C 46 % 80 % 1022,0 hPa 0,0 l/m 0,0 km/h (0 Bft) N 0 0,000 mm -7,5 C -4,6 C 0,0 km/h (0 Bft) 100,00 %
11.12.2019 05:23 23,0 C -4,6 C 46 % 80 % 1022,0 hPa 0,0 l/m 0,0 km/h (0 Bft) N 0 0,000 mm -7,5 C -4,6 C 0,0 km/h (0 Bft) 100,00 %
11.12.2019 05:22 23,0 C -4,6 C 46 % 80 % 1021,8 hPa 0,0 l/m 0,0 km/h (0 Bft) N 0 0,000 mm -7,5 C -4,6 C 0,0 km/h (0 Bft) 95,65 %
11.12.2019 05:21 23,0 C -4,6 C 46 % 80 % 1021,9 hPa 0,0 l/m 0,0 km/h (0 Bft) N 0 0,000 mm -7,5 C -4,6 C 0,0 km/h (0 Bft) 100,00 %
11.12.2019 05:20 23,0 C -4,6 C 46 % 80 % 1021,9 hPa 0,0 l/m 0,0 km/h (0 Bft) N 0 0,000 mm -7,5 C -4,6 C 0,0 km/h (0 Bft) 95,65 %
11.12.2019 05:19 23,0 C -4,6 C 46 % 80 % 1022,0 hPa 0,0 l/m 0,0 km/h (0 Bft) N 0 0,000 mm -7,5 C -4,6 C 0,0 km/h (0 Bft) 95,65 %
11.12.2019 05:18 23,0 C -4,6 C 46 % 80 % 1022,0 hPa 0,0 l/m 1,6 km/h (1 Bft) N 360 0,000 mm -7,5 C -4,6 C 1,6 km/h (1 Bft) 100,00 %
11.12.2019 05:17 23,0 C -4,6 C 46 % 80 % 1022,0 hPa 0,0 l/m 1,6 km/h (1 Bft) N 360 0,000 mm -7,5 C -4,6 C 1,6 km/h (1 Bft) 95,65 %
11.12.2019 05:16 23,0 C -4,6 C 46 % 80 % 1022,0 hPa 0,0 l/m 1,6 km/h (1 Bft) N 360 0,000 mm -7,5 C -4,6 C 3,2 km/h (1 Bft) 100,00 %
11.12.2019 05:15 23,0 C -4,6 C 46 % 80 % 1022,0 hPa 0,0 l/m 1,6 km/h (1 Bft) N 360 0,000 mm -7,5 C -4,6 C 3,2 km/h (1 Bft) 95,65 %
11.12.2019 05:14 23,0 C -4,6 C 46 % 80 % 1022,1 hPa 0,0 l/m 1,6 km/h (1 Bft) N 360 0,000 mm -7,5 C -4,6 C 1,6 km/h (1 Bft) 100,00 %
11.12.2019 05:13 23,0 C -4,6 C 46 % 80 % 1022,0 hPa 0,0 l/m 0,0 km/h (0 Bft) N 360 0,000 mm -7,5 C -4,6 C 1,6 km/h (1 Bft) 100,00 %
11.12.2019 05:12 23,0 C -4,6 C 46 % 80 % 1022,1 hPa 0,0 l/m 0,0 km/h (0 Bft) N 360 0,000 mm -7,5 C -4,6 C 1,6 km/h (1 Bft) 100,00 %
11.12.2019 05:11 23,0 C -4,6 C 46 % 80 % 1022,1 hPa 0,0 l/m 0,0 km/h (0 Bft) N 360 0,000 mm -7,5 C -4,6 C 1,6 km/h (1 Bft) 100,00 %
11.12.2019 05:10 23,0 C -4,5 C 46 % 80 % 1022,1 hPa 0,0 l/m 1,6 km/h (1 Bft) N 360 0,000 mm -7,4 C -4,5 C 1,6 km/h (1 Bft) 100,00 %
11.12.2019 05:09 22,9 C -4,5 C 46 % 80 % 1022,2 hPa 0,0 l/m 1,6 km/h (1 Bft) N 360 0,000 mm -7,4 C -4,5 C 3,2 km/h (1 Bft) 100,00 %
11.12.2019 05:08 23,0 C -4,4 C 46 % 80 % 1022,1 hPa 0,0 l/m 1,6 km/h (1 Bft) N 360 0,000 mm -7,3 C -4,4 C 1,6 km/h (1 Bft) 100,00 %
11.12.2019 05:07 23,0 C -4,4 C 46 % 80 % 1022,2 hPa 0,0 l/m 0,0 km/h (0 Bft) N 0 0,000 mm -7,3 C -4,4 C 0,0 km/h (0 Bft) 100,00 %
11.12.2019 05:06 23,0 C -4,4 C 46 % 80 % 1022,2 hPa 0,0 l/m 0,0 km/h (0 Bft) N 0 0,000 mm -7,3 C -4,4 C 0,0 km/h (0 Bft) 100,00 %
11.12.2019 05:05 22,9 C -4,3 C 46 % 80 % 1022,2 hPa 0,0 l/m 0,0 km/h (0 Bft) N 0 0,000 mm -7,2 C -4,3 C 0,0 km/h (0 Bft) 95,65 %
11.12.2019 05:04 22,9 C -4,3 C 46 % 80 % 1022,2 hPa 0,0 l/m 0,0 km/h (0 Bft) N 0 0,000 mm -7,2 C -4,3 C 0,0 km/h (0 Bft) 100,00 %
11.12.2019 05:03 23,0 C -4,3 C 46 % 80 % 1022,3 hPa 0,0 l/m 0,0 km/h (0 Bft) N 0 0,000 mm -7,2 C -4,3 C 0,0 km/h (0 Bft) 95,65 %
11.12.2019 05:02 23,0 C -4,3 C 46 % 80 % 1022,3 hPa 0,0 l/m 0,0 km/h (0 Bft) N 360 0,000 mm -7,2 C -4,3 C 1,6 km/h (1 Bft) 100,00 %
11.12.2019 05:01 22,9 C -4,3 C 46 % 80 % 1022,3 hPa 0,0 l/m 1,6 km/h (1 Bft) N 360 0,000 mm -7,2 C -4,3 C 1,6 km/h (1 Bft) 100,00 %
11.12.2019 05:00 23,0 C -4,2 C 46 % 80 % 1022,4 hPa 0,0 l/m 1,6 km/h (1 Bft) N 360 0,000 mm -7,1 C -4,2 C 1,6 km/h (1 Bft) 95,65 %
11.12.2019 04:59 23,0 C -4,2 C 46 % 80 % 1022,3 hPa 0,0 l/m 1,6 km/h (1 Bft) N 360 0,000 mm -7,1 C -4,2 C 3,2 km/h (1 Bft) 100,00 %
11.12.2019 04:58 23,0 C -4,2 C 46 % 80 % 1022,3 hPa 0,0 l/m 1,6 km/h (1 Bft) N 360 0,000 mm -7,1 C -4,2 C 3,2 km/h (1 Bft) 100,00 %
11.12.2019 04:57 23,0 C -4,2 C 46 % 80 % 1022,4 hPa 0,0 l/m 1,6 km/h (1 Bft) N 360 0,000 mm -7,1 C -4,2 C 3,2 km/h (1 Bft) 100,00 %
11.12.2019 04:56 23,0 C -4,1 C 46 % 80 % 1022,4 hPa 0,0 l/m 1,6 km/h (1 Bft) N 360 0,000 mm -7,0 C -4,1 C 3,2 km/h (1 Bft) 100,00 %
11.12.2019 04:55 23,0 C -4,1 C 46 % 80 % 1022,4 hPa 0,0 l/m 0,0 km/h (0 Bft) N 0 0,000 mm -7,0 C -4,1 C 0,0 km/h (0 Bft) 95,65 %
11.12.2019 04:54 23,0 C -4,1 C 46 % 80 % 1022,5 hPa 0,0 l/m 0,0 km/h (0 Bft) N 0 0,000 mm -7,0 C -4,1 C 0,0 km/h (0 Bft) 100,00 %
11.12.2019 04:53 22,9 C -4,1 C 46 % 80 % 1022,4 hPa 0,0 l/m 0,0 km/h (0 Bft) N 0 0,000 mm -7,0 C -4,1 C 0,0 km/h (0 Bft) 100,00 %
11.12.2019 04:52 22,9 C -4,1 C 46 % 80 % 1022,4 hPa 0,0 l/m 0,0 km/h (0 Bft) N 0 0,000 mm -7,0 C -4,1 C 0,0 km/h (0 Bft) 100,00 %
11.12.2019 04:51 23,0 C -4,1 C 46 % 80 % 1022,4 hPa 0,0 l/m 0,0 km/h (0 Bft) N 0 0,000 mm -7,0 C -4,1 C 0,0 km/h (0 Bft) 95,65 %
11.12.2019 04:50 22,9 C -4,1 C 46 % 80 % 1022,4 hPa 0,0 l/m 0,0 km/h (0 Bft) N 0 0,000 mm -7,0 C -4,1 C 0,0 km/h (0 Bft) 100,00 %
11.12.2019 04:49 22,9 C -4,1 C 46 % 80 % 1022,4 hPa 0,0 l/m 0,0 km/h (0 Bft) N 0 0,000 mm -7,0 C -4,1 C 0,0 km/h (0 Bft) 100,00 %
11.12.2019 04:48 22,9 C -4,0 C 46 % 80 % 1022,5 hPa 0,0 l/m 0,0 km/h (0 Bft) N 360 0,000 mm -6,9 C -4,0 C 1,6 km/h (1 Bft) 95,65 %
11.12.2019 04:47 22,9 C -4,1 C 46 % 80 % 1022,5 hPa 0,0 l/m 1,6 km/h (1 Bft) N 360 0,000 mm -7,0 C -4,1 C 3,2 km/h (1 Bft) 100,00 %
11.12.2019 04:46 23,0 C -4,0 C 46 % 80 % 1022,5 hPa 0,0 l/m 1,6 km/h (1 Bft) N 360 0,000 mm -6,9 C -4,0 C 3,2 km/h (1 Bft) 100,00 %
11.12.2019 04:45 23,0 C -4,0 C 46 % 80 % 1022,5 hPa 0,0 l/m 0,0 km/h (0 Bft) N 360 0,000 mm -6,9 C -4,0 C 1,6 km/h (1 Bft) 95,65 %
11.12.2019 04:44 23,0 C -4,0 C 46 % 80 % 1022,5 hPa 0,0 l/m 1,6 km/h (1 Bft) N 360 0,000 mm -6,9 C -4,0 C 3,2 km/h (1 Bft) 100,00 %
11.12.2019 04:43 22,9 C -4,0 C 46 % 80 % 1022,5 hPa 0,0 l/m 1,6 km/h (1 Bft) N 360 0,000 mm -6,9 C -4,0 C 3,2 km/h (1 Bft) 95,65 %
11.12.2019 04:42 22,9 C -4,0 C 46 % 80 % 1022,7 hPa 0,0 l/m 0,0 km/h (0 Bft) N 360 0,000 mm -6,9 C -4,0 C 1,6 km/h (1 Bft) 100,00 %
11.12.2019 04:41 23,0 C -4,0 C 46 % 80 % 1022,6 hPa 0,0 l/m 0,0 km/h (0 Bft) N 360 0,000 mm -6,9 C -4,0 C 1,6 km/h (1 Bft) 100,00 %
11.12.2019 04:40 23,0 C -3,9 C 46 % 80 % 1022,6 hPa 0,0 l/m 1,6 km/h (1 Bft) N 360 0,000 mm -6,8 C -3,9 C 3,2 km/h (1 Bft) 100,00 %
11.12.2019 04:39 22,9 C -4,0 C 46 % 80 % 1022,7 hPa 0,0 l/m 3,2 km/h (1 Bft) N 360 0,000 mm -6,9 C -4,0 C 3,2 km/h (1 Bft) 95,65 %
11.12.2019 04:38 22,9 C -3,9 C 46 % 80 % 1022,7 hPa 0,0 l/m 3,2 km/h (1 Bft) N 360 0,000 mm -6,8 C -3,9 C 4,8 km/h (1 Bft) 100,00 %
11.12.2019 04:37 22,9 C -3,9 C 46 % 80 % 1022,7 hPa 0,0 l/m 3,2 km/h (1 Bft) N 360 0,000 mm -6,8 C -3,9 C 3,2 km/h (1 Bft) 100,00 %
11.12.2019 04:36 22,9 C -3,9 C 46 % 80 % 1022,7 hPa 0,0 l/m 3,2 km/h (1 Bft) N 360 0,000 mm -6,8 C -3,9 C 3,2 km/h (1 Bft) 95,65 %
11.12.2019 04:35 23,0 C -3,9 C 46 % 80 % 1022,7 hPa 0,0 l/m 3,2 km/h (1 Bft) N 360 0,000 mm -6,8 C -3,9 C 4,8 km/h (1 Bft) 100,00 %
11.12.2019 04:34 22,9 C -3,9 C 46 % 80 % 1022,7 hPa 0,0 l/m 1,6 km/h (1 Bft) N 360 0,000 mm -6,8 C -3,9 C 3,2 km/h (1 Bft) 100,00 %
11.12.2019 04:33 22,9 C -3,9 C 46 % 80 % 1022,7 hPa 0,0 l/m 3,2 km/h (1 Bft) N 360 0,000 mm -6,8 C -3,9 C 4,8 km/h (1 Bft) 95,65 %
11.12.2019 04:32 22,9 C -3,9 C 46 % 80 % 1022,8 hPa 0,0 l/m 3,2 km/h (1 Bft) N 360 0,000 mm -6,8 C -3,9 C 3,2 km/h (1 Bft) 100,00 %
11.12.2019 04:31 22,9 C -3,9 C 46 % 80 % 1022,8 hPa 0,0 l/m 3,2 km/h (1 Bft) N 360 0,000 mm -6,8 C -3,9 C 3,2 km/h (1 Bft) 95,65 %
11.12.2019 04:30 22,9 C -3,9 C 46 % 80 % 1022,8 hPa 0,0 l/m 3,2 km/h (1 Bft) N 360 0,000 mm -6,8 C -3,9 C 4,8 km/h (1 Bft) 100,00 %
11.12.2019 04:29 22,9 C -3,9 C 46 % 80 % 1022,8 hPa 0,0 l/m 3,2 km/h (1 Bft) N 360 0,000 mm -6,8 C -3,9 C 4,8 km/h (1 Bft) 100,00 %
11.12.2019 04:28 22,9 C -4,0 C 46 % 80 % 1022,9 hPa 0,0 l/m 3,2 km/h (1 Bft) N 360 0,000 mm -6,9 C -4,0 C 4,8 km/h (1 Bft) 95,65 %
11.12.2019 04:27 22,9 C -3,9 C 46 % 80 % 1022,9 hPa 0,0 l/m 3,2 km/h (1 Bft) N 360 0,000 mm -6,8 C -3,9 C 3,2 km/h (1 Bft) 100,00 %
11.12.2019 04:26 22,9 C -4,0 C 46 % 80 % 1022,9 hPa 0,0 l/m 3,2 km/h (1 Bft) N 360 0,000 mm -6,9 C -4,0 C 4,8 km/h (1 Bft) 100,00 %
11.12.2019 04:25 22,9 C -3,9 C 46 % 80 % 1022,9 hPa 0,0 l/m 1,6 km/h (1 Bft) N 360 0,000 mm -6,8 C -3,9 C 4,8 km/h (1 Bft) 100,00 %
11.12.2019 04:24 23,0 C -3,9 C 46 % 80 % 1022,9 hPa 0,0 l/m 0,0 km/h (0 Bft) N 0 0,000 mm -6,8 C -3,9 C 0,0 km/h (0 Bft) 100,00 %
11.12.2019 04:23 22,9 C -3,9 C 46 % 80 % 1023,0 hPa 0,0 l/m 0,0 km/h (0 Bft) N 0 0,000 mm -6,8 C -3,9 C 0,0 km/h (0 Bft) 100,00 %
11.12.2019 04:22 22,9 C -3,9 C 46 % 80 % 1022,9 hPa 0,0 l/m 0,0 km/h (0 Bft) N 0 0,000 mm -6,8 C -3,9 C 0,0 km/h (0 Bft) 100,00 %
11.12.2019 04:21 22,9 C -3,9 C 46 % 80 % 1022,9 hPa 0,0 l/m 0,0 km/h (0 Bft) N 0 0,000 mm -6,8 C -3,9 C 0,0 km/h (0 Bft) 95,65 %
11.12.2019 04:20 22,9 C -3,9 C 46 % 80 % 1022,9 hPa 0,0 l/m 0,0 km/h (0 Bft) N 0 0,000 mm -6,8 C -3,9 C 0,0 km/h (0 Bft) 100,00 %
11.12.2019 04:19 22,9 C -3,9 C 46 % 80 % 1023,0 hPa 0,0 l/m 0,0 km/h (0 Bft) N 0 0,000 mm -6,8 C -3,9 C 0,0 km/h (0 Bft) 100,00 %
11.12.2019 04:18 22,9 C -3,9 C 46 % 80 % 1023,0 hPa 0,0 l/m 0,0 km/h (0 Bft) N 0 0,000 mm -6,8 C -3,9 C 0,0 km/h (0 Bft) 100,00 %
11.12.2019 04:17 22,9 C -3,9 C 46 % 80 % 1022,9 hPa 0,0 l/m 0,0 km/h (0 Bft) N 0 0,000 mm -6,8 C -3,9 C 0,0 km/h (0 Bft) 100,00 %
11.12.2019 04:16 22,9 C -3,9 C 46 % 80 % 1022,9 hPa 0,0 l/m 0,0 km/h (0 Bft) N 0 0,000 mm -6,8 C -3,9 C 0,0 km/h (0 Bft) 100,00 %
11.12.2019 04:15 22,9 C -3,9 C 46 % 80 % 1022,9 hPa 0,0 l/m 0,0 km/h (0 Bft) N 0 0,000 mm -6,8 C -3,9 C 0,0 km/h (0 Bft) 100,00 %
11.12.2019 04:14 22,9 C -3,9 C 46 % 80 % 1023,0 hPa 0,0 l/m 0,0 km/h (0 Bft) N 0 0,000 mm -6,8 C -3,9 C 0,0 km/h (0 Bft) 100,00 %
11.12.2019 04:13 22,9 C -3,9 C 46 % 80 % 1023,0 hPa 0,0 l/m 0,0 km/h (0 Bft) N 0 0,000 mm -6,8 C -3,9 C 0,0 km/h (0 Bft) 100,00 %
11.12.2019 04:12 22,9 C -3,9 C 46 % 80 % 1023,0 hPa 0,0 l/m 0,0 km/h (0 Bft) N 0 0,000 mm -6,8 C -3,9 C 0,0 km/h (0 Bft) 95,65 %
11.12.2019 04:11 22,9 C -3,8 C 46 % 80 % 1023,0 hPa 0,0 l/m 0,0 km/h (0 Bft) N 0 0,000 mm -6,7 C -3,8 C 0,0 km/h (0 Bft) 95,65 %
11.12.2019 04:10 22,9 C -3,8 C 46 % 80 % 1023,0 hPa 0,0 l/m 0,0 km/h (0 Bft) N 0 0,000 mm -6,7 C -3,8 C 0,0 km/h (0 Bft) 95,65 %
11.12.2019 04:09 22,9 C -3,8 C 46 % 80 % 1023,0 hPa 0,0 l/m 0,0 km/h (0 Bft) N 0 0,000 mm -6,7 C -3,8 C 0,0 km/h (0 Bft) 95,65 %
11.12.2019 04:08 22,9 C -3,8 C 46 % 80 % 1023,1 hPa 0,0 l/m 0,0 km/h (0 Bft) N 0 0,000 mm -6,7 C -3,8 C 0,0 km/h (0 Bft) 100,00 %
11.12.2019 04:07 22,9 C -3,8 C 46 % 80 % 1023,0 hPa 0,0 l/m 0,0 km/h (0 Bft) N 0 0,000 mm -6,7 C -3,8 C 0,0 km/h (0 Bft) 100,00 %
11.12.2019 04:06 22,9 C -3,8 C 46 % 80 % 1023,1 hPa 0,0 l/m 0,0 km/h (0 Bft) N 0 0,000 mm -6,7 C -3,8 C 0,0 km/h (0 Bft) 100,00 %
11.12.2019 04:05 22,9 C -3,8 C 46 % 80 % 1023,1 hPa 0,0 l/m 0,0 km/h (0 Bft) N 0 0,000 mm -6,7 C -3,8 C 0,0 km/h (0 Bft) 100,00 %
11.12.2019 04:04 22,9 C -3,8 C 46 % 80 % 1023,0 hPa 0,0 l/m 0,0 km/h (0 Bft) N 0 0,000 mm -6,7 C -3,8 C 0,0 km/h (0 Bft) 100,00 %
11.12.2019 04:03 22,9 C -3,8 C 46 % 80 % 1023,1 hPa 0,0 l/m 0,0 km/h (0 Bft) N 0 0,000 mm -6,7 C -3,8 C 0,0 km/h (0 Bft) 100,00 %
11.12.2019 04:02 22,9 C -3,8 C 46 % 80 % 1023,0 hPa 0,0 l/m 0,0 km/h (0 Bft) N 0 0,000 mm -6,7 C -3,8 C 0,0 km/h (0 Bft) 100,00 %
11.12.2019 04:01 22,9 C -3,8 C 46 % 80 % 1023,1 hPa 0,0 l/m 0,0 km/h (0 Bft) N 0 0,000 mm -6,7 C -3,8 C 0,0 km/h (0 Bft) 100,00 %
11.12.2019 04:00 22,9 C -3,8 C 46 % 80 % 1023,1 hPa 0,0 l/m 0,0 km/h (0 Bft) N 0 0,000 mm -6,7 C -3,8 C 0,0 km/h (0 Bft) 100,00 %
11.12.2019 03:59 22,9 C -3,8 C 46 % 80 % 1023,1 hPa 0,0 l/m 0,0 km/h (0 Bft) N 0 0,000 mm -6,7 C -3,8 C 0,0 km/h (0 Bft) 100,00 %
11.12.2019 03:58 22,9 C -3,7 C 46 % 80 % 1023,1 hPa 0,0 l/m 0,0 km/h (0 Bft) N 0 0,000 mm -6,6 C -3,7 C 0,0 km/h (0 Bft) 100,00 %
11.12.2019 03:57 22,9 C -3,8 C 46 % 80 % 1023,1 hPa 0,0 l/m 0,0 km/h (0 Bft) N 0 0,000 mm -6,7 C -3,8 C 0,0 km/h (0 Bft) 100,00 %
11.12.2019 03:56 22,9 C -3,8 C 46 % 80 % 1023,1 hPa 0,0 l/m 0,0 km/h (0 Bft) N 0 0,000 mm -6,7 C -3,8 C 0,0 km/h (0 Bft) 100,00 %
11.12.2019 03:55 22,9 C -3,7 C 46 % 80 % 1023,2 hPa 0,0 l/m 0,0 km/h (0 Bft) N 0 0,000 mm -6,6 C -3,7 C 0,0 km/h (0 Bft) 100,00 %
11.12.2019 03:54 22,9 C -3,7 C 46 % 80 % 1023,2 hPa 0,0 l/m 0,0 km/h (0 Bft) N 0 0,000 mm -6,6 C -3,7 C 0,0 km/h (0 Bft) 100,00 %
11.12.2019 03:53 22,9 C -3,7 C 46 % 80 % 1023,3 hPa 0,0 l/m 0,0 km/h (0 Bft) N 0 0,000 mm -6,6 C -3,7 C 0,0 km/h (0 Bft) 100,00 %
11.12.2019 03:52 22,9 C -3,7 C 46 % 80 % 1023,3 hPa 0,0 l/m 0,0 km/h (0 Bft) N 0 0,000 mm -6,6 C -3,7 C 0,0 km/h (0 Bft) 91,30 %
11.12.2019 03:51 22,9 C -3,7 C 46 % 80 % 1023,3 hPa 0,0 l/m 0,0 km/h (0 Bft) N 0 0,000 mm -6,6 C -3,7 C 0,0 km/h (0 Bft) 100,00 %
11.12.2019 03:50 22,9 C -3,7 C 46 % 80 % 1023,3 hPa 0,0 l/m 0,0 km/h (0 Bft) N 0 0,000 mm -6,6 C -3,7 C 0,0 km/h (0 Bft) 100,00 %
11.12.2019 03:49 22,9 C -3,7 C 46 % 80 % 1023,3 hPa 0,0 l/m 0,0 km/h (0 Bft) N 0 0,000 mm -6,6 C -3,7 C 0,0 km/h (0 Bft) 100,00 %
11.12.2019 03:48 22,9 C -3,7 C 46 % 80 % 1023,4 hPa 0,0 l/m 0,0 km/h (0 Bft) N 0 0,000 mm -6,6 C -3,7 C 0,0 km/h (0 Bft) 100,00 %
11.12.2019 03:47 22,9 C -3,7 C 46 % 80 % 1023,4 hPa 0,0 l/m 0,0 km/h (0 Bft) N 0 0,000 mm -6,6 C -3,7 C 0,0 km/h (0 Bft) 95,65 %
11.12.2019 03:46 22,9 C -3,7 C 46 % 80 % 1023,4 hPa 0,0 l/m 0,0 km/h (0 Bft) N 0 0,000 mm -6,6 C -3,7 C 0,0 km/h (0 Bft) 100,00 %
11.12.2019 03:45 22,9 C -3,7 C 46 % 80 % 1023,3 hPa 0,0 l/m 0,0 km/h (0 Bft) N 0 0,000 mm -6,6 C -3,7 C 0,0 km/h (0 Bft) 100,00 %
11.12.2019 03:44 22,9 C -3,7 C 46 % 80 % 1023,3 hPa 0,0 l/m 0,0 km/h (0 Bft) N 0 0,000 mm -6,6 C -3,7 C 0,0 km/h (0 Bft) 100,00 %
11.12.2019 03:43 22,9 C -3,7 C 46 % 80 % 1023,4 hPa 0,0 l/m 0,0 km/h (0 Bft) N 0 0,000 mm -6,6 C -3,7 C 0,0 km/h (0 Bft) 95,65 %
11.12.2019 03:42 22,9 C -3,7 C 46 % 80 % 1023,4 hPa 0,0 l/m 0,0 km/h (0 Bft) N 0 0,000 mm -6,6 C -3,7 C 0,0 km/h (0 Bft) 100,00 %
11.12.2019 03:41 22,9 C -3,7 C 46 % 80 % 1023,4 hPa 0,0 l/m 0,0 km/h (0 Bft) N 0 0,000 mm -6,6 C -3,7 C 0,0 km/h (0 Bft) 100,00 %
11.12.2019 03:40 22,9 C -3,7 C 46 % 80 % 1023,4 hPa 0,0 l/m 0,0 km/h (0 Bft) N 0 0,000 mm -6,6 C -3,7 C 0,0 km/h (0 Bft) 100,00 %
11.12.2019 03:39 22,9 C -3,7 C 46 % 80 % 1023,4 hPa 0,0 l/m 0,0 km/h (0 Bft) N 0 0,000 mm -6,6 C -3,7 C 0,0 km/h (0 Bft) 100,00 %
11.12.2019 03:38 22,9 C -3,7 C 46 % 80 % 1023,4 hPa 0,0 l/m 0,0 km/h (0 Bft) N 0 0,000 mm -6,6 C -3,7 C 0,0 km/h (0 Bft) 100,00 %
11.12.2019 03:37 22,9 C -3,7 C 46 % 80 % 1023,4 hPa 0,0 l/m 0,0 km/h (0 Bft) N 0 0,000 mm -6,6 C -3,7 C 0,0 km/h (0 Bft) 100,00 %
11.12.2019 03:36 22,9 C -3,7 C 46 % 80 % 1023,4 hPa 0,0 l/m 0,0 km/h (0 Bft) N 0 0,000 mm -6,6 C -3,7 C 0,0 km/h (0 Bft) 95,65 %
11.12.2019 03:35 22,8 C -3,7 C 46 % 80 % 1023,5 hPa 0,0 l/m 0,0 km/h (0 Bft) N 0 0,000 mm -6,6 C -3,7 C 0,0 km/h (0 Bft) 100,00 %
11.12.2019 03:34 22,9 C -3,7 C 46 % 80 % 1023,6 hPa 0,0 l/m 0,0 km/h (0 Bft) N 0 0,000 mm -6,6 C -3,7 C 0,0 km/h (0 Bft) 100,00 %
11.12.2019 03:33 22,9 C -3,7 C 45 % 80 % 1023,5 hPa 0,0 l/m 0,0 km/h (0 Bft) N 0 0,000 mm -6,6 C -3,7 C 0,0 km/h (0 Bft) 100,00 %
11.12.2019 03:32 22,8 C -3,7 C 46 % 80 % 1023,6 hPa 0,0 l/m 0,0 km/h (0 Bft) N 0 0,000 mm -6,6 C -3,7 C 0,0 km/h (0 Bft) 100,00 %
11.12.2019 03:31 22,9 C -3,7 C 45 % 80 % 1023,6 hPa 0,0 l/m 0,0 km/h (0 Bft) N 0 0,000 mm -6,6 C -3,7 C 0,0 km/h (0 Bft) 100,00 %
11.12.2019 03:30 22,9 C -3,7 C 46 % 80 % 1023,6 hPa 0,0 l/m 0,0 km/h (0 Bft) N 0 0,000 mm -6,6 C -3,7 C 0,0 km/h (0 Bft) 100,00 %
11.12.2019 03:29 22,8 C -3,7 C 46 % 80 % 1023,7 hPa 0,0 l/m 0,0 km/h (0 Bft) N 0 0,000 mm -6,6 C -3,7 C 0,0 km/h (0 Bft) 95,65 %
11.12.2019 03:28 22,8 C -3,7 C 46 % 80 % 1023,8 hPa 0,0 l/m 0,0 km/h (0 Bft) N 0 0,000 mm -6,6 C -3,7 C 0,0 km/h (0 Bft) 95,65 %
11.12.2019 03:27 22,8 C -3,7 C 46 % 80 % 1023,8 hPa 0,0 l/m 0,0 km/h (0 Bft) N 0 0,000 mm -6,6 C -3,7 C 0,0 km/h (0 Bft) 100,00 %
11.12.2019 03:26 22,8 C -3,7 C 46 % 80 % 1023,9 hPa 0,0 l/m 0,0 km/h (0 Bft) N 0 0,000 mm -6,6 C -3,7 C 0,0 km/h (0 Bft) 100,00 %
11.12.2019 03:25 22,9 C -3,7 C 45 % 80 % 1023,9 hPa 0,0 l/m 0,0 km/h (0 Bft) N 0 0,000 mm -6,6 C -3,7 C 0,0 km/h (0 Bft) 100,00 %
11.12.2019 03:24 22,8 C -3,7 C 45 % 80 % 1024,0 hPa 0,0 l/m 0,0 km/h (0 Bft) N 0 0,000 mm -6,6 C -3,7 C 0,0 km/h (0 Bft) 100,00 %
11.12.2019 03:23 22,8 C -3,7 C 45 % 80 % 1024,0 hPa 0,0 l/m 0,0 km/h (0 Bft) N 0 0,000 mm -6,6 C -3,7 C 0,0 km/h (0 Bft) 95,65 %
11.12.2019 03:22 22,9 C -3,7 C 45 % 80 % 1024,0 hPa 0,0 l/m 0,0 km/h (0 Bft) N 0 0,000 mm -6,6 C -3,7 C 0,0 km/h (0 Bft) 100,00 %
11.12.2019 03:21 22,8 C -3,7 C 45 % 80 % 1024,0 hPa 0,0 l/m 0,0 km/h (0 Bft) N 0 0,000 mm -6,6 C -3,7 C 0,0 km/h (0 Bft) 100,00 %
11.12.2019 03:20 22,8 C -3,7 C 45 % 80 % 1024,0 hPa 0,0 l/m 0,0 km/h (0 Bft) N 0 0,000 mm -6,6 C -3,7 C 0,0 km/h (0 Bft) 100,00 %
11.12.2019 03:19 22,8 C -3,7 C 45 % 80 % 1024,0 hPa 0,0 l/m 0,0 km/h (0 Bft) N 0 0,000 mm -6,6 C -3,7 C 0,0 km/h (0 Bft) 100,00 %
11.12.2019 03:18 22,8 C -3,7 C 45 % 80 % 1024,0 hPa 0,0 l/m 0,0 km/h (0 Bft) N 0 0,000 mm -6,6 C -3,7 C 0,0 km/h (0 Bft) 100,00 %
11.12.2019 03:17 22,8 C -3,7 C 45 % 80 % 1024,0 hPa 0,0 l/m 0,0 km/h (0 Bft) N 0 0,000 mm -6,6 C -3,7 C 0,0 km/h (0 Bft) 95,65 %
11.12.2019 03:16 22,8 C -3,7 C 45 % 80 % 1024,0 hPa 0,0 l/m 0,0 km/h (0 Bft) N 0 0,000 mm -6,6 C -3,7 C 0,0 km/h (0 Bft) 91,30 %
11.12.2019 03:15 22,8 C -3,7 C 45 % 80 % 1024,1 hPa 0,0 l/m 0,0 km/h (0 Bft) N 0 0,000 mm -6,6 C -3,7 C 0,0 km/h (0 Bft) 100,00 %
11.12.2019 03:14 22,8 C -3,6 C 45 % 80 % 1024,1 hPa 0,0 l/m 0,0 km/h (0 Bft) N 0 0,000 mm -6,5 C -3,6 C 0,0 km/h (0 Bft) 95,65 %
11.12.2019 03:13 22,8 C -3,6 C 45 % 80 % 1024,1 hPa 0,0 l/m 0,0 km/h (0 Bft) N 0 0,000 mm -6,5 C -3,6 C 0,0 km/h (0 Bft) 100,00 %
11.12.2019 03:12 22,8 C -3,6 C 45 % 80 % 1024,1 hPa 0,0 l/m 0,0 km/h (0 Bft) N 0 0,000 mm -6,5 C -3,6 C 0,0 km/h (0 Bft) 100,00 %
11.12.2019 03:11 22,8 C -3,6 C 45 % 80 % 1024,1 hPa 0,0 l/m 0,0 km/h (0 Bft) N 0 0,000 mm -6,5 C -3,6 C 0,0 km/h (0 Bft) 100,00 %
11.12.2019 03:10 22,8 C -3,5 C 45 % 80 % 1024,1 hPa 0,0 l/m 0,0 km/h (0 Bft) N 0 0,000 mm -6,4 C -3,5 C 0,0 km/h (0 Bft) 100,00 %
11.12.2019 03:09 22,8 C -3,5 C 45 % 80 % 1024,2 hPa 0,0 l/m 0,0 km/h (0 Bft) N 0 0,000 mm -6,4 C -3,5 C 0,0 km/h (0 Bft) 100,00 %
11.12.2019 03:08 22,8 C -3,5 C 45 % 80 % 1024,2 hPa 0,0 l/m 0,0 km/h (0 Bft) N 0 0,000 mm -6,4 C -3,5 C 0,0 km/h (0 Bft) 100,00 %
11.12.2019 03:07 22,8 C -3,4 C 45 % 80 % 1024,2 hPa 0,0 l/m 0,0 km/h (0 Bft) N 0 0,000 mm -6,3 C -3,4 C 0,0 km/h (0 Bft) 100,00 %
11.12.2019 03:06 22,8 C -3,4 C 45 % 80 % 1024,3 hPa 0,0 l/m 0,0 km/h (0 Bft) N 0 0,000 mm -6,3 C -3,4 C 0,0 km/h (0 Bft) 95,65 %
11.12.2019 03:05 22,8 C -3,4 C 45 % 80 % 1024,3 hPa 0,0 l/m 0,0 km/h (0 Bft) N 0 0,000 mm -6,3 C -3,4 C 0,0 km/h (0 Bft) 100,00 %
11.12.2019 03:04 22,8 C -3,4 C 45 % 80 % 1024,3 hPa 0,0 l/m 0,0 km/h (0 Bft) N 0 0,000 mm -6,3 C -3,4 C 0,0 km/h (0 Bft) 100,00 %
11.12.2019 03:03 22,8 C -3,4 C 45 % 80 % 1024,3 hPa 0,0 l/m 0,0 km/h (0 Bft) N 0 0,000 mm -6,3 C -3,4 C 0,0 km/h (0 Bft) 100,00 %
11.12.2019 03:02 22,8 C -3,4 C 45 % 80 % 1024,4 hPa 0,0 l/m 0,0 km/h (0 Bft) N 0 0,000 mm -6,3 C -3,4 C 0,0 km/h (0 Bft) 100,00 %
11.12.2019 03:01 22,8 C -3,3 C 45 % 80 % 1024,4 hPa 0,0 l/m 0,0 km/h (0 Bft) N 0 0,000 mm -6,2 C -3,3 C 0,0 km/h (0 Bft) 100,00 %
11.12.2019 03:00 22,7 C -3,4 C 45 % 80 % 1024,4 hPa 0,0 l/m 0,0 km/h (0 Bft) N 0 0,000 mm -6,3 C -3,4 C 0,0 km/h (0 Bft) 95,65 %
11.12.2019 02:59 22,8 C -3,4 C 45 % 80 % 1024,4 hPa 0,0 l/m 0,0 km/h (0 Bft) N 0 0,000 mm -6,3 C -3,4 C 0,0 km/h (0 Bft) 100,00 %
11.12.2019 02:58 22,8 C -3,4 C 45 % 80 % 1024,5 hPa 0,0 l/m 0,0 km/h (0 Bft) N 0 0,000 mm -6,3 C -3,4 C 0,0 km/h (0 Bft) 100,00 %
11.12.2019 02:57 22,7 C -3,4 C 45 % 80 % 1024,6 hPa 0,0 l/m 0,0 km/h (0 Bft) N 0 0,000 mm -6,3 C -3,4 C 0,0 km/h (0 Bft) 100,00 %
11.12.2019 02:56 22,8 C -3,3 C 45 % 80 % 1024,5 hPa 0,0 l/m 0,0 km/h (0 Bft) N 0 0,000 mm -6,2 C -3,3 C 0,0 km/h (0 Bft) 100,00 %
11.12.2019 02:55 22,7 C -3,3 C 45 % 80 % 1024,7 hPa 0,0 l/m 0,0 km/h (0 Bft) N 0 0,000 mm -6,2 C -3,3 C 0,0 km/h (0 Bft) 95,65 %
11.12.2019 02:54 22,8 C -3,3 C 45 % 80 % 1024,7 hPa 0,0 l/m 0,0 km/h (0 Bft) N 0 0,000 mm -6,2 C -3,3 C 0,0 km/h (0 Bft) 100,00 %
11.12.2019 02:53 22,7 C -3,3 C 45 % 80 % 1024,7 hPa 0,0 l/m 0,0 km/h (0 Bft) N 0 0,000 mm -6,2 C -3,3 C 0,0 km/h (0 Bft) 100,00 %
11.12.2019 02:52 22,7 C -3,3 C 45 % 80 % 1024,8 hPa 0,0 l/m 0,0 km/h (0 Bft) N 0 0,000 mm -6,2 C -3,3 C 0,0 km/h (0 Bft) 100,00 %
11.12.2019 02:51 22,7 C -3,3 C 45 % 80 % 1025,2 hPa 0,0 l/m 0,0 km/h (0 Bft) N 0 0,000 mm -6,2 C -3,3 C 0,0 km/h (0 Bft) 91,30 %
11.12.2019 02:50 22,7 C -3,3 C 44 % 80 % 1024,8 hPa 0,0 l/m 0,0 km/h (0 Bft) N 0 0,000 mm -6,2 C -3,3 C 0,0 km/h (0 Bft) 100,00 %
11.12.2019 02:49 22,7 C -3,3 C 44 % 80 % 1024,8 hPa 0,0 l/m 0,0 km/h (0 Bft) N 0 0,000 mm -6,2 C -3,3 C 0,0 km/h (0 Bft) 100,00 %
11.12.2019 02:48 22,7 C -3,3 C 44 % 80 % 1024,7 hPa 0,0 l/m 0,0 km/h (0 Bft) N 0 0,000 mm -6,2 C -3,3 C 0,0 km/h (0 Bft) 100,00 %
11.12.2019 02:47 22,7 C -3,3 C 44 % 79 % 1024,8 hPa 0,0 l/m 0,0 km/h (0 Bft) N 0 0,000 mm -6,4 C -3,3 C 0,0 km/h (0 Bft) 95,65 %
11.12.2019 02:46 22,7 C -3,3 C 44 % 80 % 1024,8 hPa 0,0 l/m 0,0 km/h (0 Bft) N 0 0,000 mm -6,2 C -3,3 C 0,0 km/h (0 Bft) 100,00 %
11.12.2019 02:45 22,7 C -3,3 C 44 % 79 % 1024,7 hPa 0,0 l/m 0,0 km/h (0 Bft) N 0 0,000 mm -6,4 C -3,3 C 0,0 km/h (0 Bft) 100,00 %
11.12.2019 02:44 22,7 C -3,3 C 44 % 79 % 1024,8 hPa 0,0 l/m 0,0 km/h (0 Bft) N 0 0,000 mm -6,4 C -3,3 C 0,0 km/h (0 Bft) 100,00 %
11.12.2019 02:43 22,7 C -3,3 C 44 % 79 % 1024,7 hPa 0,0 l/m 0,0 km/h (0 Bft) N 0 0,000 mm -6,4 C -3,3 C 0,0 km/h (0 Bft) 100,00 %
11.12.2019 02:42 22,7 C -3,3 C 44 % 80 % 1024,8 hPa 0,0 l/m 0,0 km/h (0 Bft) N 0 0,000 mm -6,2 C -3,3 C 0,0 km/h (0 Bft) 100,00 %
11.12.2019 02:41 22,7 C -3,2 C 44 % 80 % 1024,8 hPa 0,0 l/m 0,0 km/h (0 Bft) N 0 0,000 mm -6,1 C -3,2 C 0,0 km/h (0 Bft) 100,00 %
11.12.2019 02:40 22,7 C -3,2 C 44 % 80 % 1024,9 hPa 0,0 l/m 0,0 km/h (0 Bft) N 0 0,000 mm -6,1 C -3,2 C 0,0 km/h (0 Bft) 100,00 %
11.12.2019 02:39 22,7 C -3,2 C 44 % 80 % 1024,9 hPa 0,0 l/m 0,0 km/h (0 Bft) N 0 0,000 mm -6,1 C -3,2 C 0,0 km/h (0 Bft) 100,00 %
11.12.2019 02:38 22,7 C -3,2 C 44 % 80 % 1024,9 hPa 0,0 l/m 0,0 km/h (0 Bft) N 0 0,000 mm -6,1 C -3,2 C 0,0 km/h (0 Bft) 100,00 %
11.12.2019 02:37 22,7 C -3,2 C 44 % 80 % 1024,9 hPa 0,0 l/m 0,0 km/h (0 Bft) N 0 0,000 mm -6,1 C -3,2 C 0,0 km/h (0 Bft) 100,00 %
11.12.2019 02:36 22,7 C -3,2 C 44 % 80 % 1024,9 hPa 0,0 l/m 0,0 km/h (0 Bft) N 0 0,000 mm -6,1 C -3,2 C 0,0 km/h (0 Bft) 100,00 %
11.12.2019 02:35 22,7 C -3,2 C 44 % 80 % 1024,9 hPa 0,0 l/m 0,0 km/h (0 Bft) N 0 0,000 mm -6,1 C -3,2 C 0,0 km/h (0 Bft) 100,00 %
11.12.2019 02:34 22,7 C -3,2 C 44 % 80 % 1024,9 hPa 0,0 l/m 0,0 km/h (0 Bft) N 0 0,000 mm -6,1 C -3,2 C 0,0 km/h (0 Bft) 100,00 %
11.12.2019 02:33 22,7 C -3,2 C 44 % 80 % 1024,9 hPa 0,0 l/m 0,0 km/h (0 Bft) N 0 0,000 mm -6,1 C -3,2 C 0,0 km/h (0 Bft) 100,00 %
11.12.2019 02:32 22,7 C -3,2 C 44 % 80 % 1025,0 hPa 0,0 l/m 0,0 km/h (0 Bft) N 0 0,000 mm -6,1 C -3,2 C 0,0 km/h (0 Bft) 100,00 %
11.12.2019 02:31 22,8 C -3,1 C 44 % 79 % 1025,0 hPa 0,0 l/m 0,0 km/h (0 Bft) N 0 0,000 mm -6,2 C -3,1 C 0,0 km/h (0 Bft) 100,00 %
11.12.2019 02:30 22,8 C -3,1 C 44 % 79 % 1024,9 hPa 0,0 l/m 0,0 km/h (0 Bft) N 0 0,000 mm -6,2 C -3,1 C 0,0 km/h (0 Bft) 100,00 %
11.12.2019 02:29 22,7 C -3,1 C 43 % 79 % 1025,0 hPa 0,0 l/m 0,0 km/h (0 Bft) N 0 0,000 mm -6,2 C -3,1 C 0,0 km/h (0 Bft) 100,00 %
11.12.2019 02:28 22,8 C -3,1 C 43 % 79 % 1025,0 hPa 0,0 l/m 0,0 km/h (0 Bft) N 0 0,000 mm -6,2 C -3,1 C 0,0 km/h (0 Bft) 100,00 %
11.12.2019 02:27 22,8 C -3,1 C 43 % 79 % 1025,1 hPa 0,0 l/m 0,0 km/h (0 Bft) N 0 0,000 mm -6,2 C -3,1 C 0,0 km/h (0 Bft) 100,00 %
11.12.2019 02:26 22,8 C -3,1 C 43 % 79 % 1025,1 hPa 0,0 l/m 0,0 km/h (0 Bft) N 0 0,000 mm -6,2 C -3,1 C 0,0 km/h (0 Bft) 100,00 %
11.12.2019 02:25 22,8 C -3,0 C 43 % 79 % 1025,1 hPa 0,0 l/m 0,0 km/h (0 Bft) N 0 0,000 mm -6,1 C -3,0 C 0,0 km/h (0 Bft) 95,65 %
11.12.2019 02:24 22,8 C -3,0 C 44 % 79 % 1025,1 hPa 0,0 l/m 0,0 km/h (0 Bft) N 0 0,000 mm -6,1 C -3,0 C 0,0 km/h (0 Bft) 100,00 %
11.12.2019 02:23 22,9 C -3,0 C 44 % 79 % 1025,2 hPa 0,0 l/m 0,0 km/h (0 Bft) N 0 0,000 mm -6,1 C -3,0 C 0,0 km/h (0 Bft) 100,00 %
11.12.2019 02:22 22,9 C -3,0 C 45 % 80 % 1025,1 hPa 0,0 l/m 0,0 km/h (0 Bft) N 0 0,000 mm -6,0 C -3,0 C 0,0 km/h (0 Bft) 100,00 %
11.12.2019 02:21 22,9 C -2,9 C 46 % 79 % 1025,1 hPa 0,0 l/m 0,0 km/h (0 Bft) N 0 0,000 mm -6,0 C -2,9 C 0,0 km/h (0 Bft) 100,00 %
11.12.2019 02:20 22,9 C -2,9 C 46 % 79 % 1025,1 hPa 0,0 l/m 0,0 km/h (0 Bft) N 0 0,000 mm -6,0 C -2,9 C 0,0 km/h (0 Bft) 100,00 %
11.12.2019 02:19 22,9 C -2,9 C 46 % 80 % 1025,1 hPa 0,0 l/m 0,0 km/h (0 Bft) N 0 0,000 mm -5,9 C -2,9 C 0,0 km/h (0 Bft) 100,00 %
11.12.2019 02:18 22,9 C -2,8 C 46 % 80 % 1025,1 hPa 0,0 l/m 0,0 km/h (0 Bft) N 0 0,000 mm -5,8 C -2,8 C 0,0 km/h (0 Bft) 95,65 %
11.12.2019 02:17 22,9 C -2,9 C 46 % 79 % 1025,1 hPa 0,0 l/m 0,0 km/h (0 Bft) N 0 0,000 mm -6,0 C -2,9 C 0,0 km/h (0 Bft) 100,00 %
11.12.2019 02:16 22,9 C -2,8 C 46 % 80 % 1025,1 hPa 0,0 l/m 0,0 km/h (0 Bft) N 0 0,000 mm -5,8 C -2,8 C 0,0 km/h (0 Bft) 100,00 %
11.12.2019 02:15 22,9 C -2,8 C 46 % 80 % 1025,2 hPa 0,0 l/m 0,0 km/h (0 Bft) N 0 0,000 mm -5,8 C -2,8 C 0,0 km/h (0 Bft) 100,00 %
11.12.2019 02:14 22,9 C -2,8 C 46 % 80 % 1025,2 hPa 0,0 l/m 0,0 km/h (0 Bft) N 0 0,000 mm -5,8 C -2,8 C 0,0 km/h (0 Bft) 100,00 %
11.12.2019 02:13 22,8 C -2,8 C 46 % 80 % 1025,2 hPa 0,0 l/m 0,0 km/h (0 Bft) N 0 0,000 mm -5,8 C -2,8 C 0,0 km/h (0 Bft) 100,00 %
11.12.2019 02:12 22,8 C -2,8 C 46 % 80 % 1025,1 hPa 0,0 l/m 0,0 km/h (0 Bft) N 0 0,000 mm -5,8 C -2,8 C 0,0 km/h (0 Bft) 100,00 %
11.12.2019 02:11 22,9 C -2,8 C 46 % 80 % 1025,2 hPa 0,0 l/m 0,0 km/h (0 Bft) N 0 0,000 mm -5,8 C -2,8 C 0,0 km/h (0 Bft) 95,65 %
11.12.2019 02:10 22,9 C -2,8 C 46 % 80 % 1025,3 hPa 0,0 l/m 0,0 km/h (0 Bft) N 0 0,000 mm -5,8 C -2,8 C 0,0 km/h (0 Bft) 100,00 %
11.12.2019 02:09 22,8 C -2,8 C 46 % 80 % 1025,2 hPa 0,0 l/m 0,0 km/h (0 Bft) N 0 0,000 mm -5,8 C -2,8 C 0,0 km/h (0 Bft) 95,65 %
11.12.2019 02:08 22,9 C -2,8 C 46 % 80 % 1025,2 hPa 0,0 l/m 0,0 km/h (0 Bft) N 0 0,000 mm -5,8 C -2,8 C 0,0 km/h (0 Bft) 100,00 %
11.12.2019 02:07 22,8 C -2,8 C 46 % 80 % 1025,2 hPa 0,0 l/m 0,0 km/h (0 Bft) N 0 0,000 mm -5,8 C -2,8 C 0,0 km/h (0 Bft) 95,65 %
11.12.2019 02:06 22,8 C -2,8 C 46 % 79 % 1025,3 hPa 0,0 l/m 0,0 km/h (0 Bft) N 0 0,000 mm -5,9 C -2,8 C 0,0 km/h (0 Bft) 100,00 %
11.12.2019 02:05 22,8 C -2,7 C 46 % 79 % 1025,3 hPa 0,0 l/m 0,0 km/h (0 Bft) N 0 0,000 mm -5,8 C -2,7 C 0,0 km/h (0 Bft) 100,00 %
11.12.2019 02:04 22,8 C -2,7 C 46 % 79 % 1025,3 hPa 0,0 l/m 0,0 km/h (0 Bft) N 0 0,000 mm -5,8 C -2,7 C 0,0 km/h (0 Bft) 100,00 %
11.12.2019 02:03 22,8 C -2,7 C 46 % 79 % 1025,3 hPa 0,0 l/m 0,0 km/h (0 Bft) N 0 0,000 mm -5,8 C -2,7 C 0,0 km/h (0 Bft) 100,00 %
11.12.2019 02:02 22,8 C -2,7 C 46 % 79 % 1025,4 hPa 0,0 l/m 0,0 km/h (0 Bft) N 0 0,000 mm -5,8 C -2,7 C 0,0 km/h (0 Bft) 100,00 %
11.12.2019 02:01 22,8 C -2,7 C 46 % 79 % 1025,4 hPa 0,0 l/m 0,0 km/h (0 Bft) N 0 0,000 mm -5,8 C -2,7 C 0,0 km/h (0 Bft) 100,00 %
11.12.2019 02:00 22,8 C -2,7 C 46 % 79 % 1025,4 hPa 0,0 l/m 0,0 km/h (0 Bft) N 0 0,000 mm -5,8 C -2,7 C 0,0 km/h (0 Bft) 100,00 %
11.12.2019 01:59 22,8 C -2,7 C 46 % 79 % 1025,4 hPa 0,0 l/m 0,0 km/h (0 Bft) N 0 0,000 mm -5,8 C -2,7 C 0,0 km/h (0 Bft) 100,00 %
11.12.2019 01:58 22,8 C -2,7 C 46 % 79 % 1025,5 hPa 0,0 l/m 0,0 km/h (0 Bft) N 0 0,000 mm -5,8 C -2,7 C 0,0 km/h (0 Bft) 100,00 %
11.12.2019 01:57 22,8 C -2,7 C 46 % 79 % 1025,5 hPa 0,0 l/m 0,0 km/h (0 Bft) N 0 0,000 mm -5,8 C -2,7 C 0,0 km/h (0 Bft) 95,65 %
11.12.2019 01:56 22,8 C -2,7 C 46 % 79 % 1025,4 hPa 0,0 l/m 0,0 km/h (0 Bft) N 0 0,000 mm -5,8 C -2,7 C 0,0 km/h (0 Bft) 100,00 %
11.12.2019 01:55 22,8 C -2,7 C 46 % 79 % 1025,5 hPa 0,0 l/m 0,0 km/h (0 Bft) N 0 0,000 mm -5,8 C -2,7 C 0,0 km/h (0 Bft) 100,00 %
11.12.2019 01:54 22,8 C -2,7 C 46 % 79 % 1025,5 hPa 0,0 l/m 0,0 km/h (0 Bft) N 0 0,000 mm -5,8 C -2,7 C 0,0 km/h (0 Bft) 100,00 %
11.12.2019 01:53 22,8 C -2,7 C 46 % 79 % 1025,5 hPa 0,0 l/m 0,0 km/h (0 Bft) N 0 0,000 mm -5,8 C -2,7 C 0,0 km/h (0 Bft) 100,00 %
11.12.2019 01:52 22,8 C -2,7 C 46 % 79 % 1025,6 hPa 0,0 l/m 0,0 km/h (0 Bft) N 0 0,000 mm -5,8 C -2,7 C 0,0 km/h (0 Bft) 100,00 %
11.12.2019 01:51 22,8 C -2,7 C 46 % 79 % 1025,5 hPa 0,0 l/m 0,0 km/h (0 Bft) N 0 0,000 mm -5,8 C -2,7 C 0,0 km/h (0 Bft) 100,00 %
11.12.2019 01:50 22,8 C -2,7 C 46 % 79 % 1025,7 hPa 0,0 l/m 0,0 km/h (0 Bft) N 0 0,000 mm -5,8 C -2,7 C 0,0 km/h (0 Bft) 95,65 %
11.12.2019 01:49 22,8 C -2,6 C 46 % 79 % 1025,6 hPa 0,0 l/m 0,0 km/h (0 Bft) N 0 0,000 mm -5,7 C -2,6 C 0,0 km/h (0 Bft) 100,00 %
11.12.2019 01:48 22,8 C -2,6 C 46 % 79 % 1025,6 hPa 0,0 l/m 0,0 km/h (0 Bft) N 0 0,000 mm -5,7 C -2,6 C 0,0 km/h (0 Bft) 100,00 %
11.12.2019 01:47 22,8 C -2,6 C 46 % 79 % 1025,6 hPa 0,0 l/m 0,0 km/h (0 Bft) N 0 0,000 mm -5,7 C -2,6 C 0,0 km/h (0 Bft) 100,00 %
11.12.2019 01:46 22,8 C -2,6 C 46 % 79 % 1025,6 hPa 0,0 l/m 0,0 km/h (0 Bft) N 0 0,000 mm -5,7 C -2,6 C 0,0 km/h (0 Bft) 100,00 %
11.12.2019 01:45 22,8 C -2,6 C 46 % 79 % 1025,6 hPa 0,0 l/m 0,0 km/h (0 Bft) N 0 0,000 mm -5,7 C -2,6 C 0,0 km/h (0 Bft) 100,00 %
11.12.2019 01:44 22,8 C -2,6 C 46 % 79 % 1025,6 hPa 0,0 l/m 0,0 km/h (0 Bft) N 0 0,000 mm -5,7 C -2,6 C 0,0 km/h (0 Bft) 100,00 %
11.12.2019 01:43 22,8 C -2,6 C 46 % 79 % 1025,6 hPa 0,0 l/m 0,0 km/h (0 Bft) N 0 0,000 mm -5,7 C -2,6 C 0,0 km/h (0 Bft) 100,00 %
11.12.2019 01:42 22,8 C -2,6 C 46 % 79 % 1025,7 hPa 0,0 l/m 0,0 km/h (0 Bft) N 0 0,000 mm -5,7 C -2,6 C 0,0 km/h (0 Bft) 100,00 %
11.12.2019 01:41 22,8 C -2,6 C 46 % 79 % 1025,7 hPa 0,0 l/m 0,0 km/h (0 Bft) N 0 0,000 mm -5,7 C -2,6 C 0,0 km/h (0 Bft) 100,00 %
11.12.2019 01:40 22,8 C -2,5 C 46 % 79 % 1025,7 hPa 0,0 l/m 0,0 km/h (0 Bft) N 0 0,000 mm -5,6 C -2,5 C 0,0 km/h (0 Bft) 100,00 %
11.12.2019 01:39 22,8 C -2,5 C 46 % 79 % 1025,8 hPa 0,0 l/m 0,0 km/h (0 Bft) N 0 0,000 mm -5,6 C -2,5 C 0,0 km/h (0 Bft) 100,00 %
11.12.2019 01:38 22,8 C -2,5 C 46 % 79 % 1025,7 hPa 0,0 l/m 0,0 km/h (0 Bft) N 0 0,000 mm -5,6 C -2,5 C 0,0 km/h (0 Bft) 95,65 %
11.12.2019 01:37 22,8 C -2,5 C 46 % 79 % 1025,8 hPa 0,0 l/m 0,0 km/h (0 Bft) N 0 0,000 mm -5,6 C -2,5 C 0,0 km/h (0 Bft) 95,65 %
11.12.2019 01:36 22,8 C -2,5 C 46 % 79 % 1025,8 hPa 0,0 l/m 0,0 km/h (0 Bft) N 0 0,000 mm -5,6 C -2,5 C 0,0 km/h (0 Bft) 100,00 %
11.12.2019 01:35 22,8 C -2,5 C 46 % 79 % 1025,8 hPa 0,0 l/m 0,0 km/h (0 Bft) N 0 0,000 mm -5,6 C -2,5 C 0,0 km/h (0 Bft) 100,00 %
11.12.2019 01:34 22,8 C -2,4 C 46 % 79 % 1025,8 hPa 0,0 l/m 0,0 km/h (0 Bft) N 0 0,000 mm -5,5 C -2,4 C 0,0 km/h (0 Bft) 100,00 %
11.12.2019 01:33 22,8 C -2,4 C 46 % 79 % 1025,8 hPa 0,0 l/m 0,0 km/h (0 Bft) N 0 0,000 mm -5,5 C -2,4 C 0,0 km/h (0 Bft) 95,65 %
11.12.2019 01:32 22,8 C -2,4 C 46 % 79 % 1025,7 hPa 0,0 l/m 0,0 km/h (0 Bft) N 0 0,000 mm -5,5 C -2,4 C 0,0 km/h (0 Bft) 100,00 %
11.12.2019 01:31 22,8 C -2,4 C 46 % 79 % 1025,8 hPa 0,0 l/m 0,0 km/h (0 Bft) N 0 0,000 mm -5,5 C -2,4 C 0,0 km/h (0 Bft) 100,00 %
11.12.2019 01:30 22,8 C -2,4 C 46 % 79 % 1025,8 hPa 0,0 l/m 0,0 km/h (0 Bft) N 0 0,000 mm -5,5 C -2,4 C 0,0 km/h (0 Bft) 95,65 %
11.12.2019 01:29 22,8 C -2,4 C 46 % 79 % 1025,8 hPa 0,0 l/m 0,0 km/h (0 Bft) N 0 0,000 mm -5,5 C -2,4 C 0,0 km/h (0 Bft) 95,65 %
11.12.2019 01:28 22,8 C -2,3 C 46 % 79 % 1025,9 hPa 0,0 l/m 0,0 km/h (0 Bft) N 0 0,000 mm -5,4 C -2,3 C 0,0 km/h (0 Bft) 100,00 %
11.12.2019 01:27 22,8 C -2,3 C 46 % 79 % 1025,8 hPa 0,0 l/m 0,0 km/h (0 Bft) N 0 0,000 mm -5,4 C -2,3 C 0,0 km/h (0 Bft) 95,65 %
11.12.2019 01:26 22,8 C -2,3 C 46 % 79 % 1025,9 hPa 0,0 l/m 0,0 km/h (0 Bft) N 0 0,000 mm -5,4 C -2,3 C 0,0 km/h (0 Bft) 95,65 %
11.12.2019 01:25 22,8 C -2,3 C 46 % 79 % 1025,9 hPa 0,0 l/m 0,0 km/h (0 Bft) N 0 0,000 mm -5,4 C -2,3 C 0,0 km/h (0 Bft) 100,00 %
11.12.2019 01:24 22,8 C -2,2 C 46 % 79 % 1026,0 hPa 0,0 l/m 0,0 km/h (0 Bft) N 0 0,000 mm -5,3 C -2,2 C 0,0 km/h (0 Bft) 100,00 %
11.12.2019 01:23 22,8 C -2,2 C 46 % 79 % 1026,0 hPa 0,0 l/m 0,0 km/h (0 Bft) N 0 0,000 mm -5,3 C -2,2 C 0,0 km/h (0 Bft) 100,00 %
11.12.2019 01:22 22,7 C -2,2 C 46 % 79 % 1026,0 hPa 0,0 l/m 0,0 km/h (0 Bft) N 0 0,000 mm -5,3 C -2,2 C 0,0 km/h (0 Bft) 100,00 %
11.12.2019 01:21 22,8 C -2,2 C 46 % 79 % 1025,9 hPa 0,0 l/m 0,0 km/h (0 Bft) N 0 0,000 mm -5,3 C -2,2 C 0,0 km/h (0 Bft) 95,65 %
11.12.2019 01:20 22,8 C -2,2 C 46 % 79 % 1025,8 hPa 0,0 l/m 0,0 km/h (0 Bft) N 0 0,000 mm -5,3 C -2,2 C 0,0 km/h (0 Bft) 100,00 %
11.12.2019 01:19 22,8 C -2,2 C 46 % 79 % 1025,9 hPa 0,0 l/m 0,0 km/h (0 Bft) N 0 0,000 mm -5,3 C -2,2 C 0,0 km/h (0 Bft) 100,00 %
11.12.2019 01:18 22,8 C -2,2 C 46 % 79 % 1025,9 hPa 0,0 l/m 0,0 km/h (0 Bft) N 0 0,000 mm -5,3 C -2,2 C 0,0 km/h (0 Bft) 100,00 %
11.12.2019 01:17 22,7 C -2,2 C 46 % 79 % 1025,9 hPa 0,0 l/m 0,0 km/h (0 Bft) N 0 0,000 mm -5,3 C -2,2 C 0,0 km/h (0 Bft) 100,00 %
11.12.2019 01:16 22,7 C -2,2 C 45 % 78 % 1026,0 hPa 0,0 l/m 0,0 km/h (0 Bft) N 0 0,000 mm -5,5 C -2,2 C 0,0 km/h (0 Bft) 100,00 %
11.12.2019 01:15 22,8 C -2,2 C 46 % 78 % 1026,1 hPa 0,0 l/m 0,0 km/h (0 Bft) N 0 0,000 mm -5,5 C -2,2 C 0,0 km/h (0 Bft) 100,00 %
11.12.2019 01:14 22,8 C -2,2 C 45 % 78 % 1026,0 hPa 0,0 l/m 0,0 km/h (0 Bft) N 0 0,000 mm -5,5 C -2,2 C 0,0 km/h (0 Bft) 100,00 %
11.12.2019 01:13 22,7 C -2,2 C 45 % 78 % 1026,1 hPa 0,0 l/m 0,0 km/h (0 Bft) N 0 0,000 mm -5,5 C -2,2 C 0,0 km/h (0 Bft) 91,30 %
11.12.2019 01:12 22,7 C -2,1 C 45 % 78 % 1026,1 hPa 0,0 l/m 0,0 km/h (0 Bft) N 0 0,000 mm -5,4 C -2,1 C 0,0 km/h (0 Bft) 100,00 %
11.12.2019 01:11 22,7 C -2,1 C 45 % 78 % 1026,1 hPa 0,0 l/m 0,0 km/h (0 Bft) N 0 0,000 mm -5,4 C -2,1 C 0,0 km/h (0 Bft) 100,00 %
11.12.2019 01:10 22,7 C -2,1 C 45 % 78 % 1026,1 hPa 0,0 l/m 0,0 km/h (0 Bft) N 0 0,000 mm -5,4 C -2,1 C 0,0 km/h (0 Bft) 100,00 %
11.12.2019 01:09 22,7 C -2,1 C 45 % 78 % 1026,1 hPa 0,0 l/m 0,0 km/h (0 Bft) N 0 0,000 mm -5,4 C -2,1 C 0,0 km/h (0 Bft) 100,00 %
11.12.2019 01:08 22,8 C -2,0 C 45 % 78 % 1026,2 hPa 0,0 l/m 0,0 km/h (0 Bft) N 0 0,000 mm -5,3 C -2,0 C 0,0 km/h (0 Bft) 100,00 %
11.12.2019 01:07 22,7 C -1,9 C 45 % 78 % 1026,2 hPa 0,0 l/m 0,0 km/h (0 Bft) N 0 0,000 mm -5,2 C -1,9 C 0,0 km/h (0 Bft) 100,00 %
11.12.2019 01:06 22,7 C -1,9 C 46 % 78 % 1026,2 hPa 0,0 l/m 0,0 km/h (0 Bft) N 0 0,000 mm -5,2 C -1,9 C 0,0 km/h (0 Bft) 95,65 %
11.12.2019 01:05 22,8 C -1,9 C 45 % 78 % 1026,2 hPa 0,0 l/m 0,0 km/h (0 Bft) N 0 0,000 mm -5,2 C -1,9 C 0,0 km/h (0 Bft) 100,00 %
11.12.2019 01:04 22,7 C -1,9 C 45 % 77 % 1026,1 hPa 0,0 l/m 0,0 km/h (0 Bft) N 0 0,000 mm -5,4 C -1,9 C 0,0 km/h (0 Bft) 95,65 %
11.12.2019 01:03 22,7 C -1,8 C 45 % 77 % 1026,1 hPa 0,0 l/m 0,0 km/h (0 Bft) N 0 0,000 mm -5,3 C -1,8 C 0,0 km/h (0 Bft) 100,00 %
11.12.2019 01:02 22,7 C -1,8 C 45 % 77 % 1026,1 hPa 0,0 l/m 0,0 km/h (0 Bft) N 0 0,000 mm -5,3 C -1,8 C 0,0 km/h (0 Bft) 100,00 %
11.12.2019 01:01 22,7 C -1,8 C 45 % 77 % 1026,1 hPa 0,0 l/m 0,0 km/h (0 Bft) N 0 0,000 mm -5,3 C -1,8 C 0,0 km/h (0 Bft) 95,65 %
11.12.2019 01:00 22,7 C -1,7 C 45 % 77 % 1026,1 hPa 0,0 l/m 0,0 km/h (0 Bft) N 0 0,000 mm -5,2 C -1,7 C 0,0 km/h (0 Bft) 100,00 %
11.12.2019 00:59 22,7 C -1,7 C 45 % 77 % 1026,1 hPa 0,0 l/m 0,0 km/h (0 Bft) N 0 0,000 mm -5,2 C -1,7 C 0,0 km/h (0 Bft) 95,65 %
11.12.2019 00:58 22,7 C -1,7 C 45 % 77 % 1026,1 hPa 0,0 l/m 0,0 km/h (0 Bft) N 0 0,000 mm -5,2 C -1,7 C 0,0 km/h (0 Bft) 100,00 %
11.12.2019 00:57 22,7 C -1,7 C 45 % 77 % 1026,2 hPa 0,0 l/m 0,0 km/h (0 Bft) N 0 0,000 mm -5,2 C -1,7 C 0,0 km/h (0 Bft) 95,65 %
11.12.2019 00:56 22,7 C -1,7 C 45 % 77 % 1026,2 hPa 0,0 l/m 0,0 km/h (0 Bft) N 0 0,000 mm -5,2 C -1,7 C 0,0 km/h (0 Bft) 95,65 %
11.12.2019 00:55 22,7 C -1,7 C 45 % 77 % 1026,3 hPa 0,0 l/m 0,0 km/h (0 Bft) N 0 0,000 mm -5,2 C -1,7 C 0,0 km/h (0 Bft) 100,00 %
11.12.2019 00:54 22,7 C -1,7 C 45 % 77 % 1026,3 hPa 0,0 l/m 0,0 km/h (0 Bft) N 0 0,000 mm -5,2 C -1,7 C 0,0 km/h (0 Bft) 100,00 %
11.12.2019 00:53 22,7 C -1,7 C 45 % 77 % 1026,3 hPa 0,0 l/m 0,0 km/h (0 Bft) N 0 0,000 mm -5,2 C -1,7 C 0,0 km/h (0 Bft) 100,00 %
11.12.2019 00:52 22,7 C -1,7 C 45 % 77 % 1026,4 hPa 0,0 l/m 0,0 km/h (0 Bft) N 0 0,000 mm -5,2 C -1,7 C 0,0 km/h (0 Bft) 100,00 %
11.12.2019 00:51 22,7 C -1,6 C 45 % 77 % 1026,4 hPa 0,0 l/m 0,0 km/h (0 Bft) N 0 0,000 mm -5,1 C -1,6 C 0,0 km/h (0 Bft) 100,00 %
11.12.2019 00:50 22,7 C -1,6 C 45 % 77 % 1026,4 hPa 0,0 l/m 0,0 km/h (0 Bft) N-NO 22 0,000 mm -5,1 C -1,6 C 1,6 km/h (1 Bft) 100,00 %
11.12.2019 00:49 22,7 C -1,6 C 45 % 77 % 1026,4 hPa 0,0 l/m 3,2 km/h (1 Bft) N-NO 22 0,000 mm -5,1 C -1,6 C 4,8 km/h (1 Bft) 100,00 %
11.12.2019 00:48 22,7 C -1,6 C 45 % 77 % 1026,3 hPa 0,0 l/m 3,2 km/h (1 Bft) N-NO 22 0,000 mm -5,1 C -1,6 C 4,8 km/h (1 Bft) 100,00 %
11.12.2019 00:47 22,7 C -1,5 C 45 % 77 % 1026,2 hPa 0,0 l/m 3,2 km/h (1 Bft) N-NO 22 0,000 mm -5,0 C -1,5 C 4,8 km/h (1 Bft) 100,00 %
11.12.2019 00:46 22,7 C -1,4 C 45 % 76 % 1026,2 hPa 0,0 l/m 4,8 km/h (1 Bft) N-NO 22 0,000 mm -5,1 C -1,4 C 4,8 km/h (1 Bft) 100,00 %
11.12.2019 00:45 22,7 C -1,4 C 45 % 76 % 1026,3 hPa 0,0 l/m 4,8 km/h (1 Bft) N-NO 22 0,000 mm -5,1 C -1,4 C 4,8 km/h (1 Bft) 100,00 %
11.12.2019 00:44 22,7 C -1,4 C 45 % 76 % 1026,2 hPa 0,0 l/m 3,2 km/h (1 Bft) N 360 0,000 mm -5,1 C -1,4 C 4,8 km/h (1 Bft) 100,00 %
11.12.2019 00:43 22,7 C -1,4 C 45 % 76 % 1026,3 hPa 0,0 l/m 1,6 km/h (1 Bft) W 270 0,000 mm -5,1 C -1,4 C 3,2 km/h (1 Bft) 100,00 %
11.12.2019 00:42 22,7 C -1,3 C 45 % 76 % 1026,3 hPa 0,0 l/m 0,0 km/h (0 Bft) W 270 0,000 mm -5,0 C -1,3 C 1,6 km/h (1 Bft) 95,65 %
11.12.2019 00:41 22,7 C -1,3 C 45 % 76 % 1026,3 hPa 0,0 l/m 0,0 km/h (0 Bft) W 270 0,000 mm -5,0 C -1,3 C 1,6 km/h (1 Bft) 100,00 %
11.12.2019 00:40 22,7 C -1,3 C 45 % 76 % 1026,4 hPa 0,0 l/m 1,6 km/h (1 Bft) W 270 0,000 mm -5,0 C -1,3 C 1,6 km/h (1 Bft) 100,00 %
11.12.2019 00:39 22,7 C -1,3 C 45 % 76 % 1026,3 hPa 0,0 l/m 1,6 km/h (1 Bft) W 270 0,000 mm -5,0 C -1,3 C 1,6 km/h (1 Bft) 95,65 %
11.12.2019 00:38 22,7 C -1,3 C 45 % 76 % 1026,4 hPa 0,0 l/m 1,6 km/h (1 Bft) W 270 0,000 mm -5,0 C -1,3 C 3,2 km/h (1 Bft) 100,00 %
11.12.2019 00:37 22,7 C -1,3 C 45 % 75 % 1026,5 hPa 0,0 l/m 3,2 km/h (1 Bft) W 270 0,000 mm -5,1 C -1,3 C 3,2 km/h (1 Bft) 95,65 %
11.12.2019 00:36 22,7 C -1,2 C 45 % 75 % 1026,5 hPa 0,0 l/m 1,6 km/h (1 Bft) W 270 0,000 mm -5,0 C -1,2 C 3,2 km/h (1 Bft) 100,00 %
11.12.2019 00:35 22,7 C -1,2 C 45 % 75 % 1026,5 hPa 0,0 l/m 1,6 km/h (1 Bft) W 270 0,000 mm -5,0 C -1,2 C 3,2 km/h (1 Bft) 100,00 %
11.12.2019 00:34 22,7 C -1,2 C 45 % 75 % 1026,5 hPa 0,0 l/m 1,6 km/h (1 Bft) W 270 0,000 mm -5,0 C -1,2 C 1,6 km/h (1 Bft) 100,00 %
11.12.2019 00:33 22,7 C -1,2 C 45 % 75 % 1026,5 hPa 0,0 l/m 1,6 km/h (1 Bft) W 270 0,000 mm -5,0 C -1,2 C 3,2 km/h (1 Bft) 100,00 %
11.12.2019 00:32 22,7 C -1,2 C 45 % 75 % 1026,4 hPa 0,0 l/m 1,6 km/h (1 Bft) W 270 0,000 mm -5,0 C -1,2 C 3,2 km/h (1 Bft) 100,00 %
11.12.2019 00:31 22,7 C -1,2 C 45 % 75 % 1026,4 hPa 0,0 l/m 1,6 km/h (1 Bft) W 270 0,000 mm -5,0 C -1,2 C 3,2 km/h (1 Bft) 100,00 %
11.12.2019 00:30 22,7 C -1,1 C 45 % 75 % 1026,4 hPa 0,0 l/m 1,6 km/h (1 Bft) W 270 0,000 mm -5,0 C -1,1 C 1,6 km/h (1 Bft) 100,00 %
11.12.2019 00:29 22,7 C -1,1 C 45 % 75 % 1026,4 hPa 0,0 l/m 1,6 km/h (1 Bft) W 270 0,000 mm -5,0 C -1,1 C 1,6 km/h (1 Bft) 100,00 %
11.12.2019 00:28 22,7 C -1,1 C 45 % 75 % 1026,4 hPa 0,0 l/m 1,6 km/h (1 Bft) W 270 0,000 mm -5,0 C -1,1 C 1,6 km/h (1 Bft) 100,00 %
11.12.2019 00:27 22,7 C -1,1 C 45 % 75 % 1026,5 hPa 0,0 l/m 1,6 km/h (1 Bft) W 270 0,000 mm -5,0 C -1,1 C 1,6 km/h (1 Bft) 100,00 %
11.12.2019 00:26 22,7 C -1,1 C 45 % 75 % 1026,5 hPa 0,0 l/m 1,6 km/h (1 Bft) W 270 0,000 mm -5,0 C -1,1 C 1,6 km/h (1 Bft) 100,00 %
11.12.2019 00:25 22,7 C -1,1 C 45 % 75 % 1026,5 hPa 0,0 l/m 1,6 km/h (1 Bft) W 270 0,000 mm -5,0 C -1,1 C 3,2 km/h (1 Bft) 100,00 %
11.12.2019 00:24 22,7 C -1,0 C 45 % 75 % 1026,5 hPa 0,0 l/m 1,6 km/h (1 Bft) W 270 0,000 mm -4,9 C -1,0 C 3,2 km/h (1 Bft) 100,00 %
11.12.2019 00:23 22,7 C -1,0 C 45 % 74 % 1026,5 hPa 0,0 l/m 3,2 km/h (1 Bft) W 270 0,000 mm -5,0 C -1,0 C 4,8 km/h (1 Bft) 100,00 %
11.12.2019 00:22 22,7 C -0,9 C 45 % 74 % 1026,5 hPa 0,0 l/m 3,2 km/h (1 Bft) W 270 0,000 mm -4,9 C -0,9 C 3,2 km/h (1 Bft) 100,00 %
11.12.2019 00:21 22,7 C -0,9 C 45 % 74 % 1026,4 hPa 0,0 l/m 3,2 km/h (1 Bft) W-SW 247 0,000 mm -4,9 C -0,9 C 3,2 km/h (1 Bft) 95,65 %
11.12.2019 00:20 22,7 C -0,9 C 45 % 74 % 1026,5 hPa 0,0 l/m 3,2 km/h (1 Bft) W-SW 247 0,000 mm -4,9 C -0,9 C 3,2 km/h (1 Bft) 95,65 %
11.12.2019 00:19 22,7 C -0,8 C 45 % 74 % 1026,4 hPa 0,0 l/m 3,2 km/h (1 Bft) W-SW 247 0,000 mm -4,8 C -0,8 C 3,2 km/h (1 Bft) 100,00 %
11.12.2019 00:18 22,7 C -0,8 C 45 % 74 % 1026,4 hPa 0,0 l/m 3,2 km/h (1 Bft) W-SW 247 0,000 mm -4,8 C -0,8 C 3,2 km/h (1 Bft) 100,00 %
11.12.2019 00:17 22,7 C -0,8 C 45 % 74 % 1026,5 hPa 0,0 l/m 1,6 km/h (1 Bft) W-SW 247 0,000 mm -4,8 C -0,8 C 3,2 km/h (1 Bft) 100,00 %
11.12.2019 00:16 22,7 C -0,8 C 45 % 74 % 1026,5 hPa 0,0 l/m 1,6 km/h (1 Bft) W-SW 247 0,000 mm -4,8 C -0,8 C 3,2 km/h (1 Bft) 100,00 %
11.12.2019 00:15 22,6 C -0,8 C 45 % 74 % 1026,5 hPa 0,0 l/m 1,6 km/h (1 Bft) SW 225 0,000 mm -4,8 C -0,8 C 3,2 km/h (1 Bft) 100,00 %
11.12.2019 00:14 22,7 C -0,7 C 45 % 74 % 1026,6 hPa 0,0 l/m 1,6 km/h (1 Bft) SW 225 0,000 mm -4,7 C -0,7 C 3,2 km/h (1 Bft) 95,65 %
11.12.2019 00:13 22,6 C -0,7 C 44 % 75 % 1026,6 hPa 0,0 l/m 1,6 km/h (1 Bft) S-SW 202 0,000 mm -4,6 C -0,7 C 3,2 km/h (1 Bft) 95,65 %
11.12.2019 00:12 22,7 C -0,7 C 45 % 75 % 1026,6 hPa 0,0 l/m 1,6 km/h (1 Bft) S 180 0,000 mm -4,6 C -0,7 C 3,2 km/h (1 Bft) 100,00 %
11.12.2019 00:11 22,7 C -0,7 C 45 % 75 % 1026,5 hPa 0,0 l/m 1,6 km/h (1 Bft) S 180 0,000 mm -4,6 C -0,7 C 3,2 km/h (1 Bft) 95,65 %
11.12.2019 00:10 22,7 C -0,7 C 44 % 75 % 1026,6 hPa 0,0 l/m 1,6 km/h (1 Bft) S 180 0,000 mm -4,6 C -0,7 C 3,2 km/h (1 Bft) 91,30 %
11.12.2019 00:09 22,7 C -0,7 C 44 % 75 % 1026,6 hPa 0,0 l/m 1,6 km/h (1 Bft) S 180 0,000 mm -4,6 C -0,7 C 3,2 km/h (1 Bft) 100,00 %
11.12.2019 00:08 22,7 C -0,6 C 44 % 75 % 1026,6 hPa 0,0 l/m 1,6 km/h (1 Bft) S 180 0,000 mm -4,5 C -0,6 C 3,2 km/h (1 Bft) 100,00 %
11.12.2019 00:07 22,7 C -0,6 C 44 % 75 % 1026,5 hPa 0,0 l/m 3,2 km/h (1 Bft) S 180 0,000 mm -4,5 C -0,6 C 4,8 km/h (1 Bft) 100,00 %
11.12.2019 00:06 22,7 C -0,6 C 44 % 75 % 1026,6 hPa 0,0 l/m 3,2 km/h (1 Bft) S 180 0,000 mm -4,5 C -0,6 C 4,8 km/h (1 Bft) 100,00 %
11.12.2019 00:05 22,6 C -0,6 C 44 % 76 % 1026,6 hPa 0,0 l/m 3,2 km/h (1 Bft) S 180 0,000 mm -4,3 C -0,6 C 4,8 km/h (1 Bft) 100,00 %
11.12.2019 00:04 22,6 C -0,6 C 44 % 76 % 1026,5 hPa 0,0 l/m 3,2 km/h (1 Bft) S 180 0,000 mm -4,3 C -0,6 C 4,8 km/h (1 Bft) 100,00 %
11.12.2019 00:03 22,6 C -0,6 C 44 % 76 % 1026,5 hPa 0,0 l/m 4,8 km/h (1 Bft) S 180 0,000 mm -4,3 C -0,6 C 8,0 km/h (2 Bft) 95,65 %
11.12.2019 00:02 22,6 C -0,6 C 44 % 76 % 1026,5 hPa 0,0 l/m 6,4 km/h (2 Bft) S 180 0,000 mm -4,3 C -0,6 C 8,0 km/h (2 Bft) 100,00 %
11.12.2019 00:01 22,7 C -0,6 C 44 % 76 % 1026,6 hPa 0,0 l/m 4,8 km/h (1 Bft) S 180 0,000 mm -4,3 C -0,6 C 6,4 km/h (2 Bft) 95,65 %
11.12.2019 00:00 22,7 C -0,6 C 44 % 76 % 1026,5 hPa 0,0 l/m 4,8 km/h (1 Bft) S 180 0,000 mm -4,3 C -0,6 C 8,0 km/h (2 Bft) 100,00 %
_ Min-Zeit 06:28 08:32 06:23 14:27 19:33 - 00:41 - - - 08:29 08:32 00:51 06:54
Minimum _ 22,4 C -6,4 C 33 % 73 % 1011,5 hPa - 0,0 km/h (0 Bft) - - - -9,0 C -6,4 C 0,0 km/h (0 Bft) 26,09 %
_ Max-Zeit 14:29 14:24 01:06 10:40 00:01 00:00 00:02 - - 00:00 13:17 14:24 13:22 00:00
Maximum _ 24,0 C 0,3 C 46 % 83 % 1026,6 hPa 0,0 l/m 6,4 km/h
S (2 Bft)
- - 0,000 mm -3,7 C 0,3 C 12,9 km/h
N-NO (3 Bft)
100,00 %
Durchschnitt _ 23,3 C -2,9 C 42 % 79 % 1018,5 hPa #0,0 l/m 1,9 km/h (1 Bft) N-NO - #0,000 mm -6,0 C -2,9 C 2,9 km/h (1 Bft) 98,91 %